[[{"header":{"parameterUnit":"m.s-1","parameterCategory":1,"la1":30.6,"la2":28.766,"lo1":-90.7593,"lo2":-88.6598,"dy":0.0162,"dx":0.0183,"nx":116,"ny":114,"refTime":"2024-03-10T12:00:00:Z","depth":0,"parameterNumber":2,"parameterNumberName":"U-component_of_WINDS"},"data":[0.0,0.0,0.0,0.0,0.0,0.0,0.0,0.0,0.0,0.0,0.0,0.0,0.0,0.0,0.0,0.0,0.0,0.0,0.0,0.0,0.0,0.0,0.0,0.0,0.0,0.0,0.0,0.0,0.0,0.0,0.0,0.0,0.0,0.0,0.0,0.0,0.0,0.0,0.0,0.0,0.0,0.0,0.0,0.0,0.0,0.0,0.0,0.0,0.0,0.0,0.0,0.0,0.0,0.0,0.0,0.0,0.0,0.0,0.0,0.0,0.0,0.0,0.0,0.0,0.0,0.0,0.0,0.0,0.0,0.0,0.0,0.0,0.0,0.0,0.0,0.0,0.0,0.0,0.0,0.0,0.0,0.0,0.0,0.0,0.0,0.0,0.0,0.0,0.0,0.0,0.0,0.0,0.0,0.0,0.0,0.0,0.0,0.0,0.0,0.0,0.0,0.0,0.0,0.0,0.0,0.0,0.0,0.0,0.0,0.0,0.0,0.0,0.0,0.0,0.0,0.0,0.0,0.0,0.0,0.0,0.0,0.0,0.0,0.0,0.0,0.0,0.0,0.0,0.0,0.0,0.0,0.0,0.0,0.0,0.0,0.0,0.0,0.0,0.0,0.0,0.0,0.0,0.0,0.0,0.0,0.0,0.0,0.0,0.0,0.0,0.0,0.0,0.0,0.0,0.0,0.0,0.0,0.0,0.0,0.0,0.0,0.0,0.0,0.0,0.0,0.0,0.0,0.0,0.0,0.0,0.0,0.0,0.0,0.0,0.0,0.0,0.0,0.0,0.0,0.0,0.0,0.0,0.0,0.0,0.0,0.0,0.0,0.0,0.0,0.0,0.0,0.0,0.0,0.0,0.0,0.0,0.0,0.0,0.0,0.0,0.0,0.0,0.0,0.0,0.0,0.0,0.0,0.0,0.0,0.0,0.0,0.0,0.0,0.0,0.0,0.0,0.0,0.0,0.0,0.0,0.0,0.0,0.0,0.0,0.0,0.0,0.0,0.0,0.0,0.0,0.0,0.0,0.0,0.0,0.0,0.0,0.0,0.0,0.0,0.0,0.0,0.0,0.0,0.0,0.0,0.0,0.0,0.0,0.0,0.0,0.0,0.0,0.0,0.0,0.0,0.0,0.0,0.0,0.0,0.0,0.0,0.0,0.0,0.0,0.0,0.0,0.0,0.0,0.0,0.0,0.0,0.0,0.0,0.0,0.0,0.0,0.0,0.0,0.0,0.0,0.0,0.0,0.0,0.0,0.0,0.0,0.0,0.0,0.0,0.0,0.0,0.0,0.0,0.0,0.0,0.0,0.0,0.0,0.0,0.0,0.0,0.0,0.0,0.0,0.0,0.0,0.0,0.0,0.0,0.0,0.0,0.0,0.0,0.0,0.0,0.0,0.0,0.0,0.0,0.0,0.0,0.0,0.0,0.0,0.0,0.0,0.0,0.0,0.0,0.0,0.0,0.0,0.0,0.0,0.0,0.0,0.0,0.0,0.0,0.0,0.0,0.0,0.0,0.0,0.0,0.0,0.0,0.0,0.0,0.0,0.0,0.0,0.0,0.0,0.0,0.0,0.0,0.0,0.0,0.0,0.0,0.0,0.0,0.0,0.0,0.0,0.0,0.0,0.0,0.0,0.0,0.0,0.0,0.0,0.0,0.0,0.0,0.0,0.0,0.0,0.0,0.0,0.0,0.0,0.0,0.0,0.0,0.0,0.0,0.0,0.0,0.0,0.0,0.0,0.0,0.0,0.0,0.0,0.0,0.0,0.0,0.0,0.0,0.0,0.0,0.0,0.0,0.0,0.0,0.0,0.0,0.0,0.0,0.0,0.0,0.0,0.0,0.0,0.0,0.0,0.0,0.0,0.0,0.0,0.0,0.0,0.0,0.0,0.0,0.0,0.0,0.0,0.0,0.0,0.0,0.0,0.0,0.0,0.0,0.0,0.0,0.0,0.0,0.0,0.0,0.0,0.0,0.0,0.0,0.0,0.0,0.0,0.0,0.0,0.0,0.0,0.0,0.0,0.0,0.0,0.0,0.0,0.0,0.0,0.0,0.0,0.0,0.0,0.0,0.0,0.0,0.0,0.0,0.0,0.0,0.0,0.0,0.0,0.0,0.0,0.0,0.0,0.0,0.0,0.0,0.0,0.0,0.0,0.0,0.0,0.0,0.0,0.0,0.0,0.0,0.0,0.0,0.0,0.0,0.0,0.0,0.0,0.0,0.0,0.0,0.0,0.0,0.0,0.0,0.0,0.0,0.0,0.0,0.0,0.0,0.0,0.0,0.0,0.0,0.0,0.0,0.0,0.0,0.0,0.0,0.0,0.0,0.0,0.0,0.0,0.0,0.0,0.0,0.0,0.0,0.0,0.0,0.0,0.0,0.0,0.0,0.0,0.0,0.0,0.0,0.0,0.0,0.0,0.0,0.0,0.0,0.0,0.0,0.0,0.0,0.0,0.0,0.0,0.0,0.0,0.0,0.0,0.0,0.0,0.0,0.0,0.0,0.0,0.0,0.0,0.0,0.0,0.0,0.0,0.0,0.0,0.0,0.0,0.0,0.0,0.0,0.0,0.0,0.0,0.0,0.0,0.0,0.0,0.0,0.0,0.0,0.0,0.0,0.0,0.0,0.0,0.0,0.0,0.0,0.0,0.0,0.0,0.0,0.0,0.0,0.0,0.0,0.0,0.0,0.0,0.0,0.0,0.0,0.0,0.0,0.0,0.0,0.0,0.0,0.0,0.0,0.0,0.0,0.0,0.0,0.0,0.0,0.0,0.0,0.0,0.0,0.0,0.0,0.0,0.0,0.0,0.0,0.0,0.0,0.0,0.0,0.0,0.0,0.0,0.0,0.0,0.0,0.0,0.0,0.0,0.0,0.0,0.0,0.0,0.0,0.0,0.0,0.0,0.0,0.0,0.0,0.0,0.0,0.0,0.0,0.0,0.0,0.0,0.0,0.0,0.0,0.0,0.0,0.0,0.0,0.0,0.0,0.0,0.0,0.0,0.0,0.0,0.0,0.0,0.0,0.0,0.0,0.0,0.0,0.0,0.0,0.0,0.0,0.0,0.0,0.0,0.0,0.0,0.0,0.0,0.0,0.0,0.0,0.0,0.0,0.0,0.0,0.0,0.0,0.0,0.0,0.0,0.0,0.0,0.0,0.0,0.0,0.0,0.0,0.0,0.0,0.0,0.0,0.0,0.0,0.0,0.0,0.0,0.0,0.0,0.0,0.0,0.0,0.0,0.0,0.0,0.0,0.0,0.0,0.0,0.0,0.0,0.0,0.0,0.0,0.0,0.0,0.0,0.0,0.0,0.0,0.0,0.0,0.0,0.0,0.0,0.0,0.0,0.0,0.0,0.0,0.0,0.0,0.0,0.0,0.0,0.0,0.0,0.0,0.0,0.0,0.0,0.0,0.0,0.0,0.0,0.0,0.0,0.0,0.0,0.0,0.0,0.0,0.0,0.0,0.0,0.0,0.0,0.0,0.0,0.0,0.0,0.0,0.0,0.0,0.0,0.0,0.0,0.0,0.0,0.0,0.0,0.0,0.0,0.0,0.0,0.0,0.0,0.0,0.0,0.0,0.0,0.0,0.0,0.0,0.0,0.0,0.0,0.0,0.0,0.0,0.0,0.0,0.0,0.0,0.0,0.0,0.0,0.0,0.0,0.0,0.0,0.0,0.0,0.0,0.0,0.0,0.0,0.0,0.0,0.0,0.0,0.0,0.0,0.0,0.0,0.0,0.0,0.0,0.0,0.0,0.0,0.0,0.0,0.0,0.0,0.0,0.0,0.0,0.0,0.0,0.0,0.0,0.0,0.0,0.0,0.0,0.0,0.0,0.0,0.0,0.0,0.0,0.0,0.0,0.0,0.0,0.0,0.0,0.0,0.0,0.0,0.0,0.0,0.0,0.0,0.0,0.0,0.0,0.0,0.0,0.0,0.0,0.0,0.0,0.0,0.0,0.0,0.0,0.0,0.0,0.0,0.0,0.0,0.0,0.0,0.0,0.0,0.0,0.0,0.0,0.0,0.0,0.0,0.0,0.0,0.0,0.0,0.0,0.0,0.0,0.0,0.0,0.0,0.0,0.0,0.0,0.0,0.0,0.0,0.0,0.0,0.0,0.0,0.0,0.0,0.0,0.0,0.0,0.0,0.0,0.0,0.0,0.0,0.0,0.0,0.0,0.0,0.0,0.0,0.0,0.0,0.0,0.0,0.0,0.0,0.0,0.0,0.0,0.0,0.0,0.0,0.0,0.0,0.0,0.0,0.0,0.0,0.0,0.0,0.0,0.0,0.0,0.0,0.0,0.0,0.0,0.0,0.0,0.0,0.0,0.0,0.0,0.0,0.0,0.0,0.0,0.0,0.0,0.0,0.0,0.0,0.0,0.0,0.0,0.0,0.0,0.0,0.0,0.0,0.0,0.0,0.0,0.0,0.0,0.0,0.0,0.0,0.0,0.0,0.0,0.0,0.0,0.0,0.0,0.0,0.0,0.0,0.0,0.0,0.0,0.0,0.0,0.0,0.0,0.0,0.0,0.0,0.0,0.0,0.0,0.0,0.0,0.0,0.0,0.0,0.0,0.0,0.0,0.0,0.0,0.0,0.0,0.0,0.0,0.0,0.0,0.0,0.0,0.0,0.0,0.0,0.0,0.0,0.0,0.0,0.0,0.0,0.0,0.0,0.0,0.0,0.0,0.0,0.0,0.0,0.0,0.0,0.0,0.0,0.0,0.0,0.0,0.0,0.0,0.0,0.0,0.0,0.0,0.0,0.0,0.0,0.0,0.0,0.0,0.0,0.0,0.0,0.0,0.0,0.0,0.0,0.0,0.0,0.0,0.0,0.0,0.0,0.0,0.0,0.0,0.0,0.0,0.0,0.0,0.0,0.0,0.0,0.0,0.0,0.0,0.0,0.0,0.0,0.0,0.0,0.0,0.0,0.0,0.0,0.0,0.0,0.0,0.0,0.0,0.0,0.0,0.0,0.0,0.0,0.0,0.0,0.0,0.0,0.0,0.0,0.0,0.0,0.0,0.0,0.0,0.0,0.0,0.0,0.0,0.0,0.0,0.0,0.0,0.0,0.0,0.0,0.0,0.0,0.0,0.0,0.0,0.0,0.0,0.0,0.0,0.0,0.0,0.0,0.0,0.0,0.0,0.0,0.0,0.0,0.0,0.0,0.0,0.0,0.0,0.0,0.0,0.0,0.0,0.0,0.0,0.0,0.0,0.0,0.0,0.0,0.0,0.0,0.0,0.0,0.0,0.0,0.0,0.0,0.0,0.0,0.0,0.0,0.0,0.0,0.0,0.0,0.0,0.0,0.0,0.0,0.0,0.0,0.0,0.0,0.0,0.0,0.0,0.0,0.0,0.0,0.0,0.0,0.0,0.0,0.0,0.0,0.0,0.0,0.0,0.0,0.0,0.0,0.0,0.0,0.0,0.0,0.0,0.0,0.0,0.0,0.0,0.0,0.0,0.0,0.0,0.0,0.0,0.0,0.0,0.0,0.0,0.0,0.0,0.0,0.0,0.0,0.0,0.0,0.0,0.0,0.0,0.0,0.0,0.0,0.0,0.0,0.0,0.0,0.0,0.0,0.0,0.0,0.0,0.0,0.0,0.0,0.0,0.0,0.0,0.0,0.0,0.0,0.0,0.0,0.0,0.0,0.0,0.0,0.0,0.0,0.0,0.0,0.0,0.0,0.0,0.0,0.0,0.0,0.0,0.0,0.0,0.0,0.0,0.0,0.0,0.0,0.0,0.0,0.0,0.0,0.0,0.0,0.0,0.0,0.0,0.0,0.0,0.0,0.0,0.0,0.0,0.0,0.0,0.0,0.0,0.0,0.0,0.0,0.0,0.0,0.0,0.0,0.0,0.0,0.0,0.0,0.0,0.0,0.0,0.0,0.0,0.0,0.0,0.0,0.0,0.0,0.0,0.0,0.0,0.0,0.0,0.0,0.0,0.0,0.0,0.0,0.0,0.0,0.0,0.0,0.0,0.0,0.0,0.0,0.0,0.0,0.0,0.0,0.0,0.0,0.0,0.0,0.0,0.0,0.0,0.0,0.0,0.0,0.0,0.0,0.0,0.0,0.0,0.0,4.3656,0.0,0.0,0.0,0.0,0.0,0.0,0.0,0.0,0.0,0.0,0.0,0.0,0.0,0.0,0.0,0.0,0.0,0.0,0.0,0.0,0.0,0.0,0.0,0.0,0.0,0.0,0.0,0.0,0.0,0.0,0.0,0.0,0.0,0.0,0.0,0.0,0.0,3.8789,3.9219,3.8359,3.8594,3.9883,4.0664,0.0,0.0,0.0,0.0,0.0,0.0,0.0,0.0,0.0,0.0,0.0,0.0,0.0,0.0,0.0,0.0,0.0,0.0,0.0,0.0,0.0,0.0,0.0,0.0,0.0,0.0,0.0,0.0,0.0,0.0,0.0,0.0,0.0,0.0,0.0,0.0,0.0,0.0,0.0,0.0,0.0,0.0,0.0,0.0,0.0,0.0,0.0,0.0,0.0,0.0,0.0,0.0,0.0,0.0,0.0,0.0,0.0,0.0,0.0,0.0,0.0,0.0,0.0,0.0,0.0,0.0,0.0,0.0,0.0,0.0,0.0,0.0,0.0,4.3799,0.0,0.0,0.0,0.0,0.0,0.0,0.0,0.0,0.0,0.0,0.0,0.0,0.0,0.0,0.0,0.0,0.0,0.0,0.0,0.0,0.0,0.0,0.0,3.8633,4.0391,4.2226,4.3203,4.3711,0.0,0.0,0.0,0.0,0.0,4.0859,4.0156,3.9961,4.0039,4.0351,3.9766,4.0234,4.168,0.0,0.0,0.0,0.0,0.0,0.0,0.0,0.0,0.0,0.0,0.0,0.0,0.0,0.0,0.0,0.0,0.0,0.0,0.0,0.0,0.0,0.0,0.0,0.0,0.0,0.0,0.0,0.0,0.0,0.0,0.0,0.0,0.0,0.0,0.0,0.0,0.0,0.0,0.0,0.0,0.0,0.0,0.0,0.0,0.0,0.0,0.0,0.0,0.0,0.0,0.0,0.0,0.0,0.0,0.0,0.0,0.0,0.0,0.0,0.0,0.0,0.0,0.0,0.0,0.0,0.0,0.0,0.0,4.9817,4.9067,5.0622,5.0559,4.9103,4.6954,4.6039,4.5988,0.0,0.0,0.0,0.0,0.0,0.0,0.0,0.0,0.0,0.0,0.0,0.0,0.0,0.0,0.0,0.0,0.0,0.0,0.0,0.0,0.0,0.0,3.7734,3.9726,4.2109,4.3164,4.3672,4.3633,0.0,4.3203,4.2422,4.1641,4.1133,4.1016,4.0273,4.0625,4.207,4.2695,4.3164,4.3398,4.4375,4.4648,4.4258,4.2851,0.0,0.0,0.0,0.0,0.0,0.0,0.0,0.0,0.0,0.0,0.0,0.0,0.0,0.0,0.0,0.0,0.0,0.0,0.0,0.0,0.0,0.0,0.0,0.0,0.0,0.0,0.0,0.0,0.0,0.0,0.0,0.0,0.0,0.0,0.0,0.0,0.0,0.0,0.0,0.0,0.0,0.0,0.0,4.6496,4.6737,0.0,0.0,0.0,0.0,0.0,0.0,0.0,0.0,0.0,0.0,0.0,0.0,0.0,0.0,5.1048,5.2779,5.3203,5.2395,5.3356,5.3415,5.2705,5.2319,5.243,5.2855,5.1742,0.0,4.6932,4.6775,0.0,0.0,0.0,0.0,0.0,0.0,0.0,0.0,0.0,0.0,0.0,0.0,0.0,0.0,0.0,0.0,0.0,0.0,0.0,0.0,0.0,3.8754,4.1457,4.3458,4.5742,4.6649,4.5679,4.5266,4.4453,4.3125,4.1875,4.1211,4.1211,4.1289,4.2148,4.3867,4.5234,4.5898,4.5898,4.6797,4.7187,4.7148,4.5898,4.5124,4.4727,4.3607,0.0,0.0,0.0,0.0,0.0,0.0,0.0,0.0,0.0,0.0,0.0,0.0,0.0,0.0,0.0,0.0,0.0,0.0,0.0,0.0,0.0,0.0,0.0,0.0,0.0,0.0,0.0,0.0,0.0,0.0,0.0,0.0,0.0,0.0,0.0,0.0,0.0,0.0,0.0,4.5517,4.7362,4.6373,4.6837,4.6491,0.0,0.0,0.0,0.0,0.0,0.0,0.0,0.0,0.0,4.9702,5.1741,5.301,5.3356,5.4587,5.5263,5.5455,5.5763,5.6071,5.6382,5.6046,5.6141,5.6536,5.5578,5.4023,5.203,4.9567,4.8174,4.7447,0.0,0.0,0.0,0.0,0.0,4.486,0.0,0.0,0.0,0.0,0.0,0.0,0.0,0.0,0.0,0.0,0.0,0.0,3.6311,4.0113,4.3235,4.5131,4.7607,4.8596,4.7544,4.6183,4.4862,4.3633,4.2031,4.1172,4.1211,4.2422,4.3828,4.5312,4.7305,4.8281,4.8281,4.9141,4.9531,4.9492,4.8867,4.7624,4.6005,4.5158,4.3607,0.0,0.0,0.0,0.0,0.0,0.0,0.0,0.0,0.0,0.0,0.0,0.0,0.0,0.0,0.0,0.0,0.0,0.0,0.0,0.0,0.0,0.0,0.0,0.0,0.0,0.0,0.0,0.0,0.0,0.0,0.0,0.0,0.0,0.0,0.0,0.0,0.0,0.0,4.6934,4.851,4.6624,4.8337,4.8529,0.0,0.0,0.0,0.0,0.0,0.0,4.924,5.1068,5.2453,5.3164,5.5126,5.6148,5.6126,5.6934,5.761,5.8171,5.8033,5.8473,5.938,5.9163,5.911,5.922,5.8168,5.728,5.6186,5.2259,5.0571,5.0264,4.873,4.8164,4.8278,4.8701,4.7874,4.6698,0.0,0.0,0.0,0.0,0.0,0.0,0.0,0.0,0.0,0.0,0.0,3.547,3.7916,4.1268,4.4308,4.6702,4.7146,4.7587,4.8221,4.5274,4.3574,4.3593,4.1953,4.1055,4.1211,4.3594,4.5312,4.6211,4.8828,5.0078,5.0078,5.0898,5.1289,5.1289,5.1211,5.0594,4.9332,4.6059,4.4568,4.403,0.0,0.0,0.0,0.0,0.0,0.0,0.0,0.0,0.0,0.0,0.0,0.0,0.0,0.0,0.0,0.0,0.0,0.0,0.0,0.0,0.0,0.0,0.0,0.0,0.0,0.0,0.0,0.0,0.0,0.0,0.0,0.0,0.0,0.0,0.0,0.0,0.0,0.0,0.0,4.8279,5.0933,0.0,0.0,0.0,0.0,4.8388,4.9893,5.1163,5.1973,5.4495,5.619,5.6703,5.9287,6.0635,6.0473,6.132,6.1435,6.0804,6.0666,6.0858,6.1328,6.0375,6.0065,6.0243,5.9124,5.8134,5.7131,5.4489,5.2933,5.2026,5.0611,5.0,4.9766,4.8983,4.8499,4.8214,0.0,0.0,0.0,0.0,0.0,0.0,0.0,0.0,3.1175,3.1904,3.3945,3.6501,3.9469,4.3325,4.6724,4.9179,4.9912,5.0106,4.9875,4.68,4.5032,4.5071,4.302,4.2704,4.4453,4.5273,4.6719,4.8828,4.9726,5.0469,5.0976,5.1289,5.1406,5.1406,5.1406,5.1105,5.0529,4.8739,4.6914,4.5009,4.2755,4.0565,0.0,0.0,0.0,0.0,0.0,0.0,0.0,0.0,0.0,0.0,0.0,0.0,0.0,0.0,0.0,0.0,0.0,0.0,0.0,0.0,0.0,0.0,0.0,0.0,0.0,0.0,0.0,0.0,0.0,0.0,0.0,0.0,0.0,0.0,0.0,0.0,0.0,5.0719,5.3643,0.0,0.0,5.1625,5.2133,5.2872,5.3891,5.5361,5.7251,5.869,6.0033,6.1232,6.2172,6.232,6.1627,6.1935,6.1781,6.1189,6.0935,6.1112,6.1597,6.1089,6.0993,6.1144,5.9425,5.8521,5.8072,5.5972,5.4664,5.388,5.2791,5.2109,5.1719,5.1406,5.0805,5.0163,0.0,0.0,0.0,0.0,0.0,0.0,0.0,0.0,3.1809,3.3098,3.5469,3.8397,4.1875,4.5592,4.8702,5.0911,5.1336,5.1125,5.0317,4.7492,4.5757,4.5515,4.3775,4.3753,4.5741,4.6319,4.75,4.9336,5.0195,5.0586,5.0547,5.0859,5.0859,5.0547,5.0547,5.0442,5.0189,4.9937,4.8491,4.6278,4.4333,4.2618,4.0868,0.0,0.0,0.0,0.0,0.0,0.0,0.0,0.0,0.0,0.0,0.0,0.0,0.0,0.0,0.0,0.0,0.0,0.0,0.0,0.0,0.0,0.0,0.0,0.0,0.0,0.0,0.0,0.0,0.0,0.0,0.0,0.0,0.0,0.0,0.0,5.33,5.2427,5.5682,5.6939,5.4284,5.4889,5.5885,5.6953,5.7734,5.914,6.1406,6.2036,6.2881,6.4061,6.3801,6.332,6.2627,6.2281,6.1843,6.1304,6.0935,6.1112,6.1674,6.1438,6.1268,6.1172,5.974,5.8823,5.8149,5.6819,5.5895,5.5267,5.4429,5.3906,5.3555,5.3242,5.2674,5.202,0.0,0.0,0.0,0.0,0.0,0.0,0.0,3.1641,3.3034,3.5399,3.7951,4.1119,4.5201,4.7894,5.0125,5.1779,5.1164,5.0317,4.9471,4.7124,4.5433,4.4742,4.4114,4.4142,4.4906,4.667,4.7617,4.7695,5.0117,5.0508,4.8906,4.9766,4.9726,4.8906,4.8906,4.8766,4.8564,4.9434,4.9144,4.7932,4.5432,4.4449,4.4135,0.0,0.0,0.0,0.0,0.0,0.0,0.0,0.0,0.0,0.0,0.0,0.0,0.0,0.0,0.0,0.0,0.0,0.0,0.0,0.0,0.0,0.0,0.0,0.0,0.0,0.0,0.0,0.0,0.0,0.0,0.0,0.0,0.0,4.9273,5.2454,5.428,5.3524,5.7066,5.8418,5.5437,5.7388,5.9272,6.0351,6.125,6.2422,6.3984,6.418,6.4509,6.5061,6.4251,6.3729,6.3526,6.2589,6.1843,6.1304,6.0935,6.1112,6.1674,6.1399,6.0956,6.039,6.0059,5.8954,5.7362,5.7088,5.6665,5.6135,5.541,5.5234,5.5234,5.4375,5.3906,5.3587,0.0,0.0,0.0,0.0,0.0,0.0,0.0,3.1641,3.3034,3.5399,3.8474,4.2008,4.6106,4.8817,5.101,5.2702,5.0933,4.9933,5.0317,4.7009,4.4963,4.4904,0.0,0.0,4.7757,4.7553,4.8124,4.9492,4.9531,4.9336,4.8906,4.9141,4.9141,4.8906,4.8906,4.8766,4.8564,4.9428,4.9528,4.8933,4.7586,4.6047,4.4355,0.0,0.0,0.0,0.0,0.0,0.0,0.0,0.0,0.0,0.0,0.0,0.0,0.0,0.0,0.0,0.0,0.0,0.0,0.0,0.0,0.0,0.0,0.0,0.0,0.0,0.0,0.0,0.0,0.0,0.0,0.0,0.0,5.0368,5.1953,5.4545,5.6913,5.8496,6.0296,6.1151,6.0481,6.1097,6.1487,6.1366,6.2148,6.2851,6.3281,6.3359,6.3611,6.4154,6.3934,6.3398,6.2512,6.2243,6.1743,6.1074,6.0896,6.105,6.152,6.0724,6.0371,6.0312,5.8765,5.7853,5.7324,5.6417,5.6088,5.6174,5.5996,5.6055,5.6133,5.5273,5.4101,5.2845,0.0,0.0,0.0,0.0,0.0,0.0,0.0,3.1914,3.3697,3.6378,3.9427,4.3023,4.7452,4.8933,5.0279,5.201,5.0125,4.8779,4.8586,4.6136,4.4909,0.0,0.0,4.66,4.7696,4.7592,4.8022,4.9101,4.8984,4.8711,4.8359,4.8359,4.8164,4.7812,4.7752,4.7595,4.7475,4.8678,4.9067,4.8856,4.9086,4.8355,4.6914,4.5414,4.4547,4.3991,4.2825,4.31,4.3759,4.2121,0.0,0.0,0.0,0.0,0.0,0.0,0.0,0.0,0.0,0.0,0.0,0.0,0.0,0.0,0.0,0.0,0.0,0.0,0.0,0.0,0.0,0.0,0.0,0.0,5.0648,5.3267,5.5241,5.6982,5.8741,6.058,6.1565,6.205,6.2021,6.2012,6.2102,6.2226,6.2695,6.3164,6.3515,6.3203,6.3277,6.3906,6.3175,6.2568,6.219,6.1766,6.1358,6.0973,6.0858,6.0843,6.0827,6.0259,5.9747,0.0,5.7946,5.7218,5.6862,5.6032,5.5857,0.0,0.0,0.0,0.0,0.0,5.4219,5.2615,0.0,0.0,0.0,0.0,0.0,0.0,0.0,3.2305,3.4521,3.7676,4.0436,4.3862,4.8509,4.8471,4.8702,5.0279,4.8894,4.7317,4.5719,4.5105,0.0,4.5866,4.6144,4.6281,4.6268,4.7045,4.75,4.7617,4.8281,4.8203,4.7461,4.7461,4.7031,4.6289,4.615,4.6042,4.6017,4.7626,4.8221,4.824,4.9894,5.0548,5.0317,4.8161,4.785,4.8188,4.5929,4.5231,4.517,4.3573,0.0,0.0,0.0,0.0,0.0,0.0,0.0,0.0,0.0,0.0,0.0,0.0,0.0,0.0,0.0,0.0,0.0,0.0,0.0,0.0,0.0,0.0,0.0,0.0,5.3662,5.6143,5.8504,5.9465,6.0181,6.0896,6.1666,6.1935,6.1473,6.144,6.1841,6.2773,6.293,6.3281,6.3984,0.0,0.0,0.0,0.0,6.1574,6.2136,6.1266,6.0858,6.0973,6.0858,6.0496,5.9964,5.9879,5.9083,5.769,5.7385,5.6869,5.6186,5.5818,5.5742,5.5805,5.5993,5.6308,5.6484,5.539,5.4101,0.0,0.0,0.0,0.0,0.0,0.0,0.0,0.0,3.2305,3.4336,3.6985,4.0117,4.3209,4.6163,4.7471,4.824,4.8586,4.7702,4.6758,4.583,4.5648,4.5723,4.6062,4.6124,4.6502,4.7276,4.6794,4.6914,4.7617,4.707,4.6719,4.6562,4.6562,4.6445,4.6289,4.615,4.6039,4.6028,4.7622,4.8221,4.8202,4.924,4.9663,4.9586,4.9125,4.8748,4.8437,4.7825,4.862,4.9669,4.8029,4.7872,4.8161,4.6953,0.0,0.0,0.0,0.0,0.0,0.0,0.0,0.0,0.0,0.0,0.0,0.0,0.0,0.0,0.0,0.0,0.0,0.0,0.0,0.0,5.2969,5.5901,5.8363,5.9565,6.1381,6.2421,6.2054,6.2079,6.2117,6.2131,6.2259,6.2191,6.1833,6.2539,6.2773,6.2226,6.2031,0.0,6.1998,6.1552,6.1304,6.1266,6.0935,6.0819,6.0819,0.0,0.0,5.9804,5.922,5.8474,5.7633,5.6806,5.635,5.6186,5.5818,5.5472,5.5093,5.5255,5.5856,5.6328,5.4023,5.3437,5.3516,0.0,0.0,0.0,0.0,0.0,0.0,0.0,3.2031,3.4297,3.6797,3.9306,4.1963,4.4833,4.5086,4.5201,4.5586,4.4816,4.4547,4.5004,4.5158,4.5454,4.5963,4.613,4.6443,4.6953,4.6523,4.6953,4.8242,4.6953,4.6758,4.7578,4.6638,4.6259,4.6328,4.6487,4.6547,4.6663,4.8202,4.8817,4.8817,4.9702,4.9798,4.9413,4.9471,4.9346,4.9201,4.9595,5.0105,5.0467,4.9722,4.9956,5.0352,4.9248,4.8008,4.6797,0.0,0.0,0.0,0.0,0.0,0.0,0.0,0.0,0.0,0.0,0.0,0.0,0.0,0.0,4.584,4.7571,0.0,5.3398,5.5508,5.7863,5.9788,6.0718,6.1612,6.2036,6.1695,6.2281,6.2435,6.1733,6.182,6.1823,6.1521,6.2031,6.2148,6.1719,6.1719,6.164,6.1484,6.1379,6.1196,6.0997,6.0858,6.0781,6.0781,6.0358,5.9742,5.9011,5.8357,5.7639,5.6942,5.6425,5.6194,5.6186,5.5818,5.5626,5.5478,5.4665,5.4473,5.4492,5.3164,5.2695,5.2578,0.0,0.0,0.0,0.0,0.0,0.0,0.0,3.1875,3.418,3.6367,3.8274,4.0492,4.325,4.2456,4.2047,4.2777,4.2354,4.2701,0.0,4.4696,4.523,4.587,4.615,4.6289,4.6289,4.6484,4.7226,4.8633,4.7422,4.7539,4.8867,4.7326,4.6668,4.6796,4.7105,4.7299,4.7491,4.8856,4.9394,4.9452,4.9971,4.9875,4.9375,4.9163,4.926,4.9622,5.0392,5.0146,4.9531,4.9805,5.029,5.066,5.0328,4.9726,4.8945,4.7891,4.7461,0.0,0.0,0.0,0.0,0.0,0.0,0.0,0.0,0.0,4.5543,4.6414,4.743,4.8963,5.1391,5.3433,5.5547,5.8008,5.9531,6.0729,6.1576,6.1464,6.1195,6.1058,6.2098,6.2329,6.1074,6.1189,6.1358,6.1443,6.1601,6.1719,6.1719,6.1719,6.164,6.1523,6.1381,6.1225,6.1074,6.0896,6.0704,6.055,5.9858,5.9011,5.805,5.7604,5.6964,5.6191,5.6212,5.6156,5.6071,5.5818,5.5665,5.5535,5.4142,5.3124,5.2422,5.2422,5.2109,5.1641,0.0,0.0,0.0,0.0,0.0,0.0,0.0,0.0,3.3789,3.4844,3.705,3.8937,4.0035,4.0578,4.1123,4.1893,4.2547,0.0,4.4239,4.5218,4.5795,4.5909,4.615,4.6289,4.6289,4.707,4.7539,4.7734,4.832,4.8711,4.8906,4.8567,4.8412,4.8424,4.822,4.8145,4.8221,4.9048,4.9394,4.9356,4.8644,4.8798,4.926,4.7758,4.7817,4.8625,4.8621,4.8224,4.7812,4.8594,4.8904,4.9133,4.9921,5.0117,4.9726,4.8086,0.0,4.5859,4.3242,4.2695,4.332,4.5311,4.5774,4.6527,0.0,0.0,4.9087,4.9949,5.099,5.2299,5.4149,5.612,5.8047,5.9844,6.082,6.1431,6.1674,6.1974,6.1931,6.134,6.1151,6.1012,6.0819,6.1112,6.132,6.1326,6.1562,6.1719,6.1719,6.1719,6.168,6.168,6.1444,6.1283,6.1266,6.0935,6.0435,5.9642,5.9565,5.8681,5.7165,5.7328,5.6984,5.622,5.6188,5.6036,5.5742,5.5703,5.4934,5.3705,5.3637,5.2695,5.1367,5.1484,5.1953,5.2422,0.0,0.0,0.0,0.0,0.0,0.0,0.0,0.0,0.0,3.4609,3.6476,3.8059,3.882,3.8672,3.8777,3.9508,4.0816,0.0,4.3508,4.5064,4.5911,4.5909,4.615,4.6289,4.6289,4.7148,4.7617,4.7617,4.7969,4.8125,4.8125,4.7932,4.7851,4.7972,4.8644,4.899,4.9144,5.0356,5.0587,5.0164,5.026,4.9644,4.8585,4.7871,4.6989,4.6357,4.7799,4.7558,0.0,0.0,4.8187,4.8672,4.9062,4.9258,4.918,4.8437,4.8047,0.0,4.6484,4.582,0.0,0.0,4.872,5.013,5.131,5.1663,5.1969,5.2724,5.3378,5.4341,5.602,5.7633,5.9023,0.0,6.1094,6.1631,6.1703,6.1729,6.1426,6.0646,6.0704,6.0781,6.0781,6.0589,6.0683,6.1248,6.1015,6.1094,6.168,6.1719,6.1719,6.1719,6.1445,6.1307,6.1304,6.0973,6.0358,5.9465,5.9027,5.8181,5.6989,5.6797,5.6518,5.622,5.6212,5.6032,5.5665,5.5182,5.4682,5.4087,5.3184,5.2495,5.1914,5.1523,5.1641,5.1875,0.0,0.0,0.0,0.0,0.0,0.0,0.0,0.0,0.0,0.0,3.5664,3.685,3.7594,3.6999,3.6839,3.7584,0.0,0.0,0.0,4.447,4.5626,4.5909,4.6111,4.625,4.6289,4.7383,4.7969,4.7969,4.8437,4.8633,4.8633,4.8379,4.8335,4.8491,4.9606,5.0164,5.0336,5.1682,5.1779,5.1048,5.1313,5.0086,4.8025,4.7447,4.595,4.4397,4.6454,4.6204,0.0,0.0,4.623,4.6718,4.6748,4.7138,4.7619,4.7654,4.7734,4.7812,4.7812,0.0,0.0,4.8867,5.1055,5.2917,5.2885,5.3507,5.4244,5.4746,5.5075,5.5692,5.714,5.8194,5.9101,5.9922,6.0781,6.1328,6.1328,6.1094,6.0723,6.0106,6.005,6.0111,6.0104,5.9911,6.0228,6.1212,6.0616,6.0625,6.164,6.1719,6.168,6.164,6.1406,6.1151,6.0881,6.0589,5.9873,5.8788,5.8242,5.7473,5.6643,5.6319,5.6188,5.622,5.6212,5.5878,5.5318,5.4759,5.4259,5.3836,5.2735,5.2239,5.2058,5.1561,5.1406,5.1406,0.0,0.0,0.0,0.0,0.0,0.0,0.0,0.0,0.0,0.0,0.0,0.0,0.0,3.5693,3.593,0.0,0.0,0.0,0.0,4.353,4.4954,4.587,4.6033,4.6172,4.6289,4.7969,4.8867,4.8867,5.0508,5.1289,5.1289,5.1076,5.0972,5.1029,5.1587,5.1856,5.1895,5.2779,5.2664,5.1739,5.0617,4.9328,4.7875,4.5837,4.4282,4.3248,4.4128,0.0,0.0,0.0,4.2202,4.2241,4.2338,4.3492,0.0,4.4972,4.5078,4.5117,0.0,0.0,4.8008,4.9726,5.1953,5.3945,5.4648,5.5333,5.5785,5.5682,5.5955,5.6416,5.7246,5.7695,5.8203,5.9101,5.9922,6.043,6.043,6.0195,6.0021,6.0008,5.9056,5.8402,0.0,5.9235,6.0211,6.1211,6.0637,6.0625,6.164,6.1719,6.164,6.1523,6.1367,6.0839,5.9835,5.9642,5.8711,5.709,5.7049,5.6571,5.5742,5.6071,5.6188,5.622,5.6212,5.557,5.4549,5.4528,5.3528,5.199,5.2197,5.1824,5.117,5.1355,5.1406,5.1406,0.0,0.0,0.0,0.0,0.0,0.0,0.0,0.0,0.0,0.0,0.0,0.0,0.0,0.0,0.0,0.0,0.0,0.0,0.0,4.2437,4.391,4.4221,4.5458,4.5863,4.532,4.6995,4.7891,4.7891,4.8555,4.918,4.9726,4.9471,4.9666,5.0279,5.0856,5.1395,5.1933,5.2202,5.2022,5.14,5.0468,4.901,4.7276,4.6262,4.4234,4.1979,0.0,0.0,0.0,0.0,4.0207,4.0236,4.0261,4.1101,4.2202,4.2949,4.4007,4.517,4.636,0.0,4.9883,5.2148,5.4219,5.582,5.6406,5.6714,5.6665,5.5857,5.4605,5.3851,5.4713,5.5117,5.5976,5.8008,5.9492,6.0586,6.1172,6.1094,6.0534,5.9282,5.9216,0.0,0.0,0.0,0.0,6.0184,5.9529,5.9805,6.1484,6.1562,6.1562,6.1484,6.0799,6.0226,5.9796,5.9072,5.811,5.7011,5.6395,5.6109,5.6053,5.6158,5.6185,5.6216,5.6195,5.5549,5.4451,5.3895,5.2954,5.1876,5.149,5.1238,5.1122,5.1238,5.1328,5.1406,0.0,0.0,0.0,0.0,0.0,0.0,0.0,0.0,0.0,0.0,0.0,0.0,0.0,0.0,0.0,0.0,0.0,0.0,0.0,0.0,4.1827,4.2501,4.3648,4.4011,4.3458,4.4861,4.5898,4.6523,4.6914,4.7734,4.8906,4.862,4.8787,4.9356,4.9971,5.0702,5.1471,5.1471,5.125,5.076,4.9543,4.7878,4.6055,4.5124,4.314,0.0,0.0,0.0,0.0,0.0,3.859,3.8772,3.8484,3.9437,4.0887,4.1902,4.3888,4.6122,4.7571,4.9726,5.2109,5.4375,5.5781,5.6758,5.7265,5.692,5.6186,5.5028,5.32,5.1995,5.2605,5.2617,5.3242,5.5234,5.6758,5.8164,5.9687,5.9492,5.9081,5.8817,5.8547,0.0,0.0,0.0,0.0,5.9314,5.8908,5.9287,6.101,6.1118,6.1043,6.098,6.0324,5.9604,5.8819,5.8171,5.7401,5.6533,5.5665,5.5434,5.5745,5.5737,5.5586,5.5272,5.5583,5.4912,5.3524,5.2969,5.2241,5.1414,5.1068,5.0979,5.1101,5.119,5.1289,5.1367,0.0,0.0,0.0,0.0,0.0,0.0,0.0,0.0,0.0,0.0,0.0,0.0,0.0,0.0,0.0,0.0,0.0,0.0,0.0,0.0,0.0,4.0722,4.0871,4.0921,4.0926,4.187,4.3168,4.4842,4.5664,4.7031,4.875,4.8443,4.832,4.8394,4.8971,4.9702,5.051,5.0471,5.0214,4.9716,4.7693,4.5946,4.4282,4.2632,0.0,0.0,0.0,0.0,0.0,0.0,0.0,0.0,0.0,3.8676,4.0947,4.1863,4.4651,4.7656,4.8594,5.1406,5.4453,5.6172,5.6601,5.6719,5.7187,5.6025,5.4489,5.3255,5.1759,5.0674,0.0,0.0,5.0234,5.1289,5.2305,5.3867,5.6367,5.5976,5.6289,0.0,0.0,0.0,0.0,0.0,0.0,5.8599,0.0,5.9172,6.0234,6.0317,6.0184,5.9958,5.9873,5.8934,5.7016,5.6977,5.6494,5.5626,5.4874,5.4605,5.4801,5.484,5.4375,5.3632,5.4483,5.3738,5.1907,5.1907,5.1449,5.0702,5.0837,5.0991,5.1103,5.1162,5.1289,5.1289,0.0,0.0,0.0,0.0,0.0,0.0,0.0,0.0,0.0,0.0,0.0,0.0,0.0,0.0,0.0,0.0,0.0,0.0,0.0,0.0,0.0,0.0,0.0,0.0,0.0,0.0,0.0,4.3931,4.3587,4.4609,4.6953,4.6127,4.6037,4.6565,4.6665,4.7165,4.7818,4.7185,4.6896,4.6717,0.0,4.3706,4.2844,0.0,0.0,0.0,0.0,0.0,0.0,0.0,0.0,0.0,0.0,4.0462,4.1863,4.3528,4.6021,4.8594,5.0273,5.2812,5.5234,5.6328,5.6601,5.6406,5.5703,5.4691,5.3276,5.0855,4.8606,4.7114,0.0,0.0,0.0,5.1836,5.4687,0.0,5.8359,5.9375,0.0,0.0,0.0,5.8038,5.8154,5.805,0.0,0.0,5.8479,5.861,5.9117,5.9131,5.9098,5.9023,5.8402,5.7709,5.7016,5.634,5.5626,5.4797,5.4605,5.4241,5.3803,5.3871,5.375,5.3475,5.379,5.3166,5.1895,5.1893,5.1431,5.0702,5.0741,5.0837,5.0987,5.1084,5.1172,5.1133,0.0,0.0,0.0,0.0,0.0,0.0,0.0,0.0,0.0,0.0,0.0,0.0,0.0,0.0,0.0,0.0,0.0,0.0,0.0,0.0,0.0,0.0,0.0,0.0,0.0,0.0,0.0,0.0,0.0,0.0,4.3476,4.3242,4.3329,4.3666,4.3582,4.3978,4.4628,4.3711,0.0,0.0,0.0,0.0,0.0,0.0,0.0,0.0,0.0,0.0,0.0,0.0,0.0,4.0486,4.0945,4.1671,4.2739,4.4691,0.0,4.9492,5.1445,5.3867,5.6094,5.6953,5.6601,5.5742,5.4648,5.3135,5.1162,4.8375,4.6103,0.0,0.0,0.0,0.0,0.0,0.0,0.0,5.7656,5.8203,5.8476,0.0,5.8421,0.0,5.8487,5.8704,5.8711,0.0,5.8435,5.8549,5.8792,5.8495,5.8279,5.8119,5.7653,5.7093,5.6417,5.5955,5.5318,5.4507,5.4126,5.3551,5.2859,5.3351,5.3147,5.2343,0.0,5.2724,5.1376,5.1395,5.1105,5.0702,5.0702,5.0779,5.0894,5.0992,5.1084,5.1133,0.0,0.0,0.0,0.0,0.0,0.0,0.0,0.0,0.0,0.0,3.4237,0.0,0.0,0.0,0.0,0.0,0.0,0.0,0.0,0.0,0.0,0.0,0.0,0.0,0.0,0.0,0.0,0.0,0.0,0.0,0.0,0.0,0.0,0.0,0.0,0.0,0.0,0.0,0.0,0.0,0.0,0.0,0.0,0.0,0.0,0.0,0.0,0.0,0.0,0.0,4.2101,4.229,4.229,4.288,4.3957,4.5796,4.8059,5.0391,5.2344,5.4687,5.6797,5.7539,5.6406,5.4844,5.3711,5.1364,4.869,4.6005,0.0,4.2934,4.3011,4.3217,4.4305,4.7102,0.0,5.0898,5.5742,5.5312,5.5586,5.8437,5.7964,5.7705,5.8431,5.8934,5.8927,5.8327,5.8418,5.8508,5.849,5.7967,5.7499,5.7212,5.717,5.6708,5.5703,5.5703,5.5241,5.4314,5.3551,5.2724,5.1934,5.2974,5.2472,5.0975,0.0,0.0,5.0702,5.0702,5.0702,5.0702,5.0702,5.0779,5.0875,5.0741,5.0906,5.1121,0.0,0.0,0.0,0.0,0.0,0.0,0.0,0.0,0.0,0.0,3.5843,3.5897,0.0,0.0,0.0,0.0,0.0,0.0,0.0,0.0,0.0,0.0,0.0,0.0,0.0,0.0,0.0,0.0,0.0,0.0,0.0,0.0,0.0,0.0,0.0,0.0,0.0,0.0,0.0,0.0,0.0,0.0,0.0,0.0,0.0,0.0,0.0,0.0,0.0,0.0,4.3789,4.4939,4.4939,4.5533,4.6467,4.7696,4.9391,5.1289,5.3242,5.5156,5.664,5.6797,5.5508,5.375,5.1953,4.9564,0.0,0.0,0.0,4.2017,4.2017,4.2765,0.0,4.7766,0.0,0.0,0.0,0.0,5.7422,0.0,0.0,0.0,0.0,0.0,0.0,0.0,0.0,0.0,5.645,5.6325,5.6205,5.6169,5.6071,5.5895,5.5703,5.5703,5.4912,5.3409,5.3282,5.2416,5.0991,5.1934,5.1761,5.0819,0.0,0.0,5.0702,5.0702,5.0702,5.0702,5.0702,5.0702,5.0664,5.0029,5.0314,5.085,0.0,0.0,0.0,0.0,0.0,0.0,0.0,3.3839,3.5238,3.7819,3.8706,3.8918,3.8461,3.8008,3.7566,0.0,0.0,0.0,0.0,0.0,0.0,0.0,0.0,0.0,0.0,0.0,0.0,0.0,0.0,0.0,0.0,0.0,0.0,0.0,0.0,0.0,0.0,0.0,0.0,0.0,0.0,0.0,0.0,0.0,0.0,0.0,0.0,0.0,0.0,0.0,4.4196,4.5616,4.5603,4.5911,4.6506,4.7966,4.9663,5.1523,5.3398,5.5234,5.6484,5.6055,5.4609,5.2578,4.9805,0.0,0.0,0.0,0.0,4.1116,4.1116,0.0,0.0,0.0,0.0,0.0,0.0,0.0,0.0,0.0,0.0,0.0,0.0,0.0,0.0,0.0,0.0,0.0,5.6586,5.6131,5.5913,5.5878,5.578,5.5703,5.5703,5.528,5.443,5.3217,5.2723,5.1896,5.0741,5.1665,5.1609,5.0748,5.1674,0.0,5.1299,5.1299,5.1299,5.1299,5.1299,5.1068,5.0664,5.0317,5.0471,5.085,0.0,0.0,0.0,0.0,0.0,0.0,0.0,3.5302,3.6839,3.9754,4.1424,4.1908,4.068,3.9585,3.8531,0.0,0.0,0.0,0.0,0.0,0.0,0.0,0.0,0.0,0.0,0.0,0.0,0.0,0.0,0.0,0.0,0.0,0.0,0.0,0.0,0.0,0.0,0.0,0.0,0.0,0.0,0.0,0.0,0.0,0.0,0.0,0.0,0.0,0.0,0.0,4.3712,4.4778,4.4786,4.5283,4.6142,4.737,4.9232,5.1222,5.3046,5.4883,5.6172,5.5469,5.3867,5.1523,4.8164,4.5827,0.0,0.0,4.0431,4.0315,4.0508,0.0,0.0,0.0,0.0,0.0,0.0,0.0,0.0,0.0,0.0,0.0,0.0,0.0,0.0,0.0,0.0,0.0,5.6862,5.6225,5.5857,5.5857,5.5588,5.5434,5.5434,5.4643,5.3776,5.2931,5.2222,5.1472,5.0741,5.1626,5.1567,5.0734,5.1664,0.0,0.0,5.1722,5.1741,5.1876,5.1684,5.126,5.0664,5.0471,5.0605,5.0815,0.0,0.0,0.0,0.0,0.0,0.0,0.0,3.6157,3.817,4.231,4.3111,4.3272,4.3241,4.1774,4.0078,0.0,0.0,0.0,0.0,0.0,0.0,0.0,0.0,0.0,0.0,0.0,0.0,0.0,0.0,0.0,0.0,0.0,0.0,0.0,0.0,0.0,0.0,0.0,0.0,0.0,0.0,0.0,0.0,0.0,0.0,0.0,0.0,0.0,0.0,0.0,0.0,4.2156,4.2155,4.4282,4.666,4.618,0.0,0.0,5.2205,5.4023,5.539,5.5312,5.3398,5.0781,4.7969,0.0,0.0,4.0908,3.9915,3.9685,4.0508,4.0085,0.0,0.0,0.0,4.6219,0.0,0.0,0.0,0.0,0.0,0.0,0.0,0.0,0.0,0.0,0.0,0.0,0.0,5.5742,5.5703,5.5703,5.4989,5.4605,5.4605,5.3755,5.2892,5.2011,5.1934,5.1472,5.0741,5.1549,5.1453,5.0741,0.0,0.0,0.0,5.1121,5.1233,5.1851,5.1105,5.0779,5.0587,4.9798,5.0048,5.0606,0.0,0.0,0.0,0.0,0.0,0.0,3.572,3.6157,3.7916,4.3179,4.3568,4.3612,4.4197,4.3297,4.1523,3.875,0.0,0.0,0.0,0.0,0.0,0.0,0.0,0.0,0.0,0.0,0.0,0.0,0.0,0.0,0.0,0.0,0.0,0.0,0.0,0.0,0.0,0.0,0.0,0.0,0.0,0.0,0.0,0.0,0.0,0.0,0.0,0.0,0.0,0.0,0.0,0.0,4.063,4.2271,0.0,0.0,4.6835,4.9405,5.1226,5.3476,5.5039,5.3984,5.2187,4.9805,4.6484,0.0,4.194,3.9477,3.9169,3.9262,3.9167,3.9267,3.9746,0.0,0.0,0.0,0.0,0.0,0.0,0.0,0.0,0.0,0.0,0.0,0.0,0.0,0.0,0.0,0.0,5.5472,5.5472,5.4989,5.4682,5.4241,5.3743,5.2877,5.2261,5.1896,5.1414,5.1029,5.0702,5.1029,5.0991,5.0702,0.0,0.0,0.0,5.1774,5.1928,5.2587,5.1761,5.1145,5.0664,5.0317,5.0394,5.0664,0.0,0.0,0.0,0.0,0.0,3.2225,3.5849,3.6339,3.8007,4.2931,4.3436,4.3597,4.4248,4.3681,4.2226,3.9609,3.8906,0.0,0.0,0.0,0.0,0.0,0.0,0.0,0.0,0.0,0.0,0.0,0.0,0.0,0.0,0.0,0.0,0.0,0.0,0.0,0.0,0.0,0.0,0.0,0.0,0.0,0.0,0.0,0.0,0.0,0.0,0.0,0.0,0.0,0.0,0.0,0.0,0.0,0.0,0.0,4.5334,4.8067,4.9589,5.1836,5.3516,5.2266,5.0508,4.8203,0.0,0.0,4.1031,3.8501,3.8477,3.8753,3.8257,3.8643,3.9164,3.9558,0.0,4.4089,0.0,0.0,0.0,0.0,0.0,0.0,0.0,0.0,0.0,0.0,0.0,0.0,0.0,5.4741,5.4703,5.4122,5.3874,5.3454,5.2801,5.1973,5.1549,5.1549,5.0991,5.0702,5.0702,5.0702,5.0702,5.0702,0.0,0.0,0.0,5.191,5.2046,5.2724,5.1896,5.1183,5.0702,5.0702,5.0702,5.0702,0.0,0.0,0.0,0.0,0.0,0.0,3.5147,3.693,3.8892,4.1508,4.2607,4.3265,4.3384,4.2744,4.1992,4.125,3.9609,0.0,0.0,0.0,0.0,0.0,0.0,0.0,0.0,0.0,3.5862,3.5898,3.7578,3.8437,0.0,0.0,0.0,0.0,0.0,0.0,0.0,0.0,0.0,0.0,0.0,0.0,0.0,0.0,0.0,0.0,0.0,0.0,0.0,0.0,0.0,0.0,0.0,0.0,3.948,0.0,4.314,4.622,4.7087,4.8789,5.0234,5.0234,4.8281,4.582,0.0,0.0,4.0265,3.8385,3.8007,3.8078,3.8271,3.8254,3.8555,3.9531,4.1875,0.0,0.0,0.0,0.0,0.0,0.0,0.0,0.0,0.0,0.0,0.0,0.0,0.0,0.0,5.33,5.3243,5.3217,5.2395,5.1934,5.1896,5.1106,5.0702,5.0702,5.0702,5.0702,5.0702,5.0702,5.0702,0.0,0.0,0.0,0.0,5.1024,5.1198,5.1819,5.1029,5.0702,5.0702,5.0702,5.0702,5.0702,0.0,0.0,0.0,0.0,0.0,0.0,0.0,3.5045,3.6738,4.0431,4.0793,4.1431,4.3231,4.2772,4.2266,4.2031,4.0396,0.0,0.0,0.0,0.0,0.0,0.0,0.0,0.0,0.0,3.7319,3.8489,3.9029,3.9648,4.0351,3.9766,0.0,0.0,0.0,0.0,0.0,0.0,0.0,0.0,0.0,0.0,0.0,0.0,0.0,0.0,0.0,0.0,0.0,0.0,0.0,0.0,0.0,0.0,0.0,3.8873,4.0939,4.3645,4.5135,4.6953,4.8281,4.7695,4.5976,4.3984,4.2109,0.0,3.8488,3.6688,3.6748,3.7011,3.6612,3.7469,3.8398,3.875,4.1016,0.0,0.0,0.0,0.0,0.0,0.0,0.0,0.0,0.0,0.0,0.0,0.0,0.0,0.0,5.2435,5.2319,5.2318,5.205,5.1337,5.0202,4.9952,4.9509,4.8933,4.9529,4.9798,4.9836,5.0433,0.0,0.0,0.0,0.0,0.0,5.1029,5.1164,5.1819,5.1029,5.0702,5.0702,5.0702,5.0702,5.0702,0.0,0.0,0.0,0.0,0.0,0.0,0.0,3.4507,3.6007,3.8354,3.9153,4.0269,4.2294,4.2413,4.2377,4.2382,4.1318,0.0,0.0,0.0,0.0,0.0,0.0,0.0,0.0,3.6974,3.8262,3.9653,4.0304,4.1133,4.2148,4.1601,4.0664,3.9414,0.0,0.0,0.0,0.0,0.0,0.0,0.0,0.0,4.0508,0.0,0.0,0.0,0.0,0.0,0.0,0.0,0.0,0.0,0.0,0.0,0.0,0.0,3.9297,4.0642,0.0,4.4687,4.6016,4.5469,4.3711,0.0,0.0,0.0,3.7305,3.582,3.6454,3.7049,3.6329,3.7624,3.8824,3.8873,4.0811,0.0,0.0,0.0,0.0,0.0,0.0,0.0,0.0,0.0,0.0,0.0,0.0,0.0,0.0,0.0,5.0471,5.0471,5.0779,5.0471,4.9394,4.9086,4.8625,4.8106,4.899,4.9394,4.9433,5.0317,0.0,0.0,0.0,0.0,0.0,5.0914,5.0991,5.1376,5.0914,5.0702,5.0702,5.0702,5.0702,5.0702,0.0,0.0,0.0,0.0,0.0,0.0,0.0,3.4968,3.6315,3.5699,3.7752,3.973,4.0793,4.1709,4.2222,4.2302,0.0,0.0,0.0,0.0,0.0,0.0,0.0,0.0,0.0,3.751,3.8863,3.9778,4.1354,4.2674,4.3789,4.3711,4.2851,4.1289,4.1005,0.0,0.0,0.0,0.0,0.0,0.0,4.0508,0.0,0.0,0.0,0.0,0.0,0.0,0.0,0.0,0.0,0.0,0.0,0.0,0.0,0.0,0.0,0.0,0.0,4.1992,4.3437,4.3437,4.1562,3.9671,0.0,0.0,0.0,0.0,3.6934,3.7899,3.7231,3.8505,3.9696,3.97,4.1155,0.0,0.0,0.0,0.0,0.0,0.0,0.0,0.0,0.0,0.0,0.0,0.0,0.0,0.0,0.0,4.8107,4.8107,4.8818,4.9221,4.9221,4.8431,4.7966,4.7927,4.8848,4.9258,4.924,5.024,0.0,0.0,0.0,0.0,0.0,5.0587,5.0587,5.0587,5.0664,5.0702,5.0702,5.0702,5.0702,5.0702,0.0,0.0,0.0,0.0,0.0,0.0,0.0,0.0,0.0,0.0,3.7319,3.8936,3.9892,4.0793,4.1319,0.0,0.0,0.0,0.0,0.0,0.0,0.0,0.0,0.0,3.6836,3.8451,4.0061,4.1672,4.1947,4.2985,4.4687,4.4023,4.3125,4.207,4.1324,4.0269,0.0,0.0,0.0,0.0,4.0431,4.0508,0.0,0.0,0.0,0.0,3.98,4.0392,0.0,0.0,0.0,0.0,0.0,0.0,0.0,0.0,3.7714,3.7115,3.7753,0.0,4.0781,4.0781,4.0195,3.9437,0.0,0.0,0.0,0.0,0.0,3.724,3.7873,3.89,3.9618,3.9609,4.1024,0.0,0.0,0.0,0.0,0.0,0.0,0.0,0.0,0.0,0.0,0.0,0.0,0.0,0.0,0.0,4.8295,4.8102,4.7738,4.7545,4.7507,4.7293,4.6852,4.6219,4.7696,4.8066,4.7569,4.9721,0.0,0.0,0.0,0.0,4.876,4.9433,4.9721,4.976,5.0433,5.0702,5.0702,5.0702,5.0702,5.0702,0.0,0.0,0.0,0.0,0.0,0.0,0.0,0.0,0.0,0.0,0.0,3.8491,3.9052,4.0602,0.0,0.0,0.0,0.0,0.0,0.0,0.0,0.0,0.0,3.7625,3.7734,3.9,4.0539,4.2285,4.2625,4.3758,4.5586,4.4687,4.3828,4.2929,4.1512,4.0583,0.0,0.0,0.0,0.0,4.0508,0.0,0.0,0.0,0.0,0.0,4.0008,4.0677,0.0,4.0784,4.1069,4.1671,0.0,0.0,0.0,0.0,3.756,3.6588,3.7402,3.875,3.9883,3.9883,3.9766,3.9357,3.8491,0.0,0.0,0.0,0.0,0.0,3.8105,0.0,0.0,0.0,0.0,0.0,0.0,0.0,0.0,0.0,0.0,0.0,0.0,0.0,0.0,0.0,0.0,0.0,0.0,0.0,4.7178,4.7062,4.6583,4.6544,4.6908,4.6506,4.6065,4.5624,4.6908,4.7317,4.6973,4.8702,0.0,0.0,0.0,0.0,4.8202,4.947,4.9759,4.9471,5.0356,5.0702,5.0702,5.0702,5.0702,5.0702,0.0,0.0,0.0,0.0,0.0,0.0,0.0,0.0,0.0,0.0,0.0,0.0,0.0,0.0,0.0,0.0,0.0,0.0,0.0,0.0,0.0,0.0,0.0,3.8594,3.8828,3.9531,4.0812,4.2705,4.3314,4.4531,4.6289,4.5547,4.4648,4.3633,4.1797,4.0967,0.0,0.0,0.0,0.0,4.0716,0.0,0.0,0.0,0.0,0.0,0.0,0.0,0.0,4.0778,4.1058,4.1671,4.0754,0.0,0.0,0.0,0.0,0.0,3.7795,3.9141,4.0078,3.9922,3.9844,3.9552,3.8518,0.0,0.0,0.0,0.0,0.0,0.0,0.0,0.0,0.0,0.0,0.0,0.0,0.0,0.0,0.0,0.0,0.0,0.0,0.0,0.0,0.0,0.0,0.0,0.0,0.0,0.0,4.5796,4.568,4.5988,4.6698,4.5988,4.5586,4.5586,4.6467,4.6817,4.6724,4.7661,4.7969,0.0,0.0,0.0,4.8025,4.962,4.9931,4.9471,5.0356,5.0702,5.0702,5.0702,5.0702,5.0702,0.0,0.0,0.0,0.0,0.0,0.0,0.0,0.0,0.0,0.0,0.0,0.0,0.0,0.0,0.0,0.0,0.0,0.0,0.0,0.0,0.0,4.1478,4.0198,3.9883,4.0742,4.0781,4.203,4.4596,4.3904,4.4531,4.6289,4.6172,4.5234,4.3633,4.2422,4.1908,4.1863,0.0,0.0,4.1594,4.1594,0.0,0.0,0.0,0.0,0.0,0.0,0.0,0.0,4.0778,4.1058,4.1671,4.0754,0.0,0.0,0.0,0.0,0.0,3.7287,3.9141,4.082,4.0078,4.0351,4.0333,0.0,0.0,0.0,0.0,0.0,0.0,0.0,0.0,0.0,0.0,0.0,0.0,0.0,0.0,0.0,0.0,0.0,0.0,0.0,0.0,0.0,0.0,0.0,0.0,0.0,0.0,0.0,4.5813,4.5796,4.5796,4.5796,4.568,4.5586,4.5586,4.6467,4.6488,4.5855,4.7409,4.7332,0.0,0.0,4.7201,4.7165,4.8102,4.8854,4.9471,5.0356,5.0702,5.0702,5.0702,5.0702,5.0702,0.0,0.0,0.0,0.0,0.0,0.0,0.0,0.0,0.0,0.0,0.0,0.0,0.0,0.0,0.0,0.0,0.0,0.0,0.0,0.0,0.0,4.342,4.2444,4.1875,4.1836,4.1797,4.2812,4.5,4.457,4.5039,4.6289,4.582,4.4922,4.3672,4.3086,4.2811,4.2765,4.2601,4.2492,4.2492,0.0,0.0,0.0,0.0,0.0,0.0,0.0,0.0,0.0,0.0,4.1069,4.1671,4.0754,0.0,0.0,0.0,0.0,0.0,3.7066,3.8516,3.9922,4.0469,4.1523,4.2067,0.0,0.0,0.0,0.0,0.0,0.0,0.0,0.0,0.0,0.0,0.0,0.0,0.0,0.0,0.0,0.0,0.0,0.0,0.0,0.0,0.0,0.0,0.0,0.0,0.0,0.0,0.0,0.0,4.5757,4.5663,4.5586,4.5586,4.5586,4.5586,4.6026,4.5988,4.5624,4.639,4.6352,4.5624,0.0,4.6912,4.6991,4.8279,4.9048,4.9471,5.0356,5.0702,5.0702,5.0702,5.0702,5.0702,0.0,0.0,0.0,0.0,0.0,0.0,0.0,0.0,0.0,0.0,0.0,0.0,0.0,0.0,0.0,0.0,0.0,0.0,0.0,0.0,4.2756,4.4335,4.3945,4.3476,4.3008,4.2812,4.3555,4.5312,4.5117,4.5469,4.6289,4.5625,4.4844,4.3984,4.3789,4.3701,4.3689,4.3492,4.3363,4.338,0.0,0.0,0.0,0.0,0.0,0.0,0.0,0.0,0.0,0.0,0.0,0.0,0.0,0.0,0.0,3.8565,3.7513,3.6523,3.7383,3.8398,3.9531,0.0,0.0,0.0,0.0,0.0,0.0,0.0,0.0,0.0,0.0,0.0,0.0,0.0,0.0,0.0,0.0,0.0,0.0,0.0,0.0,0.0,0.0,0.0,0.0,0.0,0.0,0.0,0.0,0.0,0.0,0.0,4.5719,4.5624,4.5624,4.5624,4.5586,4.5586,4.5586,4.5586,4.5586,4.5586,4.5586,4.5624,4.6313,4.6814,4.7293,4.8567,4.9317,4.976,5.0433,5.0702,5.0702,5.0702,5.0702,5.0702,0.0,0.0,0.0,0.0,0.0,0.0,0.0,0.0,0.0,0.0,0.0,0.0,0.0,0.0,0.0,0.0,0.0,0.0,0.0,0.0,4.2446,4.3437,4.3555,4.3984,4.4805,4.4023,4.4453,4.6211,4.5391,4.5469,4.6289,4.625,4.5742,4.4883,4.4687,4.4631,4.4568,4.432,4.4205,4.4128,4.3404,0.0,0.0,0.0,0.0,0.0,0.0,0.0,0.0,0.0,0.0,0.0,0.0,0.0,3.9339,3.948,3.8882,3.8242,3.8437,3.9726,4.1055,4.1172,0.0,0.0,0.0,0.0,0.0,0.0,0.0,0.0,0.0,0.0,0.0,0.0,0.0,0.0,0.0,0.0,0.0,0.0,0.0,0.0,0.0,0.0,0.0,0.0,0.0,0.0,0.0,0.0,0.0,0.0,0.0,4.5663,4.5796,4.5663,4.5586,4.5586,4.5586,4.5586,4.5586,4.5586,4.5586,4.5586,4.568,4.6583,4.8004,4.8126,4.9163,5.0587,5.0664,5.0702,5.0702,5.0702,5.0702,5.0702,0.0,0.0,0.0,0.0,0.0,0.0,0.0,0.0,0.0,0.0,0.0,0.0,0.0,0.0,0.0,0.0,0.0,0.0,0.0,4.1793,4.2724,4.4167,4.4341,4.4609,4.5,4.4687,4.5117,4.6289,4.5976,4.5976,4.6289,4.6211,4.6016,4.5664,4.5469,4.5371,4.5355,4.5201,4.5124,4.5086,4.4757,4.3811,0.0,0.0,0.0,0.0,0.0,0.0,0.0,0.0,4.0177,4.0639,4.0677,3.9762,3.8731,3.8815,3.7918,3.6875,3.6953,3.8242,3.957,0.0,0.0,0.0,0.0,0.0,0.0,0.0,0.0,0.0,0.0,0.0,0.0,0.0,0.0,0.0,0.0,0.0,0.0,0.0,0.0,0.0,0.0,0.0,0.0,0.0,0.0,0.0,0.0,0.0,0.0,0.0,0.0,4.5706,4.568,4.5624,4.5586,4.5586,4.5586,4.5586,4.5586,4.5586,4.5586,4.5586,4.5586,4.6544,4.8081,4.8087,4.9125,5.0702,5.0702,5.0702,5.0702,5.0702,5.0702,5.0702,0.0,0.0,0.0,0.0,0.0,0.0,0.0,0.0,0.0,0.0,0.0,0.0,0.0,0.0,0.0,0.0,0.0,0.0,4.0713,4.1324,4.231,4.3816,4.4208,4.4492,4.4609,4.4609,4.5039,4.5898,4.6172,4.6289,4.6211,4.6133,4.6085,4.6025,4.5869,4.5784,4.5796,4.5663,4.5586,4.5586,4.5295,4.435,0.0,0.0,0.0,0.0,0.0,0.0,0.0,0.0,3.9792,4.0361,4.0706,4.002,3.9131,3.8885,3.8019,3.7031,3.6562,3.7461,3.8594,0.0,0.0,0.0,0.0,0.0,0.0,0.0,0.0,0.0,0.0,0.0,0.0,0.0,0.0,0.0,0.0,0.0,0.0,0.0,0.0,0.0,0.0,0.0,0.0,0.0,0.0,0.0,0.0,0.0,0.0,0.0,0.0,4.5774,4.5719,4.5624,4.5586,4.5586,4.5586,4.5586,4.5586,4.5624,4.5663,4.5663,4.5663,4.6621,4.8158,4.8126,4.9125,5.0741,5.0991,5.0914,5.0741,5.0991,5.1068,5.1029,0.0,0.0,0.0,0.0,0.0,0.0,0.0,0.0,0.0,0.0,0.0,0.0,0.0,0.0,0.0,0.0,0.0,0.0,4.0664,4.0694,4.1116,4.2056,4.2894,4.3476,4.3672,4.3711,4.4141,4.5,4.5859,4.6211,4.6094,4.6094,4.604,4.5911,4.5834,4.5796,4.5796,4.5663,4.5586,4.5509,4.468,4.3833,4.3008,0.0,0.0,0.0,0.0,0.0,0.0,0.0,3.9384,3.9571,4.0519,4.0881,4.0808,3.9931,3.9793,3.9492,3.7773,3.793,0.0,0.0,0.0,0.0,0.0,0.0,0.0,0.0,0.0,0.0,0.0,0.0,0.0,0.0,0.0,0.0,0.0,0.0,0.0,0.0,0.0,0.0,0.0,0.0,0.0,0.0,0.0,0.0,0.0,0.0,0.0,0.0,0.0,0.0,4.5911,4.5719,4.5586,4.5586,4.5586,4.5586,4.5586,4.5757,4.5796,4.5796,4.5796,4.6737,4.8274,4.8183,4.9125,5.0779,5.1588,5.1376,5.0779,5.1588,5.1896,5.178,0.0,0.0,0.0,0.0,0.0,0.0,0.0,0.0,0.0,0.0,0.0,0.0,0.0,0.0,0.0,0.0,0.0,0.0,3.9023,3.8967,3.9608,4.1024,4.1446,4.1992,4.2695,4.3359,4.4141,4.5,4.5859,4.6211,4.6094,4.6636,4.651,4.5834,4.6352,4.6219,4.5663,4.5624,4.5586,4.5586,4.5411,4.447,4.3162,0.0,0.0,0.0,0.0,0.0,0.0,0.0,0.0,0.0,4.0937,4.0675,4.0062,3.916,3.8539,3.7812,3.668,3.7031,0.0,0.0,0.0,0.0,0.0,0.0,0.0,0.0,0.0,0.0,0.0,0.0,0.0,0.0,0.0,0.0,0.0,0.0,0.0,0.0,0.0,0.0,0.0,0.0,0.0,0.0,0.0,0.0,0.0,0.0,0.0,0.0,0.0,0.0,4.5834,4.5757,4.568,4.5586,4.5586,4.5624,4.5757,4.5796,4.5829,4.5903,4.6408,4.7255,4.839,4.949,5.024,5.0702,5.0952,5.0893,5.0717,5.0952,5.1068,5.101,0.0,0.0,0.0,0.0,0.0,0.0,0.0,0.0,0.0,0.0,0.0,0.0,0.0,0.0,0.0,0.0,0.0,0.0,0.0,3.8125,3.8469,4.0169,4.0325,4.1007,4.2305,4.3555,4.4453,4.5,4.5547,4.5846,4.602,4.6467,4.6337,4.576,4.6527,4.6236,4.5103,4.5103,4.5103,4.5086,4.5218,4.4432,4.3201,0.0,0.0,0.0,0.0,0.0,0.0,0.0,0.0,0.0,4.1004,4.0586,3.9726,3.8867,3.8242,3.7617,3.6758,0.0,0.0,0.0,0.0,0.0,0.0,0.0,0.0,0.0,0.0,0.0,0.0,0.0,0.0,0.0,0.0,0.0,0.0,0.0,0.0,0.0,0.0,0.0,0.0,0.0,0.0,0.0,0.0,0.0,0.0,0.0,0.0,0.0,0.0,0.0,4.5919,4.5881,4.5796,4.5719,4.5719,4.5796,4.5928,4.5841,4.5878,4.6054,4.7133,4.7835,4.8335,5.0029,5.0702,5.0741,5.1068,5.099,5.0737,5.1048,5.1183,5.1145,0.0,0.0,3.4789,3.5661,0.0,0.0,0.0,0.0,0.0,0.0,3.8871,0.0,0.0,0.0,0.0,0.0,0.0,0.0,0.0,0.0,3.7641,3.9378,3.9687,4.0694,4.2617,4.418,4.5039,4.5117,4.5039,4.5306,4.5911,4.5879,4.5784,4.5629,4.6527,4.5928,4.4295,4.4295,4.4256,4.4201,4.4372,4.3893,4.3118,4.3267,0.0,0.0,0.0,0.0,0.0,0.0,0.0,0.0,4.0915,4.0586,3.9726,3.8867,3.8555,3.832,0.0,0.0,0.0,0.0,0.0,0.0,0.0,0.0,0.0,0.0,0.0,0.0,0.0,0.0,0.0,0.0,0.0,0.0,0.0,0.0,0.0,0.0,0.0,0.0,0.0,0.0,0.0,0.0,0.0,0.0,0.0,0.0,0.0,0.0,4.6172,4.6094,4.6094,4.5975,4.5885,0.0,4.5885,4.5945,4.61,4.5952,4.6016,4.6288,4.7829,4.8414,4.8375,5.0029,5.0702,5.0779,5.1511,5.1337,5.0779,5.1511,5.178,5.1703,0.0,0.0,3.4972,3.6459,0.0,0.0,0.0,0.0,0.0,0.0,0.0,0.0,0.0,0.0,0.0,0.0,0.0,0.0,0.0,0.0,3.7224,3.8306,4.0408,4.2488,4.4414,4.4805,4.5351,4.6016,4.5351,4.5306,4.5911,4.5893,4.5799,4.5645,4.6506,4.5928,4.4278,4.4278,4.397,4.3453,4.359,4.3188,4.2486,4.2532,4.1301,0.0,0.0,0.0,0.0,0.0,0.0,0.0,4.1108,4.0586,3.9726,3.8867,3.8125,3.7695,0.0,0.0,0.0,0.0,0.0,0.0,0.0,0.0,0.0,0.0,0.0,0.0,0.0,0.0,0.0,0.0,0.0,0.0,0.0,0.0,0.0,0.0,0.0,0.0,0.0,0.0,0.0,0.0,0.0,0.0,0.0,0.0,0.0,4.6289,4.6289,4.6211,4.6094,4.6059,4.5997,0.0,4.5919,4.5984,4.61,4.6069,4.6445,4.7186,4.8089,4.8797,4.9356,5.0317,5.0702,5.0702,5.0914,5.0875,5.0702,5.0914,5.0952,5.1029,0.0,0.0,0.0,0.0,0.0,0.0,0.0,0.0,0.0,0.0,0.0,0.0,0.0,0.0,0.0,0.0,0.0,0.0,0.0,0.0,3.7493,3.9321,4.1574,4.332,4.4336,4.5195,4.543,4.5078,4.4609,4.4914,0.0,4.5456,4.5393,4.5624,4.6527,4.5719,4.3739,4.3739,4.3316,4.264,4.2728,4.2594,4.2239,4.1905,4.1104,4.0118,3.9662,0.0,0.0,0.0,0.0,0.0,0.0,0.0,3.918,3.8711,3.7695,3.6953,0.0,0.0,0.0,0.0,0.0,0.0,0.0,0.0,0.0,0.0,0.0,0.0,0.0,0.0,0.0,0.0,0.0,0.0,0.0,0.0,0.0,0.0,0.0,0.0,0.0,0.0,0.0,0.0,0.0,0.0,0.0,4.6289,4.6289,4.6289,4.6289,4.6289,4.6211,4.6189,4.617,4.6074,4.6108,4.6119,4.6215,4.6187,4.6406,4.6835,4.7645,4.8387,4.9125,4.9875,5.0471,5.0875,5.0741,5.0741,5.0798,5.0798,5.0741,5.0837,0.0,0.0,0.0,0.0,0.0,0.0,0.0,0.0,0.0,0.0,0.0,0.0,0.0,0.0,0.0,0.0,0.0,0.0,0.0,0.0,0.0,4.0969,4.2526,4.3436,4.3672,4.5117,4.5156,4.3711,4.3555,0.0,0.0,0.0,4.4837,4.5624,4.6201,4.5201,4.3085,4.2931,4.247,4.1825,4.1859,4.1877,4.1853,4.1371,4.0957,0.0,4.005,4.0277,4.0838,4.0848,0.0,0.0,0.0,0.0,3.8398,3.8398,3.7266,3.6367,0.0,0.0,0.0,0.0,0.0,0.0,0.0,0.0,0.0,0.0,0.0,0.0,0.0,0.0,0.0,0.0,0.0,0.0,0.0,0.0,0.0,0.0,0.0,0.0,0.0,0.0,0.0,0.0,0.0,0.0,4.6289,4.6289,4.6289,4.6289,4.6289,4.6289,4.6289,4.6289,4.6315,4.6286,4.6305,4.6288,4.6303,4.6284,4.625,4.6172,4.7031,4.7768,4.8392,4.9258,5.0117,5.0895,5.0808,5.0812,5.0914,5.0952,5.0853,5.0858,0.0,0.0,0.0,0.0,0.0,0.0,0.0,0.0,0.0,0.0,3.7641,0.0,0.0,3.8437,3.7487,3.7428,3.7179,3.6658,3.5919,0.0,0.0,4.1748,4.2141,4.272,4.3594,4.3906,4.3945,4.3711,0.0,0.0,0.0,0.0,0.0,4.5547,0.0,4.4085,4.3047,4.2277,4.1585,4.0939,4.0956,4.0661,4.0301,4.0937,0.0,0.0,0.0,0.0,4.0962,4.0969,4.0579,0.0,0.0,0.0,0.0,3.7461,3.6758,3.6367,0.0,0.0,0.0,0.0,0.0,0.0,0.0,0.0,0.0,0.0,0.0,0.0,0.0,0.0,0.0,0.0,0.0,0.0,0.0,0.0,0.0,0.0,0.0,0.0,0.0,0.0,0.0,0.0,0.0,0.0,4.6289,4.6289,4.6289,4.6289,4.6289,4.6289,4.6289,4.6289,4.6289,4.6286,4.6319,4.6315,4.6317,4.6288,4.6289,4.6328,4.707,4.7459,4.7642,4.9165,4.9858,5.0046,5.0757,5.0987,5.0914,5.1029,5.0984,5.098,0.0,0.0,0.0,0.0,0.0,0.0,0.0,0.0,0.0,0.0,0.0,3.7707,3.9574,3.8305,3.7245,3.7144,3.6586,3.6259,3.6265,3.6892,3.8469,4.1155,4.1312,4.1816,4.2851,4.3398,4.3203,4.2305,0.0,0.0,0.0,4.3724,4.432,0.0,0.0,0.0,0.0,0.0,4.197,4.0808,4.0887,4.0524,3.9883,0.0,0.0,0.0,0.0,0.0,0.0,0.0,0.0,0.0,0.0,0.0,0.0,0.0,0.0,0.0,0.0,0.0,0.0,0.0,0.0,0.0,0.0,0.0,0.0,0.0,0.0,0.0,0.0,0.0,0.0,0.0,0.0,0.0,0.0,0.0,0.0,0.0,0.0,0.0,0.0,0.0,0.0,0.0,0.0,4.6289,4.6289,4.6289,4.6289,4.6289,4.6289,4.6289,4.6289,4.6289,4.6289,4.6289,4.6289,4.6289,4.6289,4.6289,4.6289,4.6328,4.6641,4.707,4.7617,4.8711,4.9508,5.0104,5.081,5.1109,5.1064,5.1151,5.107,5.121,0.0,0.0,0.0,0.0,0.0,0.0,0.0,0.0,0.0,0.0,0.0,3.7691,3.949,0.0,0.0,0.0,3.6075,3.5911,3.6367,3.6584,3.7584,3.96,4.0123,4.0769,4.1597,4.2495,4.2383,0.0,0.0,0.0,4.3633,4.3635,4.4471,0.0,4.5727,0.0,0.0,0.0,0.0,0.0,0.0,4.0247,0.0,0.0,0.0,0.0,0.0,0.0,0.0,0.0,0.0,0.0,0.0,0.0,0.0,0.0,0.0,0.0,0.0,0.0,0.0,0.0,0.0,0.0,0.0,0.0,0.0,0.0,0.0,0.0,0.0,0.0,0.0,0.0,0.0,0.0,0.0,0.0,0.0,0.0,0.0,0.0,0.0,0.0,0.0,0.0,0.0,4.6289,4.6289,4.6289,4.6289,4.6289,4.6289,4.6289,4.6289,4.6289,4.6289,4.6289,4.6289,4.6289,4.6289,4.6289,4.6289,4.6328,4.6523,4.6875,4.7344,4.8594,4.9375,4.9961,5.082,5.1172,5.1208,5.1236,5.1187,5.1367,0.0,0.0,0.0,0.0,0.0,0.0,0.0,0.0,0.0,0.0,0.0,3.7691,3.949,3.827,3.6897,3.5853,3.5736,3.5674,3.5584,3.6276,3.6776,3.6892,3.8569,0.0,3.9745,4.0677,0.0,0.0,0.0,0.0,4.3672,4.3671,4.4614,4.6211,4.523,4.4258,4.3345,0.0,0.0,0.0,0.0,3.9344,0.0,0.0,0.0,0.0,0.0,0.0,0.0,0.0,0.0,0.0,0.0,0.0,0.0,0.0,0.0,0.0,0.0,0.0,0.0,0.0,0.0,0.0,0.0,0.0,0.0,0.0,0.0,0.0,0.0,0.0,0.0,0.0,0.0,0.0,0.0,0.0,0.0,0.0,0.0,0.0,0.0,0.0,0.0,0.0,0.0,4.6289,4.6289,4.6289,4.6289,4.6289,4.6289,4.6289,4.6289,4.6289,4.6289,4.6289,4.6289,4.6289,4.6289,4.6289,4.6289,4.6367,4.7187,4.7109,4.6562,4.9062,4.9687,4.9141,5.0742,5.1328,5.1211,5.1327,5.1328,5.1328,0.0,0.0,0.0,0.0,0.0,0.0,0.0,0.0,0.0,0.0,0.0,0.0,0.0,3.7848,3.6793,3.5654,3.5046,3.4968,3.5468,3.5776,3.643,3.7507,3.8161,3.9084,4.0277,4.0671,0.0,0.0,0.0,4.1758,4.2891,4.3437,4.4021,4.4663,4.5408,4.521,4.4312,4.35,0.0,0.0,4.0485,3.9345,0.0,0.0,0.0,0.0,0.0,0.0,0.0,0.0,0.0,0.0,0.0,0.0,0.0,0.0,0.0,0.0,0.0,0.0,0.0,0.0,0.0,0.0,0.0,0.0,0.0,0.0,0.0,0.0,0.0,0.0,0.0,0.0,0.0,0.0,0.0,0.0,0.0,0.0,0.0,0.0,0.0,0.0,0.0,0.0,0.0,0.0,4.6289,4.6289,4.6289,4.6289,4.6289,4.6289,4.6289,4.6289,4.6289,4.6289,4.6289,4.6289,4.6289,4.6289,4.6289,4.6367,4.7812,4.793,4.7266,4.875,4.9492,4.9844,5.0976,5.1367,5.1328,5.1367,5.1719,5.2305,0.0,0.0,0.0,0.0,0.0,0.0,0.0,0.0,0.0,0.0,0.0,0.0,0.0,0.0,3.7011,3.5661,3.4737,3.443,3.5045,3.5584,3.6276,3.7123,3.7969,3.9008,4.0254,0.0,0.0,0.0,0.0,0.0,0.0,0.0,4.3437,4.375,4.4922,0.0,0.0,0.0,0.0,4.2578,0.0,0.0,3.9375,0.0,0.0,0.0,0.0,0.0,0.0,0.0,0.0,0.0,0.0,0.0,0.0,0.0,0.0,0.0,0.0,0.0,0.0,0.0,0.0,0.0,0.0,0.0,0.0,0.0,0.0,0.0,0.0,0.0,0.0,0.0,0.0,0.0,0.0,0.0,0.0,0.0,0.0,0.0,0.0,0.0,0.0,0.0,0.0,0.0,4.6289,4.6289,4.6289,4.6289,4.6289,4.6289,4.6289,4.6289,4.6289,4.6289,4.6289,4.6289,4.6289,4.6289,4.6445,4.6797,4.7656,4.7695,4.7305,4.9023,4.9766,4.9883,5.0976,5.1406,5.1445,5.1719,5.2187,5.2851,0.0,0.0,0.0,0.0,0.0,0.0,0.0,0.0,0.0,0.0,0.0,0.0,0.0,0.0,0.0,3.5815,3.4814,3.4276,3.4314,3.5853,3.6392,3.5661,3.7969,3.933,3.9422,0.0,0.0,0.0,0.0,0.0,0.0,0.0,4.2851,0.0,4.3672,4.418,4.4883,0.0,4.3672,4.3476,0.0,4.0469,4.1094,0.0,0.0,0.0,3.9843,3.9247,0.0,0.0,0.0,0.0,0.0,0.0,0.0,0.0,0.0,0.0,0.0,0.0,0.0,0.0,0.0,0.0,0.0,0.0,0.0,0.0,0.0,0.0,0.0,0.0,0.0,0.0,0.0,0.0,0.0,0.0,0.0,0.0,0.0,0.0,0.0,0.0,0.0,0.0,0.0,4.6289,4.6289,4.6289,4.6289,4.6289,4.6289,4.6289,4.6289,4.6289,4.6289,4.6289,4.6289,4.6289,4.6289,4.6289,4.6758,4.7539,4.6719,4.6367,4.6601,4.9961,5.0391,4.9141,5.0742,5.1406,5.1523,5.2383,5.2734,5.3008,0.0,0.0,0.0,0.0,0.0,0.0,3.9084,0.0,0.0,0.0,0.0,0.0,0.0,0.0,3.7175,3.7315,3.6507,3.6276,3.6892,3.7392,3.7815,3.8238,3.8931,3.9585,4.0177,0.0,0.0,0.0,0.0,0.0,0.0,0.0,0.0,0.0,4.3437,4.3828,4.3984,4.3125,0.0,0.0,4.1601,4.0976,0.0,0.0,0.0,0.0,0.0,3.911,0.0,0.0,3.835,3.8504,0.0,0.0,0.0,0.0,0.0,0.0,3.6016,0.0,0.0,0.0,0.0,0.0,3.9726,3.9766,0.0,0.0,0.0,0.0,0.0,0.0,0.0,0.0,0.0,0.0,0.0,0.0,0.0,0.0,0.0,0.0,0.0,0.0,0.0,0.0,4.6289,4.6289,4.6289,4.6289,4.6289,4.6289,4.6289,4.6289,4.6289,4.6289,4.6289,4.6289,4.6289,4.6289,4.6289,4.6289,4.6445,4.6719,4.7734,4.7812,4.7344,4.8945,5.0039,5.0742,5.1211,5.1797,5.2383,5.2617,5.3516,5.4648,0.0,0.0,4.0899,4.0432,0.0,4.0551,3.9763,3.99,4.0049,0.0,0.0,0.0,0.0,0.0,3.7853,3.8007,3.7546,3.7469,3.7969,3.8354,3.8777,3.9277,3.9623,4.02,4.1008,0.0,0.0,0.0,0.0,0.0,0.0,0.0,0.0,0.0,0.0,0.0,0.0,0.0,0.0,0.0,4.1719,0.0,0.0,4.1133,4.0625,0.0,0.0,0.0,4.0514,3.9311,3.8883,0.0,0.0,0.0,0.0,0.0,0.0,0.0,0.0,0.0,0.0,0.0,0.0,0.0,3.8945,3.9258,3.9414,0.0,0.0,0.0,0.0,0.0,0.0,0.0,0.0,0.0,0.0,0.0,0.0,0.0,0.0,0.0,0.0,0.0,0.0,4.6289,4.6289,4.6289,4.6289,4.6289,4.6289,4.6289,4.6289,4.6289,4.6289,4.6289,4.6289,4.6289,4.6289,4.6289,4.6289,4.6289,4.6719,4.7422,4.8086,4.8672,4.9219,4.9375,5.0039,5.0976,5.168,5.2266,5.2773,5.3516,5.4414,5.5351,0.0,0.0,4.1366,4.0387,4.0824,4.1091,4.0463,4.0977,4.1609,0.0,0.0,0.0,0.0,0.0,0.0,0.0,3.8315,3.8277,3.8277,3.9008,3.9431,3.9431,4.0123,4.0854,4.1662,4.0969,0.0,0.0,0.0,0.0,0.0,0.0,0.0,0.0,4.1211,4.1211,0.0,0.0,0.0,4.2226,4.1601,4.1758,0.0,0.0,4.2342,0.0,4.2237,4.214,4.1694,4.0125,3.8839,0.0,0.0,0.0,0.0,0.0,3.5694,0.0,0.0,0.0,0.0,0.0,0.0,0.0,3.8281,3.9219,3.9883,0.0,0.0,0.0,0.0,0.0,0.0,0.0,0.0,0.0,0.0,0.0,0.0,0.0,0.0,0.0,0.0,4.6289,4.6289,4.6289,4.6289,4.6289,4.6289,4.6289,4.6289,4.6289,4.6289,4.6289,4.6289,4.6289,4.6289,4.6289,4.6289,4.6289,4.6289,4.6289,4.7187,4.8711,4.8047,4.9062,5.1211,5.0586,5.0391,5.0625,5.2109,5.2812,5.3164,5.4726,5.5351,5.5547,4.0508,4.0623,4.0828,4.1016,4.1205,4.1472,4.1968,4.2158,4.2412,0.0,0.0,0.0,0.0,0.0,0.0,0.0,4.0431,4.0008,4.0008,4.0162,4.0277,4.0277,4.0431,4.0585,4.0739,4.1277,4.1338,0.0,0.0,0.0,0.0,0.0,0.0,0.0,4.1211,4.1211,0.0,0.0,0.0,4.1484,4.1953,0.0,4.2383,4.2383,4.2003,4.1429,4.1324,4.1191,4.0896,0.0,3.8315,3.6916,0.0,0.0,0.0,0.0,0.0,0.0,0.0,0.0,0.0,0.0,0.0,0.0,3.7656,3.8789,3.9687,0.0,0.0,0.0,0.0,0.0,0.0,0.0,0.0,0.0,0.0,0.0,0.0,0.0,0.0,0.0,0.0,4.6289,4.6289,4.6289,4.6289,4.6289,4.6289,4.6289,4.6289,4.6289,4.6289,4.6289,4.6289,4.6289,4.6289,4.6289,4.6289,4.6289,4.6289,4.6289,4.6875,4.7891,4.8437,4.9336,5.0469,5.0976,5.1562,5.2226,5.2578,5.3555,5.4844,5.5156,5.5742,5.6367,4.0662,4.108,4.1456,4.1114,4.1274,4.1793,4.2739,4.289,4.3259,0.0,0.0,0.0,0.0,0.0,0.0,0.0,0.0,4.0508,4.0508,4.0508,4.0508,4.0508,4.0508,4.0893,4.1777,4.2239,4.247,4.2492,0.0,0.0,0.0,0.0,0.0,0.0,0.0,0.0,0.0,0.0,4.1211,4.125,4.1641,0.0,4.1796,4.1791,4.1496,4.1039,4.053,3.9986,3.953,3.9813,3.9046,0.0,0.0,3.7454,3.7276,0.0,3.6507,3.6776,0.0,0.0,0.0,3.7304,0.0,0.0,0.0,3.8596,3.9219,3.9141,0.0,0.0,0.0,0.0,0.0,0.0,0.0,0.0,0.0,0.0,0.0,0.0,0.0,0.0,0.0,4.625,4.6289,4.6289,4.6289,4.6289,4.6289,4.6289,4.6289,4.6289,4.6289,4.6289,4.6289,4.6289,4.6289,4.6289,4.6289,4.6289,4.6289,4.6289,4.6992,4.8281,4.8711,4.9609,5.082,5.1211,5.1914,5.2734,5.3164,5.4141,5.5351,5.5781,5.6211,5.6601,4.0713,4.134,4.1867,4.1116,4.1295,4.2025,4.3366,4.3542,4.4028,0.0,0.0,0.0,0.0,0.0,0.0,0.0,0.0,0.0,0.0,0.0,4.0482,4.0636,4.0569,4.1162,4.2585,4.2931,4.3239,4.3585,0.0,0.0,0.0,0.0,0.0,0.0,0.0,0.0,0.0,0.0,0.0,4.1387,0.0,4.1207,4.1211,4.1183,4.1078,4.0885,3.9967,3.8989,3.833,3.96,0.0,3.8931,3.8238,3.8469,0.0,0.0,0.0,0.0,0.0,0.0,0.0,0.0,0.0,3.8912,0.0,0.0,0.0,3.9414,0.0,0.0,0.0,0.0,0.0,0.0,0.0,0.0,0.0,0.0,0.0,0.0,0.0,0.0,0.0,4.6211,4.6289,4.6289,4.6289,4.6289,4.6289,4.6289,4.6289,4.6289,4.6289,4.6289,4.6289,4.6289,4.6289,4.6289,4.6289,4.6406,4.6562,4.6562,4.75,4.9141,4.9141,5.0,5.1406,5.1562,5.207,5.2773,5.3476,5.4375,5.539,5.6094,5.6445,5.6601,4.0311,4.0253,4.0642,4.1407,4.1539,4.2249,4.4131,4.4448,4.4735,0.0,0.0,0.0,0.0,0.0,0.0,0.0,0.0,0.0,4.2258,0.0,0.0,4.1169,4.0739,4.0585,4.0777,4.2316,4.2393,4.0931,4.247,0.0,0.0,0.0,0.0,0.0,4.0351,0.0,0.0,0.0,4.0866,0.0,4.1449,4.1212,0.0,4.1069,4.0985,4.087,3.9807,3.883,3.8046,0.0,3.8238,3.8123,0.0,3.8084,0.0,0.0,0.0,0.0,0.0,0.0,0.0,0.0,3.9441,0.0,0.0,0.0,4.0339,3.9014,0.0,0.0,0.0,0.0,0.0,0.0,0.0,0.0,0.0,0.0,0.0,0.0,0.0,0.0,0.0,0.0,4.6289,4.6289,4.6289,4.6289,4.6289,4.6289,4.6289,4.6289,4.6289,4.6289,4.6289,4.6289,4.6289,4.6289,4.6289,4.6719,4.7461,4.7461,4.8398,5.0039,5.0039,5.0586,5.1445,5.2226,5.2617,5.2695,5.2812,5.3867,5.5312,5.539,5.5937,5.6601,4.0158,4.0214,4.0541,4.1418,4.1613,4.2277,4.4308,4.4943,4.5283,0.0,0.0,0.0,0.0,0.0,0.0,0.0,0.0,0.0,0.0,0.0,0.0,4.2315,4.2112,4.2008,4.2008,4.2739,4.297,4.2701,4.2508,4.2316,0.0,0.0,0.0,0.0,4.0547,0.0,4.0809,0.0,0.0,0.0,0.0,0.0,0.0,4.0998,4.0331,3.9292,3.8792,3.77,3.6699,0.0,3.8007,0.0,0.0,0.0,0.0,0.0,0.0,0.0,0.0,0.0,0.0,0.0,0.0,0.0,0.0,0.0,4.0175,0.0,0.0,0.0,0.0,0.0,0.0,0.0,0.0,0.0,0.0,0.0,0.0,0.0,0.0,0.0,0.0,0.0,0.0,0.0,0.0,4.6289,4.6289,4.6289,4.6289,4.6289,4.6289,4.6289,4.6289,4.6289,4.6289,4.6289,4.6289,4.6758,4.7617,4.7617,4.8555,5.0195,5.0195,5.0664,5.1484,5.2344,5.2695,5.2734,5.3242,5.4219,5.5351,5.5859,5.6289,5.6601,3.984,0.0,0.0,0.0,0.0,4.2295,4.4411,4.5031,0.0,0.0,0.0,0.0,4.5586,4.4747,0.0,0.0,0.0,4.2597,0.0,0.0,4.256,0.0,4.3052,0.0,0.0,0.0,4.3278,4.3624,4.2393,4.2162,0.0,0.0,0.0,0.0,0.0,4.085,4.0431,0.0,0.0,4.1101,4.091,4.0797,4.0742,4.0626,3.9561,3.8099,3.7738,3.6738,3.5738,3.7161,3.7815,0.0,3.8277,0.0,0.0,0.0,0.0,0.0,4.0969,0.0,0.0,0.0,0.0,0.0,0.0,0.0,0.0,0.0,0.0,0.0,0.0,0.0,0.0,0.0,0.0,0.0,0.0,0.0,0.0,0.0,0.0,0.0,0.0,0.0,0.0,0.0,0.0,0.0,4.6289,4.6289,4.6289,4.6289,4.6289,4.6289,4.6289,4.6289,4.6289,4.6289,4.6289,4.6875,4.7969,4.7969,4.8906,5.0547,5.0781,5.1211,5.1836,5.2969,5.3281,5.3164,5.4297,5.4961,5.539,5.6015,5.6406,5.6601,3.9186,3.9144,0.0,0.0,0.0,0.0,0.0,0.0,0.0,0.0,0.0,0.0,0.0,0.0,0.0,0.0,0.0,4.3269,4.4473,0.0,4.2214,0.0,0.0,0.0,0.0,0.0,4.2701,4.1893,4.1816,4.1893,0.0,0.0,0.0,0.0,0.0,4.1479,4.2148,4.1347,4.1362,4.1879,4.1116,4.0754,4.0616,0.0,3.8869,3.7892,3.7046,0.0,0.0,3.6469,3.7315,0.0,0.0,0.0,0.0,0.0,0.0,0.0,0.0,0.0,0.0,0.0,0.0,0.0,0.0,0.0,4.1721,0.0,0.0,0.0,0.0,0.0,0.0,0.0,0.0,0.0,0.0,0.0,0.0,0.0,0.0,0.0,0.0,0.0,0.0,0.0,0.0,0.0,4.6289,4.6289,4.6289,4.6289,4.6289,4.6289,4.6289,4.6289,4.6289,4.6289,4.6289,4.7187,4.8867,4.8867,4.9766,5.1406,5.2266,5.2617,5.2773,5.4492,5.4726,5.4141,5.5859,5.6015,5.5312,5.5312,5.5898,5.6601,0.0,0.0,0.0,0.0,0.0,0.0,0.0,4.4917,0.0,0.0,0.0,0.0,0.0,0.0,4.5571,0.0,0.0,4.399,4.4858,4.4387,0.0,0.0,0.0,4.4355,0.0,0.0,0.0,4.3431,0.0,0.0,0.0,0.0,0.0,0.0,0.0,4.1003,0.0,0.0,0.0,0.0,0.0,4.0931,4.1277,0.0,0.0,3.7892,3.7007,3.6199,0.0,3.5815,3.6853,3.7969,3.7661,3.8931,4.0392,3.9854,4.0469,0.0,0.0,0.0,4.1931,4.2508,0.0,0.0,0.0,0.0,0.0,0.0,0.0,0.0,0.0,0.0,0.0,0.0,0.0,0.0,0.0,0.0,0.0,0.0,0.0,0.0,0.0,0.0,0.0,0.0,0.0,0.0,0.0,4.6289,4.6289,4.6289,4.6289,4.6289,4.6289,4.6289,4.6601,4.7148,4.7148,4.8086,4.9766,4.9766,5.0351,5.1445,5.2305,5.2695,5.2851,5.457,5.5117,5.4961,5.6133,5.6406,5.6172,5.6172,5.6367,5.668,4.0185,0.0,0.0,0.0,0.0,0.0,0.0,0.0,0.0,0.0,4.7031,0.0,4.706,0.0,4.5576,0.0,4.4632,4.4374,4.529,4.5468,0.0,4.5163,4.574,0.0,0.0,0.0,0.0,0.0,0.0,4.3508,0.0,0.0,0.0,0.0,0.0,0.0,0.0,0.0,4.0908,0.0,0.0,4.0854,0.0,0.0,3.9407,3.87,0.0,3.6584,3.6353,3.6045,3.7046,3.8354,3.7815,3.8931,4.0392,3.9892,4.0469,4.1393,4.1739,4.1816,0.0,4.2508,4.2047,0.0,4.247,0.0,0.0,0.0,0.0,0.0,0.0,0.0,0.0,0.0,0.0,0.0,0.0,4.3278,0.0,0.0,0.0,0.0,0.0,0.0,0.0,0.0,0.0,0.0,0.0,0.0,4.6445,4.6758,4.6758,4.6758,4.6758,4.707,4.7344,4.7617,4.7891,4.8828,5.0195,5.0195,5.082,5.1914,5.2773,5.3359,5.375,5.5156,5.5742,5.582,5.6367,5.6601,5.6601,5.6601,5.6797,5.7226,0.0,0.0,0.0,0.0,4.1745,0.0,0.0,0.0,4.597,0.0,4.7291,4.7228,4.6443,4.5669,4.5196,4.5196,4.4519,0.0,4.5714,4.6174,0.0,0.0,4.6009,4.6086,4.4393,4.4355,0.0,0.0,0.0,0.0,0.0,0.0,0.0,0.0,4.2364,0.0,4.0754,4.1617,4.1424,4.0508,4.0508,4.0508,4.0546,4.0508,0.0,4.0239,3.7738,3.7315,3.7853,3.7046,3.7892,3.9277,3.9277,3.9854,4.0508,4.0508,4.0508,4.0662,4.1508,4.1739,4.1777,4.1854,0.0,0.0,0.0,0.0,4.4085,0.0,0.0,0.0,0.0,0.0,0.0,0.0,0.0,0.0,0.0,0.0,0.0,0.0,0.0,0.0,0.0,0.0,0.0,0.0,0.0,0.0,0.0,0.0,4.6758,4.7578,4.7656,4.7656,4.7656,4.8476,4.8516,4.7734,4.8555,4.9414,5.0273,5.0312,5.1172,5.2734,5.3672,5.4531,5.5351,5.625,5.664,5.664,5.6601,5.664,5.664,5.664,5.7226,5.8203,4.0891,4.1258,4.2018,0.0,4.31,4.3369,0.0,0.0,0.0,0.0,4.7487,4.7504,4.735,4.609,4.517,4.4844,4.5133,0.0,0.0,0.0,0.0,4.6281,4.6681,4.6373,4.5278,4.5278,0.0,4.5278,0.0,0.0,4.524,0.0,0.0,0.0,0.0,0.0,4.06,4.1485,4.1331,4.0508,4.0508,4.0893,0.0,0.0,4.0893,4.1239,3.9315,3.8354,3.7969,3.7738,3.8392,3.9277,3.9277,3.9854,4.0508,4.0508,4.0508,4.0546,4.0777,4.0816,4.1123,4.2431,4.247,4.2585,0.0,0.0,0.0,0.0,0.0,0.0,0.0,0.0,0.0,0.0,0.0,0.0,0.0,0.0,0.0,0.0,0.0,0.0,0.0,0.0,0.0,0.0,0.0,0.0,0.0,0.0,0.0,4.7578,4.8242,4.8555,4.8555,4.8789,4.9101,4.9531,4.9766,5.0312,5.1094,5.1758,5.2305,5.2773,5.4297,5.5078,5.5351,5.625,5.6992,5.75,5.6836,5.6992,5.7578,5.7578,5.8125,5.9023,4.1699,0.0,0.0,4.4101,0.0,0.0,4.4843,0.0,0.0,4.7213,4.7302,0.0,4.6701,4.5695,4.5012,4.4946,4.5132,0.0,0.0,0.0,0.0,4.6377,4.7048,4.6835,4.5624,4.5586,0.0,4.5586,0.0,0.0,4.5547,0.0,0.0,0.0,0.0,4.1893,0.0,4.1585,4.1508,4.1046,4.0662,0.0,0.0,4.07,4.0777,4.1123,4.0162,3.9508,3.9046,3.87,3.9123,3.9815,3.9815,4.0123,4.0508,4.0508,4.0508,4.0508,4.0508,4.0508,4.0816,4.22,4.247,4.2854,4.4624,4.4932,4.5009,0.0,0.0,0.0,0.0,0.0,0.0,0.0,0.0,0.0,0.0,0.0,0.0,0.0,0.0,0.0,0.0,0.0,0.0,0.0,0.0,0.0,0.0,0.0,0.0,4.8164,4.9336,4.9805,4.9453,5.0195,5.043,5.0195,5.0547,5.1172,5.1992,5.2461,5.3125,5.3906,5.4883,5.5508,5.5898,5.6406,5.7109,5.789,5.7773,5.8242,5.8984,5.8984,5.9297,5.9844,0.0,0.0,0.0,0.0,0.0,0.0,0.0,4.6215,0.0,4.691,0.0,4.6515,4.5339,4.4804,4.4662,4.4978,0.0,4.5193,4.6201,4.7451,4.7394,4.586,4.7165,4.7201,4.5624,4.5586,0.0,0.0,0.0,0.0,0.0,0.0,0.0,0.0,0.0,0.0,0.0,4.1739,4.1623,0.0,4.0777,4.0508,4.0508,4.0508,4.0508,4.0508,4.0508,4.0508,4.0392,3.97,3.9931,4.0508,4.0508,4.0508,4.0508,4.0508,4.0508,4.0508,4.0623,4.0662,4.0893,4.1893,4.2701,4.347,4.4278,4.5047,4.5586,4.5586,4.5586,0.0,0.0,0.0,0.0,0.0,0.0,0.0,0.0,0.0,0.0,0.0,0.0,0.0,0.0,0.0,0.0,0.0,0.0,0.0,0.0,0.0,0.0,4.8867,5.0508,0.0,5.0703,0.0,5.207,5.0898,5.1445,5.2148,5.2851,5.3008,5.3867,5.5312,5.543,5.5898,5.6601,5.6601,5.7109,5.8008,5.9101,5.9883,6.039,6.0547,6.0586,6.0664,0.0,0.0,0.0,0.0,0.0,4.5033,4.5766,4.7011,4.7561,4.662,4.6545,0.0,4.492,4.4154,4.3852,4.4191,4.5087,0.0,0.0,0.0,0.0,4.6705,4.6952,4.666,4.5624,4.5586,4.5586,0.0,0.0,0.0,0.0,0.0,0.0,0.0,0.0,0.0,4.2777,4.1354,0.0,4.07,4.0546,4.0508,4.0508,4.0508,4.0508,4.0508,4.0508,4.0508,4.0469,4.0315,4.0392,4.0508,4.0508,4.0508,4.0508,4.0508,4.0508,4.0662,4.1393,4.1585,4.1931,4.347,4.397,4.4316,4.5163,4.547,4.5586,4.5586,4.5586,4.5586,4.5586,0.0,0.0,0.0,0.0,0.0,0.0,0.0,0.0,0.0,0.0,0.0,0.0,0.0,0.0,0.0,0.0,0.0,0.0,0.0,0.0,0.0,5.0469,0.0,0.0,0.0,5.3281,5.4414,5.3828,5.3633,5.3789,5.4531,5.5,5.5351,5.6055,5.6445,5.6601,5.6601,5.7109,5.8125,6.039,6.0898,6.0508,6.1211,6.1484,6.1484,0.0,0.0,0.0,0.0,0.0,0.0,0.0,4.763,0.0,4.6868,4.622,4.5514,4.4781,4.3975,4.3693,4.4261,4.5235,4.6038,4.6564,4.7953,4.822,4.6952,4.7314,0.0,4.5624,4.5586,4.5586,4.5586,0.0,0.0,0.0,0.0,0.0,0.0,0.0,4.3085,0.0,0.0,0.0,4.1162,4.1162,4.0893,4.0508,4.0508,4.0508,4.0508,4.0508,4.0508,4.0508,4.0508,4.0508,4.0508,4.0508,4.0508,4.0508,4.0508,4.0508,4.07,4.1546,4.1816,4.22,4.3893,4.4316,4.4509,4.5393,4.5586,4.5586,4.5586,4.5586,4.5586,4.5586,4.5586,0.0,0.0,0.0,0.0,0.0,0.0,0.0,0.0,0.0,0.0,0.0,0.0,0.0,0.0,0.0,0.0,0.0,0.0,0.0,0.0,0.0,0.0,0.0,0.0,0.0,5.4609,5.4219,5.4258,5.4687,5.5117,5.5547,5.6015,5.6406,5.6875,5.7344,5.8203,5.8828,5.9375,6.1055,6.1445,6.1133,6.1562,6.1719,6.1719,0.0,4.3754,0.0,0.0,4.5801,0.0,4.7414,4.7979,4.7976,4.6985,4.5981,4.5123,4.4524,4.3864,4.3791,4.4546,4.5342,4.6111,4.6857,4.8161,4.8372,4.7199,4.7601,4.7237,4.5911,4.5855,4.5778,0.0,0.0,0.0,0.0,0.0,0.0,0.0,0.0,0.0,0.0,0.0,4.2547,4.2085,4.2085,4.1662,4.1008,4.0854,4.0893,4.1008,4.0854,4.0777,4.0777,4.0777,4.0662,4.0508,4.0508,4.0508,4.0508,4.0652,4.0707,4.1008,4.1942,4.2266,4.2701,4.4201,4.4586,4.4739,4.5432,4.5586,4.5586,4.5586,4.5586,4.5586,4.5586,4.5586,0.0,0.0,0.0,0.0,0.0,0.0,0.0,0.0,0.0,0.0,0.0,0.0,0.0,0.0,0.0,0.0,0.0,0.0,0.0,0.0,0.0,5.3437,5.3203,0.0,5.5156,0.0,5.4648,5.4922,5.5586,5.5781,5.6211,5.6875,5.707,5.7539,5.8281,5.9805,6.039,6.0508,6.1367,6.1719,6.1719,6.1719,6.1719,6.1719,0.0,0.0,0.0,0.0,0.0,0.0,0.0,4.7792,4.7755,4.6214,4.592,4.5258,4.3754,4.3534,4.3791,4.4546,4.5342,4.6111,4.6857,4.7048,4.7394,4.7952,4.7375,4.6932,4.6775,4.6796,4.6394,0.0,0.0,0.0,0.0,0.0,0.0,0.0,0.0,0.0,0.0,4.2277,4.2316,4.297,4.297,4.2931,4.2777,4.197,4.2162,4.2739,4.197,4.17,4.17,4.17,4.1162,4.0508,4.0508,4.0508,4.0592,4.1074,4.1453,4.1959,4.3252,4.3829,4.4278,4.524,4.547,4.5509,4.5586,4.5586,4.5586,4.5586,4.5586,4.5586,4.5586,4.5586,4.5586,0.0,0.0,0.0,0.0,0.0,0.0,0.0,0.0,0.0,0.0,0.0,0.0,0.0,0.0,0.0,0.0,0.0,0.0,4.8364,0.0,5.3359,5.4844,5.5156,0.0,5.7539,5.6719,5.6406,5.6523,5.7305,5.7695,5.7812,5.8594,5.8984,5.914,6.0039,6.039,6.0508,6.1367,6.1719,6.1719,6.1719,6.1719,6.1797,0.0,0.0,0.0,0.0,0.0,0.0,0.0,4.8086,4.7719,4.6104,4.5883,4.5663,4.5002,4.4085,4.3976,4.5187,4.6097,4.7124,4.8318,4.8894,4.9086,4.8894,4.8068,4.7394,4.6912,4.6894,4.6471,0.0,0.0,0.0,0.0,0.0,0.0,0.0,0.0,4.3368,4.3124,4.3239,4.3239,4.3124,4.3624,4.3239,4.2354,4.2508,4.247,4.2354,4.2508,4.2585,4.2585,4.2585,4.1662,4.0585,4.1123,4.114,4.1112,4.1818,4.2125,4.2451,4.3535,4.4039,4.4509,4.5355,4.5586,4.5586,4.5586,4.5586,4.5586,4.5586,4.5586,4.5586,4.5586,4.5586,4.5586,0.0,0.0,0.0,0.0,0.0,0.0,0.0,0.0,0.0,0.0,0.0,0.0,0.0,0.0,0.0,0.0,0.0,0.0,4.8298,0.0,5.3429,5.4177,5.5382,5.6328,5.6992,5.6719,5.6875,5.7383,5.7734,5.8203,5.8711,5.957,5.9922,6.0,6.082,6.1172,6.1211,6.1562,6.1719,6.1758,6.2305,6.2461,6.2617,4.4782,0.0,4.614,0.0,4.7315,4.7645,4.8233,4.8306,4.7902,4.6764,4.6177,4.57,4.5259,4.4378,4.4383,4.5677,4.6814,4.7998,4.9317,4.9971,5.0164,4.9779,4.8933,0.0,4.7663,4.7625,4.7086,4.597,4.6586,0.0,0.0,0.0,0.0,0.0,4.3264,4.3493,4.3216,4.3752,4.3829,4.3599,4.425,4.3826,4.2829,4.3282,4.3239,4.297,4.3316,4.3431,4.3431,4.3431,4.247,4.1354,4.1848,4.1858,4.1774,4.2397,4.2753,4.3052,4.3824,4.4345,4.4816,4.5432,4.5586,4.5586,4.5586,4.5586,4.5586,4.5586,4.5586,4.5586,4.5586,4.5586,4.5586,4.5586,0.0,0.0,0.0,0.0,0.0,0.0,0.0,4.5586,4.5586,0.0,0.0,0.0,0.0,0.0,0.0,0.0,0.0,0.0,0.0,0.0,0.0,5.5861,5.6815,5.7086,5.7224,5.7617,5.8203,5.8515,5.9101,5.9961,6.0547,6.0781,6.082,6.1445,6.1719,6.1719,6.1992,6.207,6.2187,6.3047,6.3398,6.3515,4.4562,4.5369,4.614,4.6985,4.7755,4.8306,4.8306,4.8306,4.8306,4.8269,4.6874,4.5296,4.3681,4.4232,4.5012,4.5714,4.7305,4.858,4.9356,4.9394,4.9779,0.0,0.0,4.9394,4.9356,4.9356,4.8548,4.6894,0.0,0.0,4.5586,0.0,4.462,4.3759,4.344,4.329,4.3316,4.3316,4.3806,4.4612,4.4966,4.5077,4.5006,4.4497,4.4816,4.5432,4.4586,4.4278,4.4278,4.4278,4.3739,4.3013,4.2603,4.2502,4.2547,4.2717,4.3265,4.3885,4.4436,4.5077,4.5586,4.5586,4.5586,4.5586,4.5586,4.5586,4.5586,4.5586,4.5586,4.5586,4.5586,4.5586,4.5586,4.5586,0.0,0.0,0.0,0.0,0.0,0.0,4.5586,4.5586,4.5586,0.0,0.0,0.0,0.0,0.0,0.0,0.0,0.0,4.9356,5.1991,0.0,5.5878,5.6896,5.7814,5.8671,5.8804,5.8867,5.8906,5.9922,6.0859,6.168,6.168,6.168,6.168,6.1719,6.1719,6.1797,6.2656,6.2969,6.3086,6.3945,6.4297,6.4414,4.548,4.6177,4.6985,4.7792,4.8122,4.8306,4.8306,4.8306,4.8122,4.7572,4.7058,4.6324,4.5259,4.4892,4.5358,0.0,4.7573,4.8465,0.0,4.987,5.0134,5.0664,4.9856,4.9394,4.9394,4.9394,4.8586,4.6894,0.0,0.0,0.0,4.4645,4.4288,4.3464,4.3677,4.3923,4.4195,4.4207,4.4334,4.4624,4.4726,4.4554,4.4276,4.4687,4.4787,4.4739,4.5047,4.5201,4.5201,4.5201,4.4863,4.4399,4.4014,4.354,4.3139,4.3519,4.397,4.4386,4.4575,4.5077,4.5586,4.5586,4.5586,4.5586,4.5586,4.5586,4.5586,4.5586,4.5586,4.5586,4.5586,4.6086,4.6509,4.6509,4.6932,0.0,0.0,0.0,0.0,0.0,0.0,4.6509,0.0,4.6971,0.0,0.0,0.0,0.0,0.0,0.0,0.0,0.0,5.3338,0.0,5.5742,5.7335,5.8269,5.8568,5.8712,5.9104,5.9805,6.0742,6.1367,6.1719,6.1719,6.2031,6.2578,6.2578,6.293,6.3515,6.3789,6.3906,6.3984,6.4844,6.5195,6.539,4.5443,4.6361,4.7278,4.7755,4.8122,4.8306,4.8306,4.8306,4.8122,4.7645,4.7315,4.7021,4.6838,4.6104,0.0,4.7578,4.7984,4.864,4.9808,4.9999,5.0206,5.0462,5.0124,4.9894,4.9894,0.0,0.0,4.7337,4.7124,4.6047,4.4299,4.4347,4.4083,4.3554,4.3743,4.3956,4.4197,4.4199,4.4184,4.4184,4.4325,4.4177,4.3969,4.463,4.4804,4.4684,4.5208,4.5475,4.5586,4.5438,4.5263,4.5011,4.4508,4.4008,4.3587,4.3763,4.4213,4.4599,4.4599,4.5077,4.5586,4.5586,4.5586,4.5586,4.5586,4.5586,4.5586,4.5586,4.5855,4.6086,4.6086,4.6778,4.7355,4.7355,4.7778,4.7817,0.0,0.0,0.0,0.0,0.0,0.0,0.0,4.7817,0.0,0.0,0.0,0.0,0.0,0.0,0.0,5.1625,5.428,0.0,5.7126,5.828,5.905,5.9396,5.9565,6.0053,6.069,6.1316,6.1797,6.2187,6.2187,6.2695,6.3476,6.3476,6.3828,6.4336,6.4648,6.4805,6.4883,6.5781,6.6289,6.6719,4.4782,4.603,0.0,0.0,4.7792,0.0,4.8306,4.8306,4.8306,4.8306,4.7645,4.7498,4.8233,4.7645,4.7353,4.7731,0.0,0.0,0.0,4.9846,5.0087,5.0111,5.0483,5.0702,5.0702,5.0702,4.9817,4.8068,4.6068,4.5068,4.503,4.4311,4.3995,4.3939,4.3643,4.3497,4.3497,4.3497,4.3497,4.3534,4.3826,4.397,4.4036,4.4406,4.4794,4.5073,4.5107,4.5323,4.555,4.5204,4.5077,4.4943,4.4224,4.3998,4.3912,4.3597,4.4004,4.4572,4.4599,4.5055,4.5568,4.5586,4.5586,4.5586,4.5586,4.5624,4.5701,4.5701,4.6394,4.7009,4.7048,4.774,4.8279,4.8279,4.8279,4.7971,4.7124,0.0,0.0,0.0,0.0,0.0,0.0,4.8317,4.8355,0.0,0.0,0.0,0.0,0.0,5.1741,5.3318,5.5049,5.7088,5.9473,5.955,6.0012,6.0781,6.1112,6.1366,6.1549,6.1705,6.2265,6.3086,6.3086,6.3594,6.4375,6.4375,6.4414,6.457,6.543,6.5781,6.5898,6.6758,6.7578,6.8281,0.0,0.0,4.7315,4.7902,4.8196,4.8306,4.8306,4.8306,4.8306,4.8306,4.8122,4.8086,4.8269,4.8122,4.805,4.8126,4.8347,4.8604,4.9011,4.9416,4.9803,5.0101,5.0478,5.0702,5.0702,5.0702,4.974,4.7722,4.5953,4.4799,4.4243,4.4078,4.3867,4.3615,4.3526,4.3497,4.3497,4.3497,4.3497,4.3497,4.3605,4.3752,4.4005,4.4124,4.4524,4.5109,4.5112,4.5302,4.5547,4.5207,4.493,4.4625,4.4143,4.3841,4.3597,4.3495,4.3823,4.4204,4.4546,4.4896,4.5263,4.555,4.5586,4.5586,4.5586,4.6124,4.6586,4.6586,4.724,4.8009,4.8702,4.951,5.0087,5.0087,5.0087,4.9548,4.8048,4.7817,0.0,0.0,4.8625,4.9625,4.9125,5.024,5.101,0.0,0.0,0.0,0.0,5.3818,5.4703,5.5088,5.7396,5.8896,5.9473,6.0165,6.0589,6.0781,6.0858,6.1368,6.2274,6.2346,6.2954,6.3984,6.3984,6.4492,6.5273,6.5273,6.5664,6.6367,6.7226,6.7578,6.7695,6.8515,6.8945,6.9219,4.6287,4.7095,4.7792,4.8233,4.8306,4.8306,4.8306,4.8306,4.8306,4.8306,4.8306,4.8306,4.8306,4.8306,4.8306,4.8306,4.8306,4.8383,4.8604,4.9155,4.9596,4.9814,5.0396,5.0702,5.0702,5.0702,4.9682,4.7604,4.5773,4.4588,4.4008,4.3857,4.368,4.3497,4.3497,4.3497,4.3497,4.3497,4.3497,4.3497,4.3497,4.3605,4.3752,4.3752,4.4235,4.487,4.4881,4.5093,4.5316,4.4991,4.4624,4.4282,4.3885,4.3643,4.3569,4.3934,4.4178,4.4318,4.4546,4.4966,4.5457,4.605,4.6471,4.674,4.674,4.7432,4.7932,4.7548,4.874,4.9856,4.9971,5.101,5.1702,5.1318,5.0933,5.0087,4.8355,4.8086,0.0,4.8048,4.9625,5.0818,5.1125,5.1972,5.2318,5.1933,0.0,0.0,5.378,5.5742,5.6703,5.6319,5.8396,5.9704,6.0089,6.055,6.0781,6.0819,6.1281,6.1808,6.2422,6.2932,6.3685,6.4687,6.4726,6.5469,6.664,6.6758,6.7265,6.8086,6.8594,6.8789,6.8867,6.9297,6.9687,7.0117,4.6801,4.7682,4.8306,4.8306,4.8306,4.8306,4.8306,4.8306,4.8306,4.8306,4.8306,4.8306,4.8306,4.8306,4.8343,4.8453,4.8489,4.8416,4.8306,4.9041,4.9482,4.9514,5.0283,5.0702,5.0702,5.051,4.9452,4.7542,4.5631,4.441,4.3934,4.3642,4.3497,4.3497,4.3497,4.3497,4.3497,4.3497,4.3497,4.3497,4.3497,4.3497,4.3497,4.3497,4.4007,4.469,4.4681,4.4908,4.5166,4.494,4.4554,4.414,4.3915,4.386,4.4007,4.4665,4.4898,4.4879,4.4938,4.5404,4.6065,4.6817,4.7509,4.8048,4.8183,4.8933,4.9433,4.8817,5.051,5.1933,5.1395,5.2433,5.3164,5.2433,5.151,5.0317,4.874,0.0,4.8779,4.951,5.0587,5.1779,5.3087,5.3433,5.328,5.2549,5.3972,5.4934,0.0,5.7242,5.8127,5.7396,5.8896,6.005,6.0781,6.0935,6.1012,6.1012,6.1973,6.2613,6.2914,6.375,6.4704,6.568,6.5798,6.6711,6.8125,6.8281,6.8789,6.9414,6.9609,6.9687,6.9687,6.9844,7.039,7.1211,4.6067,4.7278,4.8306,4.8306,4.8306,4.8306,4.8306,4.8306,4.8306,4.8306,4.8306,4.8306,4.8306,4.8306,4.8601,4.934,4.9413,4.9081,4.8343,4.9047,4.9529,4.9492,5.0291,5.0702,5.0702,4.9644,4.8452,4.7178,4.5781,4.4591,4.3605,4.3497,4.3497,4.3497,4.3497,4.3497,4.3497,4.3497,4.3497,4.3497,4.3497,4.3497,4.3497,4.3497,4.4189,4.5086,4.5125,4.5378,4.5745,4.6026,4.5658,4.5053,4.5429,4.5542,4.5542,4.5653,4.5912,4.619,4.6543,4.692,4.7237,4.7394,4.7491,4.778,4.851,4.9644,5.0664,5.1202,5.2202,5.3203,5.378,5.4126,5.4241,5.4126,5.2779,5.1395,5.0433,0.0,5.0337,5.0471,5.2492,5.3723,5.3241,5.4472,5.5241,5.5126,5.6032,5.6917,5.7665,5.8742,5.9242,5.9127,6.0089,6.0666,6.0781,6.1512,6.1897,6.1897,6.2767,6.3984,6.551,6.5659,6.6688,6.833,6.833,6.8605,6.8984,6.9023,6.9219,6.9531,7.0234,7.0508,7.0586,7.1328,7.2148,7.293,4.7131,4.7792,4.8306,4.8306,4.8306,4.8453,4.893,4.86,4.8489,4.893,4.86,4.8306,4.8306,4.8306,4.8638,4.9487,4.9599,4.9634,4.9627,5.0411,5.0633,5.0156,5.1354,5.1819,5.1337,4.924,4.7815,4.7099,4.537,4.441,4.4118,4.4118,4.4373,4.481,4.481,4.481,4.4739,4.4336,4.4373,4.4739,4.4336,4.441,4.481,4.481,4.525,4.5867,4.5859,4.596,4.6165,4.6368,4.6026,4.559,4.581,4.6177,4.6654,4.7059,4.6823,4.648,4.6891,4.7759,4.8529,4.8503,4.9387,5.0359,5.0758,5.1838,5.2723,5.2626,5.3626,5.4549,5.4531,5.4857,5.5164,5.5164,5.3315,0.0,0.0,5.1645,5.1703,5.2627,5.4592,5.5882,5.5938,5.6648,5.7088,5.7126,5.7473,5.8072,5.8896,5.9319,5.9935,6.0881,6.1281,6.1497,6.1497,6.2344,6.2998,6.346,6.4292,6.5356,6.6637,6.7138,6.7821,6.8629,6.8706,6.9082,6.9589,6.9703,7.0078,7.0625,7.1055,7.1445,7.1833,7.2339,7.3085,7.3906,4.7902,4.8196,4.8306,4.8306,4.8489,4.882,4.9481,4.9187,4.9114,4.9774,4.9297,4.8893,4.8893,4.8857,4.9226,5.0078,5.0149,5.0475,5.1316,5.2119,5.2102,5.1065,5.2222,5.2589,5.1896,4.9163,4.7618,4.7389,4.5404,4.4628,4.4994,4.4998,4.5294,4.588,4.588,4.588,4.5843,4.522,4.5328,4.5872,4.5219,4.5366,4.5917,4.61,4.6467,4.6836,4.6836,4.698,4.7128,4.7131,4.6948,4.6795,4.698,4.7457,4.8084,4.8705,4.8194,4.7529,4.8009,4.8976,4.9858,4.983,5.1136,5.25,5.2691,5.382,5.4667,5.4185,5.5263,5.6109,5.5514,5.5899,5.6225,5.6032,0.0,0.0,0.0,5.3225,5.334,5.4902,5.6385,5.7559,5.8248,5.8457,5.8511,5.8412,5.8896,5.9396,5.9896,6.0227,6.0997,6.2344,6.2382,6.2382,6.2382,6.3383,6.4253,6.4908,6.601,6.6921,6.7726,6.8398,6.8783,6.8998,6.9075,6.9536,7.0182,7.0368,7.0954,7.1774,7.1891,7.2362,7.3038,7.317,7.3782,7.4636,4.7205,4.7792,4.8306,4.8306,4.8967,4.9517,4.9591,5.0178,5.0655,5.0692,5.0655,5.0618,5.0618,5.0622,5.0922,5.1738,5.183,5.2187,5.3004,5.3829,5.3594,5.1962,5.1949,5.1972,5.1896,4.9509,4.8237,4.8227,4.657,4.5798,4.5835,4.581,4.5842,4.5878,4.5878,4.5878,4.5878,4.5842,4.5847,4.5875,4.5846,4.5842,4.599,4.6724,4.7459,4.8159,4.8159,4.8675,4.934,4.9378,4.9378,4.945,5.019,5.0487,5.0558,5.0602,5.0519,5.0652,5.1342,5.1343,5.1157,5.1132,5.1605,5.2233,5.2982,5.4434,5.5805,5.6554,5.7461,5.8077,5.8021,5.8077,5.7846,5.7054,0.0,0.0,5.5497,5.5458,5.5768,5.6676,5.7639,5.8248,5.8312,5.8965,5.9235,5.8812,6.0666,6.1651,6.1266,6.2367,6.306,6.3205,6.3214,6.3214,6.3205,6.4869,6.5741,6.5818,6.7435,6.8693,6.9527,6.9578,6.9986,7.0706,7.0744,7.086,7.1118,7.112,7.1737,7.261,7.2649,7.3153,7.3897,7.3928,7.4466,7.5219,4.7752,4.8086,4.8489,4.9003,4.9517,5.0105,5.0949,5.0912,5.0986,5.1463,5.1092,5.0794,5.0794,5.079,5.1119,5.194,5.2004,5.2328,5.3151,5.404,5.4455,5.4293,5.3255,5.2609,5.2323,5.0203,4.872,4.794,4.6581,4.6396,4.7386,4.7378,4.7926,4.8922,4.8922,4.8928,4.8897,4.7826,4.7682,4.8163,4.7607,4.7716,4.8306,4.9081,4.9591,4.983,4.983,5.0068,5.0337,5.0358,5.035,5.0387,5.0721,5.1128,5.172,5.2705,5.3036,5.3182,5.3995,5.2968,5.183,5.2333,5.3188,5.4127,5.5235,5.6207,5.7054,5.7681,5.8066,5.8296,5.8296,5.8296,5.8335,5.8511,0.0,5.6879,5.7906,5.761,5.7627,5.844,5.9326,5.9842,5.9835,6.0142,6.0319,6.0358,6.1447,6.2118,6.2142,6.3392,6.4108,6.4123,6.51,6.5139,6.4123,6.5793,6.6923,6.7448,6.8629,6.9655,7.0452,7.0437,7.0629,7.0898,7.0898,7.1245,7.1811,7.1811,7.2377,7.3185,7.3283,7.3765,7.446,7.4564,7.5178,7.5908,4.8153,4.8526,4.8893,4.9481,5.0178,5.0949,5.1867,5.1756,5.1756,5.2307,5.1899,5.1527,5.1527,5.1553,5.181,5.2328,5.2364,5.2674,5.3363,5.4199,5.4995,5.5643,5.4374,5.3269,5.2607,5.0627,4.9102,4.8083,4.713,4.7375,4.8729,4.8981,4.9679,5.0831,5.0831,5.0802,5.0698,4.9588,4.9407,4.9932,4.934,4.941,5.0031,5.0885,5.1206,5.1177,5.1177,5.1348,5.1551,5.1261,5.1511,5.1919,5.1919,5.248,5.3335,5.4454,5.4779,5.4906,5.546,5.4399,5.3237,5.3818,5.4669,5.5636,5.6677,5.7456,5.8088,5.8581,5.8889,5.9081,5.9081,5.9081,5.9196,5.9427,5.855,5.8264,5.9694,5.9435,5.9465,6.0589,6.1228,6.1497,6.1228,6.1304,6.1304,6.1112,6.2041,6.2927,6.3617,6.4754,6.538,6.538,6.6781,6.6948,6.5793,6.7218,6.8347,6.919,7.0063,7.0937,7.1734,7.1734,7.1734,7.1734,7.1734,7.2041,7.2608,7.2619,7.3119,7.3889,7.3986,7.4456,7.5101,7.5255,7.5861,7.6621,4.819,4.9003,4.9591,4.9591,5.0912,5.1977,5.2013,5.2711,5.3225,5.3225,5.3225,5.3225,5.3225,5.3225,5.3225,5.3225,5.3225,5.3359,5.3796,5.464,5.5301,5.5703,5.4934,5.392,5.2616,5.0673,4.937,4.8926,4.8494,4.8766,4.9614,5.0446,5.0806,5.0842,5.0842,5.0842,5.0842,5.0806,5.0794,5.082,5.082,5.0805,5.0879,5.1694,5.1993,5.1993,5.1993,5.2553,5.3072,5.2291,5.3072,5.4417,5.4417,5.4938,5.5613,5.5613,5.5611,5.5633,5.5633,5.5633,5.5615,5.5601,5.5912,5.6347,5.6795,5.7921,5.8965,5.9388,6.0181,6.0819,6.0819,6.0819,6.055,5.9681,5.9504,5.9835,6.0704,6.0819,6.1458,6.3084,6.3315,6.3007,6.2213,6.2406,6.2059,6.0719,6.2591,6.4444,6.582,6.6654,6.7102,6.7116,6.7949,6.8424,6.8394,6.9258,7.0093,7.0898,7.1772,7.2646,7.352,7.352,7.352,7.352,7.352,7.352,7.3493,7.3524,7.3995,7.4716,7.4716,7.5216,7.6015,7.6015,7.6583,7.7275,4.8882,4.9054,4.9398,5.1018,5.1683,5.2197,5.2747,5.3078,5.3225,5.3225,5.3225,5.3225,5.3225,5.3702,5.3812,5.3261,5.3739,5.4374,5.5081,5.6223,5.6754,5.6626,5.5538,5.4306,5.3072,5.2161,5.1228,5.023,5.0108,5.0464,5.1275,5.1527,5.193,5.248,5.248,5.248,5.248,5.1883,5.1632,5.1605,5.1605,5.1637,5.1736,5.2553,5.3188,5.3634,5.3036,5.3335,5.4007,5.3744,5.4007,5.4485,5.5082,5.5404,5.5705,5.6263,5.6438,5.6566,5.7134,5.7281,5.7134,5.6557,5.6777,5.7354,5.841,5.9197,5.9835,6.0319,6.1112,6.1689,6.1689,6.2175,6.2483,6.2213,6.2175,6.2252,6.2521,6.2551,6.2732,6.3257,6.3295,6.3218,6.2963,6.2728,6.25,6.2392,6.4064,6.5566,6.6667,6.7564,6.8001,6.8025,6.8833,6.9294,6.9306,6.959,7.009,7.0898,7.1766,7.265,7.3486,7.3486,7.3486,7.3486,7.3486,7.3793,7.4361,7.4332,7.4832,7.563,7.563,7.5784,7.6053,7.6698,7.7083,7.7391,4.8883,4.9586,5.0393,5.1752,5.227,5.2637,5.3151,5.3225,5.3225,5.3225,5.3482,5.3665,5.3665,5.4399,5.4693,5.4179,5.4759,5.5431,5.6149,5.708,5.7477,5.7249,5.6022,5.4684,5.3232,5.2776,5.2011,5.0802,5.1132,5.1499,5.2013,5.2344,5.2747,5.3225,5.3225,5.3225,5.3188,5.2663,5.248,5.2517,5.2852,5.2962,5.3036,5.3818,5.4454,5.4828,5.4319,5.4436,5.4865,5.4865,5.5116,5.55,5.6283,5.653,5.6649,5.7134,5.7244,5.7354,5.7886,5.8234,5.8359,5.7872,5.7711,5.8002,5.9139,5.9908,6.0503,6.118,6.1997,6.256,6.2551,6.2974,6.3306,6.3306,6.3306,6.3421,6.3767,6.4128,6.4424,6.4757,6.4795,6.4603,6.4078,6.3589,6.3511,6.4021,6.5303,6.6499,6.7552,6.8462,6.8898,6.8921,6.9756,7.0333,7.0717,7.0717,7.1102,7.1926,7.2765,7.3649,7.4495,7.4495,7.4495,7.4495,7.4495,7.4755,7.5216,7.5216,7.5745,7.6476,7.613,7.6207,7.6583,7.7121,7.7506,7.79,4.8623,5.0416,5.1852,5.2087,5.2711,5.3225,5.3225,5.3261,5.3335,5.3335,5.3995,5.4509,5.4509,5.5207,5.5684,5.5611,5.6047,5.6482,5.6911,5.7446,5.773,5.7654,5.645,5.5018,5.3396,5.2928,5.2121,5.1022,5.1756,5.2087,5.2123,5.2858,5.3261,5.3298,5.3298,5.3335,5.3408,5.3408,5.3408,5.3445,5.4191,5.4528,5.4559,5.5306,5.5644,5.5675,5.566,5.5676,5.5681,5.5681,5.625,5.7061,5.773,5.7997,5.7997,5.807,5.8107,5.8097,5.817,5.8761,5.9297,5.9283,5.875,5.8455,5.934,6.0252,6.1094,6.1964,6.2844,6.3445,6.3424,6.3476,6.3553,6.363,6.363,6.3937,6.4808,6.5603,6.6397,6.7116,6.7231,6.6692,6.5333,6.4768,6.4761,6.5632,6.6442,6.7368,6.8471,6.9344,6.9833,6.9948,7.0602,7.1409,7.2304,7.2381,7.2822,7.3609,7.4361,7.5139,7.6015,7.6015,7.6015,7.6015,7.6015,7.6015,7.6015,7.6015,7.6438,7.7083,7.6322,7.6515,7.7314,7.7352,7.7938,7.8762,4.9898,5.0426,5.0951,5.2651,5.3078,5.3225,5.3225,5.3739,5.4142,5.4142,5.484,5.5317,5.5317,5.6051,5.6308,5.5647,5.6566,5.7262,5.7341,5.8417,5.8732,5.8018,5.6812,5.5697,5.4614,5.36,5.2946,5.2674,5.2858,5.2931,5.2931,5.3115,5.3561,5.4117,5.4117,5.4491,5.5091,5.5091,5.5091,5.5091,5.5275,5.5367,5.5359,5.5505,5.5953,5.6438,5.5825,5.6017,5.6557,5.6557,5.707,5.773,5.796,5.7997,5.8107,5.875,5.893,5.9091,5.9737,6.0004,6.0136,6.0139,5.998,6.0041,6.0617,6.1468,6.2243,6.2439,6.3463,6.4295,6.4308,6.4872,6.5551,6.6167,6.6295,6.6576,6.7434,6.7756,6.791,6.8075,6.8114,6.7602,6.6244,6.5237,6.5217,6.6455,6.7315,6.8279,6.9344,7.0179,7.0948,7.1612,7.1832,7.2332,7.3178,7.3832,7.4255,7.4409,7.4639,7.5139,7.6015,7.6015,7.6015,7.6015,7.6015,7.6015,7.6015,7.6015,7.6092,7.6245,7.6079,7.6532,7.7352,7.7997,7.8776,7.9638,5.0102,5.1059,5.19,5.2987,5.3225,5.3335,5.3702,5.4142,5.4546,5.4913,5.5684,5.6161,5.6161,5.6895,5.7189,5.6785,5.7346,5.783,5.808,5.8727,5.884,5.8428,5.7416,5.6546,5.5854,5.4491,5.3592,5.3225,5.3225,5.3408,5.3775,5.3781,5.4228,5.4969,5.4975,5.5202,5.5613,5.5588,5.5574,5.5611,5.6022,5.6153,5.6191,5.6566,5.7024,5.7317,5.6905,5.7024,5.7437,5.785,5.8226,5.864,5.9053,5.9127,5.9237,5.9651,5.9784,5.9894,6.0309,6.0689,6.1055,6.1459,6.1849,6.2168,6.2083,6.2757,6.3731,6.4576,6.5667,6.641,6.641,6.6795,6.7165,6.7293,6.7543,6.7768,6.7999,6.8602,6.9025,6.9036,6.8794,6.7943,6.6369,6.5849,6.6124,6.7357,6.8224,6.9306,7.0821,7.1283,7.1926,7.2783,7.2822,7.3217,7.4053,7.4476,7.4938,7.5293,7.5293,7.5592,7.6015,7.6399,7.6621,7.6659,7.7044,7.6967,7.6621,7.6621,7.6852,7.716,7.6793,7.74,7.8536,7.8968,7.9669,8.0484,4.9988,5.1715,5.3097,5.3329,5.3408,5.3702,5.4473,5.473,5.506,5.5721,5.6528,5.7005,5.7005,5.7593,5.7997,5.7997,5.7997,5.8186,5.8549,5.8591,5.8591,5.8591,5.781,5.7191,5.6822,5.5354,5.4216,5.3408,5.3408,5.3739,5.4406,5.4559,5.5043,5.5822,5.5834,5.5871,5.6012,5.6035,5.6008,5.6081,5.6759,5.7024,5.7098,5.773,5.7997,5.8033,5.817,5.828,5.8474,5.92,5.9421,5.9522,6.0157,6.0425,6.0425,6.0535,6.0713,6.0834,6.098,6.1629,6.2388,6.3025,6.3773,6.4214,6.387,6.4267,6.5165,6.6726,6.7686,6.8256,6.8256,6.8262,6.8119,6.7732,6.8106,6.8377,6.8081,6.9124,6.991,6.991,6.9169,6.8152,6.6777,6.6675,6.7266,6.8603,6.9323,7.0514,7.2338,7.2426,7.2811,7.3686,7.3735,7.4091,7.4928,7.4928,7.5351,7.6207,7.6207,7.6245,7.6254,7.7092,7.7429,7.7352,7.8122,7.8045,7.7284,7.7429,7.792,7.8421,7.7776,7.8459,7.9836,7.9977,8.0484,8.1093,5.0664,5.162,5.2645,5.4019,5.4252,5.4509,5.5317,5.6014,5.6528,5.6638,5.7336,5.785,5.785,5.7923,5.7997,5.7997,5.7997,5.8042,5.8097,5.8097,5.8097,5.8097,5.7324,5.6875,5.6822,5.5912,5.503,5.4252,5.4265,5.4307,5.4454,5.5104,5.5852,5.662,5.6663,5.7014,5.7675,5.7703,5.7657,5.7657,5.7813,5.785,5.785,5.796,5.7997,5.806,5.8775,5.9445,6.0052,6.0204,6.0247,6.0249,6.0358,6.0358,6.0554,6.1239,6.1948,6.2608,6.3369,6.4204,6.4806,6.4967,6.5044,6.5437,6.6496,6.6228,6.5977,6.6695,6.7275,6.7703,6.7703,6.7702,6.7752,6.7926,6.8402,6.8984,6.9683,7.0341,7.0744,7.0744,6.9223,6.8483,6.9131,6.8198,6.8566,7.1082,7.137,7.2003,7.3289,7.3322,7.3716,7.4504,7.4514,7.4938,7.5822,7.5822,7.6275,7.7121,7.713,7.7139,7.7155,7.7993,7.7993,7.7347,7.8146,7.807,7.7347,7.8045,7.8382,7.8498,7.8369,7.8946,7.9869,8.0669,8.1016,8.1093,5.1458,5.2654,5.3726,5.4869,5.506,5.5354,5.6161,5.6565,5.6969,5.7409,5.7776,5.7997,5.7997,5.7997,5.7997,5.7997,5.7997,5.7997,5.7997,5.7997,5.7997,5.7997,5.7666,5.7483,5.7483,5.6683,5.6095,5.5765,5.5264,5.5306,5.5742,5.6123,5.6712,5.7479,5.7479,5.7692,5.7997,5.7997,5.7997,5.7997,5.7997,5.7997,5.7997,5.7997,5.827,5.8786,5.9565,6.009,6.0457,6.0933,6.1056,6.1249,6.2201,6.2493,6.2603,6.3443,6.3897,6.4265,6.4662,6.5029,6.5521,6.6434,6.6276,6.6516,6.8419,6.8231,6.7841,6.8683,6.8716,6.8663,6.9152,6.8853,6.8504,6.8323,6.9391,7.0299,7.038,7.1114,7.1218,7.0137,6.9003,6.8564,6.9191,6.8697,6.9315,7.1637,7.1781,7.2486,7.4091,7.4178,7.4562,7.5399,7.5438,7.5822,7.6736,7.6736,7.7121,7.7997,7.8477,7.8416,7.8,7.8838,7.9031,7.8762,7.9592,7.9446,7.8723,7.9092,7.9208,7.9208,7.9254,7.9754,8.0561,8.0977,8.1093,8.1093]},{"header":{"parameterUnit":"m.s-1","parameterCategory":1,"la1":30.6,"la2":28.766,"lo1":-90.7593,"lo2":-88.6598,"dy":0.0162,"dx":0.0183,"nx":116,"ny":114,"refTime":"2024-03-10T12:00:00:Z","depth":0,"parameterNumber":3,"parameterNumberName":"V-component_of_WINDS"},"data":[0.0,0.0,0.0,0.0,0.0,0.0,0.0,0.0,0.0,0.0,0.0,0.0,0.0,0.0,0.0,0.0,0.0,0.0,0.0,0.0,0.0,0.0,0.0,0.0,0.0,0.0,0.0,0.0,0.0,0.0,0.0,0.0,0.0,0.0,0.0,0.0,0.0,0.0,0.0,0.0,0.0,0.0,0.0,0.0,0.0,0.0,0.0,0.0,0.0,0.0,0.0,0.0,0.0,0.0,0.0,0.0,0.0,0.0,0.0,0.0,0.0,0.0,0.0,0.0,0.0,0.0,0.0,0.0,0.0,0.0,0.0,0.0,0.0,0.0,0.0,0.0,0.0,0.0,0.0,0.0,0.0,0.0,0.0,0.0,0.0,0.0,0.0,0.0,0.0,0.0,0.0,0.0,0.0,0.0,0.0,0.0,0.0,0.0,0.0,0.0,0.0,0.0,0.0,0.0,0.0,0.0,0.0,0.0,0.0,0.0,0.0,0.0,0.0,0.0,0.0,0.0,0.0,0.0,0.0,0.0,0.0,0.0,0.0,0.0,0.0,0.0,0.0,0.0,0.0,0.0,0.0,0.0,0.0,0.0,0.0,0.0,0.0,0.0,0.0,0.0,0.0,0.0,0.0,0.0,0.0,0.0,0.0,0.0,0.0,0.0,0.0,0.0,0.0,0.0,0.0,0.0,0.0,0.0,0.0,0.0,0.0,0.0,0.0,0.0,0.0,0.0,0.0,0.0,0.0,0.0,0.0,0.0,0.0,0.0,0.0,0.0,0.0,0.0,0.0,0.0,0.0,0.0,0.0,0.0,0.0,0.0,0.0,0.0,0.0,0.0,0.0,0.0,0.0,0.0,0.0,0.0,0.0,0.0,0.0,0.0,0.0,0.0,0.0,0.0,0.0,0.0,0.0,0.0,0.0,0.0,0.0,0.0,0.0,0.0,0.0,0.0,0.0,0.0,0.0,0.0,0.0,0.0,0.0,0.0,0.0,0.0,0.0,0.0,0.0,0.0,0.0,0.0,0.0,0.0,0.0,0.0,0.0,0.0,0.0,0.0,0.0,0.0,0.0,0.0,0.0,0.0,0.0,0.0,0.0,0.0,0.0,0.0,0.0,0.0,0.0,0.0,0.0,0.0,0.0,0.0,0.0,0.0,0.0,0.0,0.0,0.0,0.0,0.0,0.0,0.0,0.0,0.0,0.0,0.0,0.0,0.0,0.0,0.0,0.0,0.0,0.0,0.0,0.0,0.0,0.0,0.0,0.0,0.0,0.0,0.0,0.0,0.0,0.0,0.0,0.0,0.0,0.0,0.0,0.0,0.0,0.0,0.0,0.0,0.0,0.0,0.0,0.0,0.0,0.0,0.0,0.0,0.0,0.0,0.0,0.0,0.0,0.0,0.0,0.0,0.0,0.0,0.0,0.0,0.0,0.0,0.0,0.0,0.0,0.0,0.0,0.0,0.0,0.0,0.0,0.0,0.0,0.0,0.0,0.0,0.0,0.0,0.0,0.0,0.0,0.0,0.0,0.0,0.0,0.0,0.0,0.0,0.0,0.0,0.0,0.0,0.0,0.0,0.0,0.0,0.0,0.0,0.0,0.0,0.0,0.0,0.0,0.0,0.0,0.0,0.0,0.0,0.0,0.0,0.0,0.0,0.0,0.0,0.0,0.0,0.0,0.0,0.0,0.0,0.0,0.0,0.0,0.0,0.0,0.0,0.0,0.0,0.0,0.0,0.0,0.0,0.0,0.0,0.0,0.0,0.0,0.0,0.0,0.0,0.0,0.0,0.0,0.0,0.0,0.0,0.0,0.0,0.0,0.0,0.0,0.0,0.0,0.0,0.0,0.0,0.0,0.0,0.0,0.0,0.0,0.0,0.0,0.0,0.0,0.0,0.0,0.0,0.0,0.0,0.0,0.0,0.0,0.0,0.0,0.0,0.0,0.0,0.0,0.0,0.0,0.0,0.0,0.0,0.0,0.0,0.0,0.0,0.0,0.0,0.0,0.0,0.0,0.0,0.0,0.0,0.0,0.0,0.0,0.0,0.0,0.0,0.0,0.0,0.0,0.0,0.0,0.0,0.0,0.0,0.0,0.0,0.0,0.0,0.0,0.0,0.0,0.0,0.0,0.0,0.0,0.0,0.0,0.0,0.0,0.0,0.0,0.0,0.0,0.0,0.0,0.0,0.0,0.0,0.0,0.0,0.0,0.0,0.0,0.0,0.0,0.0,0.0,0.0,0.0,0.0,0.0,0.0,0.0,0.0,0.0,0.0,0.0,0.0,0.0,0.0,0.0,0.0,0.0,0.0,0.0,0.0,0.0,0.0,0.0,0.0,0.0,0.0,0.0,0.0,0.0,0.0,0.0,0.0,0.0,0.0,0.0,0.0,0.0,0.0,0.0,0.0,0.0,0.0,0.0,0.0,0.0,0.0,0.0,0.0,0.0,0.0,0.0,0.0,0.0,0.0,0.0,0.0,0.0,0.0,0.0,0.0,0.0,0.0,0.0,0.0,0.0,0.0,0.0,0.0,0.0,0.0,0.0,0.0,0.0,0.0,0.0,0.0,0.0,0.0,0.0,0.0,0.0,0.0,0.0,0.0,0.0,0.0,0.0,0.0,0.0,0.0,0.0,0.0,0.0,0.0,0.0,0.0,0.0,0.0,0.0,0.0,0.0,0.0,0.0,0.0,0.0,0.0,0.0,0.0,0.0,0.0,0.0,0.0,0.0,0.0,0.0,0.0,0.0,0.0,0.0,0.0,0.0,0.0,0.0,0.0,0.0,0.0,0.0,0.0,0.0,0.0,0.0,0.0,0.0,0.0,0.0,0.0,0.0,0.0,0.0,0.0,0.0,0.0,0.0,0.0,0.0,0.0,0.0,0.0,0.0,0.0,0.0,0.0,0.0,0.0,0.0,0.0,0.0,0.0,0.0,0.0,0.0,0.0,0.0,0.0,0.0,0.0,0.0,0.0,0.0,0.0,0.0,0.0,0.0,0.0,0.0,0.0,0.0,0.0,0.0,0.0,0.0,0.0,0.0,0.0,0.0,0.0,0.0,0.0,0.0,0.0,0.0,0.0,0.0,0.0,0.0,0.0,0.0,0.0,0.0,0.0,0.0,0.0,0.0,0.0,0.0,0.0,0.0,0.0,0.0,0.0,0.0,0.0,0.0,0.0,0.0,0.0,0.0,0.0,0.0,0.0,0.0,0.0,0.0,0.0,0.0,0.0,0.0,0.0,0.0,0.0,0.0,0.0,0.0,0.0,0.0,0.0,0.0,0.0,0.0,0.0,0.0,0.0,0.0,0.0,0.0,0.0,0.0,0.0,0.0,0.0,0.0,0.0,0.0,0.0,0.0,0.0,0.0,0.0,0.0,0.0,0.0,0.0,0.0,0.0,0.0,0.0,0.0,0.0,0.0,0.0,0.0,0.0,0.0,0.0,0.0,0.0,0.0,0.0,0.0,0.0,0.0,0.0,0.0,0.0,0.0,0.0,0.0,0.0,0.0,0.0,0.0,0.0,0.0,0.0,0.0,0.0,0.0,0.0,0.0,0.0,0.0,0.0,0.0,0.0,0.0,0.0,0.0,0.0,0.0,0.0,0.0,0.0,0.0,0.0,0.0,0.0,0.0,0.0,0.0,0.0,0.0,0.0,0.0,0.0,0.0,0.0,0.0,0.0,0.0,0.0,0.0,0.0,0.0,0.0,0.0,0.0,0.0,0.0,0.0,0.0,0.0,0.0,0.0,0.0,0.0,0.0,0.0,0.0,0.0,0.0,0.0,0.0,0.0,0.0,0.0,0.0,0.0,0.0,0.0,0.0,0.0,0.0,0.0,0.0,0.0,0.0,0.0,0.0,0.0,0.0,0.0,0.0,0.0,0.0,0.0,0.0,0.0,0.0,0.0,0.0,0.0,0.0,0.0,0.0,0.0,0.0,0.0,0.0,0.0,0.0,0.0,0.0,0.0,0.0,0.0,0.0,0.0,0.0,0.0,0.0,0.0,0.0,0.0,0.0,0.0,0.0,0.0,0.0,0.0,0.0,0.0,0.0,0.0,0.0,0.0,0.0,0.0,0.0,0.0,0.0,0.0,0.0,0.0,0.0,0.0,0.0,0.0,0.0,0.0,0.0,0.0,0.0,0.0,0.0,0.0,0.0,0.0,0.0,0.0,0.0,0.0,0.0,0.0,0.0,0.0,0.0,0.0,0.0,0.0,0.0,0.0,0.0,0.0,0.0,0.0,0.0,0.0,0.0,0.0,0.0,0.0,0.0,0.0,0.0,0.0,0.0,0.0,0.0,0.0,0.0,0.0,0.0,0.0,0.0,0.0,0.0,0.0,0.0,0.0,0.0,0.0,0.0,0.0,0.0,0.0,0.0,0.0,0.0,0.0,0.0,0.0,0.0,0.0,0.0,0.0,0.0,0.0,0.0,0.0,0.0,0.0,0.0,0.0,0.0,0.0,0.0,0.0,0.0,0.0,0.0,0.0,0.0,0.0,0.0,0.0,0.0,0.0,0.0,0.0,0.0,0.0,0.0,0.0,0.0,0.0,0.0,0.0,0.0,0.0,0.0,0.0,0.0,0.0,0.0,0.0,0.0,0.0,0.0,0.0,0.0,0.0,0.0,0.0,0.0,0.0,0.0,0.0,0.0,0.0,0.0,0.0,0.0,0.0,0.0,0.0,0.0,0.0,0.0,0.0,0.0,0.0,0.0,0.0,0.0,0.0,0.0,0.0,0.0,0.0,0.0,0.0,0.0,0.0,0.0,0.0,0.0,0.0,0.0,0.0,0.0,0.0,0.0,0.0,0.0,0.0,0.0,0.0,0.0,0.0,0.0,0.0,0.0,0.0,0.0,0.0,0.0,0.0,0.0,0.0,0.0,0.0,0.0,0.0,0.0,0.0,0.0,0.0,0.0,0.0,0.0,0.0,0.0,0.0,0.0,0.0,0.0,0.0,0.0,0.0,0.0,0.0,0.0,0.0,0.0,0.0,0.0,0.0,0.0,0.0,0.0,0.0,0.0,0.0,0.0,0.0,0.0,0.0,0.0,0.0,0.0,0.0,0.0,0.0,0.0,0.0,0.0,0.0,0.0,0.0,0.0,0.0,0.0,0.0,0.0,0.0,0.0,0.0,0.0,0.0,0.0,0.0,0.0,0.0,0.0,0.0,0.0,0.0,0.0,0.0,0.0,0.0,0.0,0.0,0.0,0.0,0.0,0.0,0.0,0.0,0.0,0.0,0.0,0.0,0.0,0.0,0.0,0.0,0.0,0.0,0.0,0.0,0.0,0.0,0.0,0.0,0.0,0.0,0.0,0.0,0.0,0.0,0.0,0.0,0.0,0.0,0.0,0.0,0.0,0.0,0.0,0.0,0.0,0.0,0.0,0.0,0.0,0.0,0.0,0.0,0.0,0.0,0.0,0.0,0.0,0.0,0.0,0.0,0.0,0.0,0.0,0.0,0.0,0.0,0.0,0.0,0.0,0.0,0.0,0.0,0.0,0.0,0.0,0.0,0.0,0.0,0.0,0.0,0.0,0.0,0.0,0.0,0.0,0.0,0.0,0.0,0.0,0.0,0.0,0.0,0.0,0.0,0.0,0.0,0.0,0.0,0.0,0.0,0.0,0.0,0.0,0.0,0.0,0.0,0.0,0.0,0.0,0.0,0.0,0.0,0.0,0.0,0.0,0.0,0.0,0.0,0.0,0.0,0.0,0.0,0.0,0.0,0.0,0.0,0.0,0.0,0.0,0.0,0.0,0.0,0.0,0.0,0.0,0.0,0.0,0.0,0.0,0.0,0.0,0.0,0.0,0.0,0.0,0.0,0.0,0.0,0.0,0.0,0.0,0.0,0.0,0.0,0.0,0.0,0.0,0.0,0.0,0.0,0.0,0.0,0.0,0.0,0.0,0.0,0.0,0.0,0.0,0.0,0.0,0.0,0.0,0.0,0.0,0.0,0.0,0.0,0.0,0.0,0.0,0.0,0.0,0.0,0.0,0.0,0.0,0.0,0.0,0.0,0.0,0.0,0.0,0.0,0.0,0.0,0.0,0.0,0.0,0.0,0.0,0.0,0.0,0.0,0.0,0.0,0.0,0.0,-0.6524,0.0,0.0,0.0,0.0,0.0,0.0,0.0,0.0,0.0,0.0,0.0,0.0,0.0,0.0,0.0,0.0,0.0,0.0,0.0,0.0,0.0,0.0,0.0,0.0,0.0,0.0,0.0,0.0,0.0,0.0,0.0,0.0,0.0,0.0,0.0,0.0,0.0,0.0,0.0,0.0,0.0,0.0,0.0,0.0,0.0,0.0,0.0,0.0,0.0,0.0,0.0,0.0,0.0,0.0,0.0,0.0,0.0,0.0,0.0,0.0,0.0,0.0,0.0,0.0,0.0,0.0,0.0,0.0,0.0,0.0,0.0,0.0,0.0,0.0,0.0,0.0,0.0,0.0,0.0,0.0,0.0,0.0,0.0,0.0,0.0,0.0,0.0,0.0,0.0,0.0,0.0,0.0,0.0,0.0,0.0,0.0,0.0,0.0,0.0,0.0,0.0,0.0,0.0,0.0,0.0,0.0,0.0,0.0,0.0,0.0,0.0,0.0,0.0,0.0,0.0,0.0,-0.7822,0.0,0.0,0.0,0.0,0.0,0.0,0.0,0.0,0.0,0.0,0.0,0.0,0.0,0.0,0.0,0.0,0.0,0.0,0.0,0.0,0.0,0.0,0.0,0.0,0.0,0.0,0.0,0.0,0.0,0.0,0.0,0.0,0.0,0.0,0.0,0.0,0.0,0.0,0.0,0.0,0.0,0.0,0.0,0.0,0.0,0.0,0.0,0.0,0.0,0.0,0.0,0.0,0.0,0.0,0.0,0.0,0.0,0.0,0.0,0.0,0.0,0.0,0.0,0.0,0.0,0.0,0.0,0.0,0.0,0.0,0.0,0.0,0.0,0.0,0.0,0.0,0.0,0.0,0.0,0.0,0.0,0.0,0.0,0.0,0.0,0.0,0.0,0.0,0.0,0.0,0.0,0.0,0.0,0.0,0.0,0.0,0.0,0.0,0.0,0.0,0.0,0.0,0.0,0.0,0.0,0.0,0.0,0.0,0.0,-0.8784,-0.8541,-0.8244,-0.7895,-0.7338,-0.7437,-0.7704,-0.8006,0.0,0.0,0.0,0.0,0.0,0.0,0.0,0.0,0.0,0.0,0.0,0.0,0.0,0.0,0.0,0.0,0.0,0.0,0.0,0.0,0.0,0.0,0.0,0.0,0.0,0.0,0.0,0.0,0.0,0.0,0.0,0.0,0.0,0.0,0.0,0.0,0.0,0.0,0.0,0.0,0.0,0.0,0.0,0.0,0.0,0.0,0.0,0.0,0.0,0.0,0.0,0.0,0.0,0.0,0.0,0.0,0.0,0.0,0.0,0.0,0.0,0.0,0.0,0.0,0.0,0.0,0.0,0.0,0.0,0.0,0.0,0.0,0.0,0.0,0.0,0.0,0.0,0.0,0.0,0.0,0.0,0.0,0.0,0.0,0.0,0.0,0.0,-0.6535,-0.8031,0.0,0.0,0.0,0.0,0.0,0.0,0.0,0.0,0.0,0.0,0.0,0.0,0.0,0.0,-0.9001,-0.9306,-0.9381,-0.9239,-0.9408,-0.9298,-0.882,-0.8755,-0.7252,-0.4508,-0.5096,0.0,-0.8275,-0.8037,0.0,0.0,0.0,0.0,0.0,0.0,0.0,0.0,0.0,0.0,0.0,0.0,0.0,0.0,0.0,0.0,0.0,0.0,0.0,0.0,0.0,-0.2965,-0.4999,-0.5047,-0.501,-0.4184,-0.2394,-0.079,0.0,0.0,0.0,0.0,0.0,0.0,0.0,0.0,0.0,0.0,0.0,0.0,0.0,0.0,0.0,-0.3155,-0.8391,-0.7787,0.0,0.0,0.0,0.0,0.0,0.0,0.0,0.0,0.0,0.0,0.0,0.0,0.0,0.0,0.0,0.0,0.0,0.0,0.0,0.0,0.0,0.0,0.0,0.0,0.0,0.0,0.0,0.0,0.0,0.0,0.0,0.0,0.0,0.0,0.0,0.0,0.0,0.0,0.0,-0.7515,-0.7607,-0.8073,-0.8364,-0.8302,0.0,0.0,0.0,0.0,0.0,0.0,0.0,0.0,0.0,-0.8764,-0.9123,-0.9347,-0.9408,-0.9625,-0.962,-0.9654,-0.9707,-0.9761,-0.9562,-0.7627,-0.6893,-0.7192,-0.5596,-0.6514,-0.9057,-0.8629,-0.6663,-0.3526,0.0,0.0,0.0,0.0,0.0,-0.4814,0.0,0.0,0.0,0.0,0.0,0.0,0.0,0.0,0.0,0.0,0.0,0.0,-0.1109,-0.5638,-0.8895,-0.8977,-0.8931,-0.7806,-0.5417,-0.3128,-0.1371,-0.0095,0.0,0.0,0.0,0.0,0.0,0.0,0.0,0.0,0.0,0.0,0.0,0.0,0.0,-0.26,-0.7184,-0.776,-0.7787,0.0,0.0,0.0,0.0,0.0,0.0,0.0,0.0,0.0,0.0,0.0,0.0,0.0,0.0,0.0,0.0,0.0,0.0,0.0,0.0,0.0,0.0,0.0,0.0,0.0,0.0,0.0,0.0,0.0,0.0,0.0,0.0,0.0,0.0,0.0,0.0,0.0,0.0,-0.8487,-0.8772,-0.8221,-0.8632,-0.8666,0.0,0.0,0.0,0.0,0.0,0.0,-0.8682,-0.889,-0.9131,-0.9374,-0.972,-0.9774,-0.9897,-1.0039,-1.0029,-0.9996,-1.0102,-1.031,-1.0337,-0.661,-0.6735,-0.9645,-0.637,-0.6906,-0.9781,-0.9332,-0.7558,-0.4951,-0.1382,0.0,-0.0527,-0.4475,-0.6835,-0.8024,0.0,0.0,0.0,0.0,0.0,0.0,0.0,0.0,0.0,0.0,0.0,-0.6015,-0.3985,-0.6629,-0.8713,-0.929,-0.8844,-0.8605,-0.8611,-0.7779,-0.5061,-0.019,0.0,0.0,0.0,0.0,0.0,0.0,0.0,0.0,0.0,0.0,0.0,0.0,0.0,-0.1767,-0.4859,-0.7089,-0.7959,-0.7863,0.0,0.0,0.0,0.0,0.0,0.0,0.0,0.0,0.0,0.0,0.0,0.0,0.0,0.0,0.0,0.0,0.0,0.0,0.0,0.0,0.0,0.0,0.0,0.0,0.0,0.0,0.0,0.0,0.0,0.0,0.0,0.0,0.0,0.0,0.0,0.0,0.0,0.0,0.0,-0.8513,-0.8981,0.0,0.0,0.0,0.0,-0.4021,-0.3817,-0.5377,-0.8931,-0.9242,-0.9529,-0.9998,-1.0187,-1.0419,-1.0663,-1.0812,-1.0833,-1.0585,-1.0697,-1.0731,-1.0538,-0.7012,-0.6976,-0.9676,-0.6606,-0.7009,-0.9817,-0.9731,-0.9334,-0.8124,-0.232,0.0,-0.0,-0.0321,-0.3604,-0.796,0.0,0.0,0.0,0.0,0.0,0.0,0.0,0.0,-0.1497,-0.5769,-0.7138,-0.7509,-0.6959,-0.803,-0.8976,-0.9448,-0.9138,-0.8948,-0.8907,-0.8568,-0.7334,-0.5036,-0.5092,-0.3548,-0.0097,0.0,0.0,0.0,0.0,0.0,0.0,0.0,0.0,0.0,0.0,-0.1673,-0.4643,-0.7393,-0.8378,-0.7936,-0.7443,-0.6062,0.0,0.0,0.0,0.0,0.0,0.0,0.0,0.0,0.0,0.0,0.0,0.0,0.0,0.0,0.0,0.0,0.0,0.0,0.0,0.0,0.0,0.0,0.0,0.0,0.0,0.0,0.0,0.0,0.0,0.0,0.0,0.0,0.0,0.0,0.0,0.0,0.0,-0.9286,-0.958,0.0,0.0,-0.5085,-0.239,-0.1385,-0.1294,-0.1812,-0.3251,-0.7596,-0.9508,-0.8333,-0.9986,-1.0989,-1.0867,-1.0921,-1.0894,-1.0652,-1.0744,-1.0638,-1.0584,-0.696,-0.4666,-0.3606,-0.4677,-0.7056,-1.0109,-0.9869,-0.9639,-0.8896,-0.2536,0.0,0.0,0.0,-0.3664,-0.862,0.0,0.0,0.0,0.0,0.0,0.0,0.0,0.0,-0.1319,-0.502,-0.6894,-0.7987,-0.8329,-0.8656,-0.9026,-0.9321,-0.9167,-0.9015,-0.8872,-0.8695,-0.7965,-0.6498,-0.5666,-0.4502,-0.2697,-0.091,0.0,0.0,0.0,0.0,0.0,0.0,0.0,0.0,0.0,-0.1651,-0.4501,-0.7574,-0.8659,-0.816,-0.7717,-0.7323,-0.6656,0.0,0.0,0.0,0.0,0.0,0.0,0.0,0.0,0.0,0.0,0.0,0.0,0.0,0.0,0.0,0.0,0.0,0.0,0.0,0.0,0.0,0.0,0.0,0.0,0.0,0.0,0.0,0.0,0.0,0.0,0.0,0.0,0.0,0.0,0.0,-0.9278,-0.9717,-0.9943,-0.9784,-0.9084,-0.4561,-0.1219,-0.0124,0.0,0.0,0.0,-0.4338,-0.6748,-0.6733,-0.9678,-1.1165,-1.1043,-1.0982,-1.0766,-1.0672,-1.0744,-1.0638,-1.0598,-0.7,-0.3479,-0.0133,-0.3523,-0.6832,-1.0122,-1.0019,-0.9856,-0.9125,-0.2614,0.0,0.0,0.0,-0.253,-0.6157,0.0,0.0,0.0,0.0,0.0,0.0,0.0,0.0,-0.0937,-0.3643,-0.6096,-0.7714,-0.797,-0.8445,-0.8838,-0.913,-0.9022,-0.8872,-0.8723,-0.8309,-0.679,-0.4013,-0.154,-0.2603,-0.7615,-0.2854,-0.0208,0.0,0.0,0.0,0.0,0.0,0.0,0.0,0.0,-0.149,-0.4249,-0.7498,-0.8776,-0.8452,-0.8011,-0.7738,-0.7485,0.0,0.0,0.0,0.0,0.0,0.0,0.0,0.0,0.0,0.0,0.0,0.0,0.0,0.0,0.0,0.0,0.0,0.0,0.0,0.0,0.0,0.0,0.0,0.0,0.0,0.0,0.0,0.0,0.0,0.0,0.0,0.0,0.0,-0.8025,-0.8895,-0.9571,-0.9799,-1.0191,-1.0169,-0.9526,-0.6665,-0.3495,-0.0263,0.0,0.0,0.0,0.0,-0.1689,-0.5263,-0.903,-1.1094,-1.1344,-1.1036,-1.0766,-1.0672,-1.0744,-1.0638,-1.0598,-0.6996,-0.3461,-0.0132,-0.341,-0.6717,-0.9857,-1.0066,-0.9992,-0.9142,-0.254,0.0,0.0,0.0,0.0,-0.0818,0.0,0.0,0.0,0.0,0.0,0.0,0.0,0.0,-0.0937,-0.3643,-0.6525,-0.8261,-0.8234,-0.8608,-0.8994,-0.9293,-0.8981,-0.8804,-0.8872,-0.8289,-0.592,-0.1274,0.0,0.0,-0.2294,-0.4579,-0.3893,0.0,0.0,0.0,0.0,0.0,0.0,0.0,0.0,-0.149,-0.4249,-0.7277,-0.8622,-0.8628,-0.8391,-0.8119,-0.7821,0.0,0.0,0.0,0.0,0.0,0.0,0.0,0.0,0.0,0.0,0.0,0.0,0.0,0.0,0.0,0.0,0.0,0.0,0.0,0.0,0.0,0.0,0.0,0.0,0.0,0.0,0.0,0.0,0.0,0.0,0.0,0.0,-0.9677,-0.8811,-0.9863,-1.0805,-1.0842,-1.0767,-1.0645,-1.0392,-0.7231,-0.3761,-0.0268,0.0,0.0,0.0,0.0,-0.1666,-0.5331,-0.6438,-0.8347,-1.1023,-1.0975,-1.0887,-1.0632,-1.0738,-1.0765,-1.0571,-0.7053,-0.3428,-0.0132,-0.3466,-0.6719,-0.985,-0.9821,-0.989,-0.9148,-0.2567,0.0,0.0,0.0,0.0,-0.0807,0.0,0.0,0.0,0.0,0.0,0.0,0.0,0.0,-0.0956,-0.3663,-0.6509,-0.8363,-0.8474,-0.8628,-0.8866,-0.9171,-0.8838,-0.8601,-0.8567,-0.7101,-0.5415,0.0,0.0,-0.4282,-0.3335,-0.4164,-0.3148,0.0,0.0,0.0,0.0,0.0,0.0,-0.0104,-0.2398,-0.3641,-0.4154,-0.7275,-0.8541,-0.8615,-0.8655,-0.8526,-0.8378,-0.811,-0.7855,-0.7164,-0.2995,-0.396,-0.7127,-0.6483,0.0,0.0,0.0,0.0,0.0,0.0,0.0,0.0,0.0,0.0,0.0,0.0,0.0,0.0,0.0,0.0,0.0,0.0,0.0,0.0,0.0,0.0,0.0,0.0,-0.7569,-1.0113,-0.9741,-1.0433,-1.102,-1.0955,-1.0994,-1.0941,-1.0657,-0.7477,-0.3934,-0.0272,0.0,0.0,0.0,0.0,-0.2348,-0.7422,-0.7617,-0.8654,-1.0826,-1.0752,-1.0819,-1.0751,-1.0731,-1.0591,-1.0452,-0.6999,-0.3393,0.0,-0.3417,-0.6772,-0.9771,-0.9754,-0.9849,0.0,0.0,0.0,0.0,0.0,0.0,-0.0459,0.0,0.0,0.0,0.0,0.0,0.0,0.0,0.0,-0.0829,-0.3213,-0.6133,-0.8129,-0.8554,-0.8547,-0.8587,-0.8866,-0.8621,-0.8343,-0.7959,-0.5738,0.0,-0.7059,-0.3126,-0.2831,-0.7018,-0.2466,0.0,0.0,0.0,0.0,0.0,0.0,0.0,-0.0202,-0.5564,-0.6676,-0.4634,-0.7437,-0.8611,-0.8506,-0.8798,-0.8913,-0.8872,-0.8276,-0.8007,-0.7632,-0.4726,-0.5353,-0.7458,-0.6804,0.0,0.0,0.0,0.0,0.0,0.0,0.0,0.0,0.0,0.0,0.0,0.0,0.0,0.0,0.0,0.0,0.0,0.0,0.0,0.0,0.0,0.0,0.0,0.0,-0.5522,-1.0026,-1.0579,-1.0753,-1.0747,-1.0738,-1.0873,-1.0921,-1.0839,-0.7952,-0.4324,-0.0274,0.0,0.0,0.0,0.0,0.0,0.0,0.0,-1.0719,-1.0677,-1.0665,-1.0731,-1.0751,-1.0731,-1.0531,-1.0169,-0.722,-0.4002,-0.0755,-0.3635,-0.6731,-0.9781,-0.9842,-0.9829,-0.9464,-0.5762,-0.2582,0.0,0.0,0.0,0.0,0.0,0.0,0.0,0.0,0.0,0.0,0.0,0.0,-0.015,-0.0726,-0.5015,-0.8008,-0.814,-0.837,-0.8506,-0.8567,-0.8411,-0.8139,-0.7772,-0.7434,-0.5513,-0.1709,-0.4746,-0.4888,-0.1651,-0.051,0.0,0.0,0.0,0.0,0.0,0.0,0.0,-0.0202,-0.5564,-0.7704,-0.729,-0.8183,-0.8611,-0.8499,-0.8682,-0.8757,-0.8743,-0.8662,-0.7068,-0.4771,-0.4184,-0.2974,-0.2386,-0.6857,-0.4926,-0.0525,-0.0102,0.0,0.0,0.0,0.0,0.0,0.0,0.0,0.0,0.0,0.0,0.0,0.0,0.0,0.0,0.0,0.0,0.0,0.0,0.0,0.0,0.0,-0.5506,-1.0029,-1.0637,-1.0685,-1.0866,-1.1361,-1.1226,-1.1233,-1.1375,-1.0419,-0.6948,-0.054,0.0,0.0,0.0,0.0,0.0,-0.203,-0.7694,-1.0672,-1.0665,-1.0744,-1.0724,-1.0724,0.0,0.0,-1.0411,-0.9645,-0.7439,-0.403,-0.4595,-0.6794,-0.9781,-0.9842,-0.9781,-0.9219,-0.3259,-0.0609,0.0,0.0,0.0,0.0,0.0,0.0,0.0,0.0,0.0,0.0,0.0,0.0,0.0,0.0,-0.4565,-0.7872,-0.7805,-0.795,-0.797,-0.8038,-0.7902,-0.7855,-0.7733,-0.776,-0.6085,-0.2208,-0.3327,-0.2739,-0.0102,0.0,0.0,0.0,0.0,0.0,-0.0104,-0.275,-0.2526,-0.0202,-0.5708,-0.8208,-0.8228,-0.8499,-0.8608,-0.8608,-0.8764,-0.8669,-0.8602,-0.8723,-0.7816,-0.6041,-0.3033,-0.1093,-0.044,-0.3477,-0.448,-0.3963,-0.0967,0.0,0.0,0.0,0.0,0.0,0.0,0.0,0.0,0.0,0.0,0.0,0.0,0.0,0.0,0.0,0.0,-0.5527,-0.083,0.0,0.0,0.0,-0.2779,-0.6284,-1.0161,-1.0725,-1.0799,-1.1156,-1.0982,-1.1009,-1.1163,-1.09,-0.7728,-0.0537,0.0,0.0,0.0,0.0,0.0,0.0,-0.5235,-0.8873,-1.0618,-1.0731,-1.0717,-1.0717,-1.0643,-1.0534,-1.0405,-1.029,-0.8357,-0.4857,-0.4937,-0.6775,-0.9781,-0.9842,-0.9808,-0.9284,-0.4422,-0.1426,0.0,0.0,0.0,0.0,0.0,0.0,0.0,0.0,0.0,0.0,0.0,0.0,0.0,0.0,-0.3938,-0.6776,-0.685,-0.7105,-0.7414,-0.7543,-0.7468,-0.7529,0.0,-0.768,-0.6558,-0.4114,-0.141,0.0,0.0,0.0,0.0,0.0,0.0,0.0,-0.0107,-0.5601,-0.5833,-0.1941,-0.6411,-0.8446,-0.8481,-0.8615,-0.871,-0.8608,-0.8811,-0.8682,-0.8595,-0.8669,-0.8797,-0.8304,-0.3413,-0.0985,0.0,0.0,-0.3186,-0.6333,-0.1538,0.0,0.0,0.0,0.0,0.0,0.0,0.0,0.0,0.0,0.0,0.0,0.0,0.0,-0.7826,-0.8289,-0.815,-0.6664,-0.2356,-0.0699,0.0,0.0,0.0,-0.2519,-0.9753,-0.946,-0.9146,-1.0492,-1.067,-1.071,-1.0632,-1.0652,-0.767,-0.0536,0.0,0.0,0.0,0.0,0.0,0.0,-0.2814,-0.6435,-1.0632,-1.0738,-1.0704,-1.0677,-1.0555,-1.0405,-1.0236,-1.0287,-0.8386,-0.4916,-0.5536,-0.7393,-0.9761,-0.9842,-0.9815,-0.9418,-0.6169,-0.29,0.0,0.0,0.0,0.0,0.0,0.0,0.0,0.0,0.0,0.0,0.0,0.0,0.0,0.0,-0.2104,-0.3578,-0.3591,-0.5703,-0.7251,-0.7387,-0.7502,0.0,-0.7801,-0.7872,-0.6742,-0.4117,-0.141,0.0,0.0,0.0,0.0,0.0,0.0,0.0,-0.0107,-0.6071,-0.8428,-0.7886,-0.8394,-0.8598,-0.8611,-0.8648,-0.871,-0.8703,-0.8687,-0.8714,-0.8797,-0.8314,-0.8431,-0.8793,-0.8136,-0.4537,0.0,0.0,-0.0427,-0.0858,-0.0218,0.0,0.0,0.0,0.0,0.0,0.0,0.0,-0.0095,-0.0395,-0.4307,-0.8099,0.0,0.0,-0.7446,-0.8247,-0.9106,-0.9104,-0.7369,-0.3187,0.0,0.0,0.0,-0.2548,-0.963,-0.515,-0.3517,-0.999,-1.0645,-1.0758,-1.0724,-1.0638,-0.7665,-0.0535,0.0,0.0,0.0,0.0,0.0,0.0,-0.0402,-0.3882,-1.0665,-1.0744,-1.0656,-1.0651,-1.0637,-1.0479,-1.008,-1.0496,-0.8516,-0.5042,-0.8022,-0.9503,-0.9829,-0.9822,-0.9686,-0.9228,-0.6111,-0.2877,0.0,0.0,0.0,0.0,0.0,0.0,0.0,0.0,0.0,0.0,0.0,0.0,0.0,0.0,-0.0796,-0.2244,-0.4681,-0.6039,-0.6837,-0.6966,-0.7197,0.0,-0.7672,-0.7845,-0.6759,-0.4117,-0.141,0.0,0.0,0.0,0.0,0.0,0.0,0.0,-0.0105,-0.4299,-0.7258,-0.8891,-0.8687,-0.8749,-0.8776,-0.8879,-0.892,-0.8845,-0.8749,-0.8642,-0.8348,-0.8118,-0.818,-0.8383,-0.8751,-0.7108,0.0,0.0,-0.2315,0.0,0.0,0.0,0.0,0.0,0.0,0.0,0.0,0.0,0.0,0.0,-0.1701,-0.4276,-0.7897,-0.8414,-0.8231,-0.8705,-0.9052,-0.9216,-0.9123,-0.403,0.0,0.0,0.0,-0.1076,-0.4044,-0.1886,-0.2682,-0.9877,-1.0704,-1.0717,-1.0717,-1.0683,-0.772,-0.0534,0.0,0.0,0.0,0.0,0.0,0.0,0.0,-0.3481,-1.0672,-1.0751,-1.0643,-1.0753,-1.0541,-1.039,-1.0177,-1.0143,-0.8195,-0.5042,-0.8401,-0.9754,-0.9815,-0.9854,-0.9765,-0.9537,-0.8305,-0.4593,0.0,0.0,0.0,0.0,0.0,0.0,0.0,0.0,0.0,0.0,0.0,0.0,0.0,0.0,0.0,-0.1367,-0.5033,-0.6109,-0.6579,-0.6627,0.0,0.0,0.0,-0.7841,-0.6819,-0.4117,-0.1409,0.0,0.0,0.0,0.0,0.0,0.0,0.0,-0.0106,-0.3065,-0.6042,-0.8878,-0.8858,-0.8845,-0.8989,-0.9229,-0.913,-0.9001,-0.951,-0.9057,-0.8144,-0.8046,-0.7999,-0.8028,-0.8505,-0.8355,0.0,0.0,-0.4859,-0.1938,-0.2143,-0.2161,-0.1871,-0.0416,0.0,0.0,0.0,0.0,0.0,0.0,0.0,-0.1155,-0.5442,-0.7997,-0.9321,-0.9161,-0.9093,-0.8696,-0.7396,-0.3177,0.0,0.0,0.0,0.0,0.0,0.0,-0.2651,-0.9789,-1.0588,-1.0464,-1.0733,-1.0699,-0.8465,-0.3074,-0.1058,0.0,0.0,0.0,0.0,0.0,0.0,-0.3472,-1.0598,-1.0683,-1.0692,-1.0763,-1.027,-1.0134,-1.0115,-0.993,-0.8022,-0.5042,-0.8401,-0.9727,-0.9754,-0.9779,-0.9689,-0.9614,-0.9774,-0.6298,-0.1136,-0.0337,0.0,0.0,0.0,0.0,0.0,0.0,0.0,0.0,0.0,0.0,0.0,0.0,0.0,0.0,0.0,-0.5096,-0.6335,0.0,0.0,0.0,0.0,-0.7773,-0.6819,-0.4114,-0.1406,0.0,0.0,0.0,0.0,0.0,0.0,0.0,-0.0112,-0.3124,-0.6033,-0.8883,-0.9096,-0.9144,-0.915,-0.9306,-0.9286,-0.9356,-1.099,-1.0485,-0.8549,-0.8185,-0.8007,-0.8015,-0.798,0.0,0.0,0.0,-0.6968,-0.6974,-0.7561,-0.7767,0.0,-0.157,0.0,0.0,0.0,0.0,0.0,0.0,0.0,-0.0,-0.0238,-0.5694,-1.0465,-0.9943,-0.9741,-0.7803,-0.1499,-0.0126,0.0,0.0,0.0,0.0,0.0,0.0,-0.2621,-0.9907,-1.0148,-1.0035,0.0,-1.0711,-1.0346,-0.9558,-0.3576,0.0,0.0,0.0,0.0,0.0,0.0,-0.3455,-1.0685,-1.0651,-1.0749,-1.071,-1.0059,-0.9848,-0.9829,-0.9761,-0.8022,-0.5042,-0.8401,-0.9674,-0.9618,-0.9737,-0.9559,-0.9284,-0.9674,-0.763,-0.4027,-0.1121,0.0,0.0,0.0,0.0,0.0,0.0,0.0,0.0,0.0,0.0,0.0,0.0,0.0,0.0,0.0,0.0,0.0,0.0,0.0,0.0,0.0,-0.7674,-0.7644,-0.6707,0.0992,0.5327,0.5264,0.1846,0.0,0.0,0.0,0.0,-0.0108,-0.3134,-0.6098,-0.8866,-0.8967,-0.9062,-0.9157,-0.9205,-0.9759,-1.0691,-1.1304,-1.188,-1.1897,-0.9097,-0.7601,-0.7119,0.0,0.0,0.0,0.0,-0.6819,-0.6643,-0.719,-0.7155,-0.5931,-0.1312,-0.221,-0.4051,-0.0809,0.0,0.0,0.0,0.0,0.0,0.0,-0.5211,-0.9992,-0.9849,-0.9751,-0.7808,-0.1194,0.0,0.0,0.0,0.0,0.0,0.0,0.0,-0.2511,-0.9257,-0.9909,0.0,0.0,0.0,0.0,-0.9802,-0.3771,0.0,0.0,0.0,0.0,0.0,-0.4652,-0.8196,-1.0678,-1.0283,-1.0116,-1.0053,-0.9944,-0.9767,-0.9632,-0.5284,-0.2699,-0.1963,-0.7398,-0.9795,-0.9724,-0.9503,-0.9218,-0.903,-0.9195,-0.7315,-0.4136,-0.1118,0.0,0.0,0.0,0.0,0.0,0.0,0.0,0.0,0.0,0.0,0.0,0.0,0.0,0.0,0.0,0.0,0.0,0.0,0.0,0.0,0.0,0.0,-0.7752,-0.7973,-0.1429,0.3851,0.7272,0.4418,0.1904,0.0,0.0,0.0,-0.0107,-0.2974,-0.5882,-0.8703,-0.8811,-0.894,-0.9076,-0.9076,-0.9846,-1.1253,-1.1666,-1.2382,-1.2989,-1.0833,-0.8777,0.0,0.0,0.0,0.0,0.0,-0.6544,-0.6401,-0.6699,-0.6688,-0.6019,-0.3298,-0.3454,-0.3934,-0.083,0.0,0.0,0.0,0.0,0.0,0.0,-0.5105,-0.9781,-0.9827,-0.962,-0.7539,-0.1148,0.0,0.0,0.0,0.0,0.0,0.0,0.0,-0.1547,-0.5793,-0.8359,0.0,0.0,0.0,0.0,-0.9793,-0.6062,-0.3886,-0.3865,-0.1334,-0.1199,-0.373,-0.8344,-1.0644,-1.0371,-0.9996,-0.9863,-0.9841,-0.9815,-0.9774,-0.9579,-0.3043,0.0,-0.0362,-0.6948,-0.9806,-0.9799,-0.9578,-0.9211,-0.895,-0.889,-0.7733,-0.5596,-0.1452,0.0,0.0,0.0,0.0,0.0,0.0,0.0,0.0,0.0,0.0,0.0,0.0,0.0,0.0,0.0,0.0,0.0,0.0,0.0,0.0,0.0,0.0,0.0,-0.7916,-0.776,-0.331,0.5752,0.7289,0.5492,0.0391,0.01,0.0,-0.0106,-0.2645,-0.5505,-0.8533,-0.8635,-0.8764,-0.8906,-0.8899,-0.9647,-1.0908,-1.2002,-1.2204,-1.2073,-1.3136,0.0,0.0,0.0,0.0,0.0,0.0,0.0,0.0,0.0,-0.6733,-0.7128,-0.7099,-0.371,0.0,0.0,0.0,0.0,0.0,0.0,0.0,0.0,-0.5025,-0.9731,-0.975,-0.9243,-0.7122,0.0,0.0,0.0,0.0,0.0,0.0,0.0,0.0,0.0,0.0,0.0,0.0,0.0,0.0,0.0,-0.9806,0.0,-1.0168,-1.0215,-0.3689,-0.3286,-1.0437,-1.0692,-1.0392,-0.9797,-0.979,-0.9834,-0.9808,-0.9799,-0.9751,-0.954,-0.2994,0.0,-0.0351,-0.6931,-0.9717,-0.9738,-0.9738,-0.942,-0.894,-0.885,-0.8876,-0.8208,-0.2234,0.0,0.0,0.0,0.0,0.0,0.0,0.0,0.0,0.0,0.0,0.0,0.0,0.0,0.0,0.0,0.0,0.0,0.0,0.0,0.0,0.0,0.0,0.0,0.0,0.0,0.0,0.0,0.0,0.0,0.5979,0.1998,0.0,-0.0,-0.0704,-0.3522,-0.8106,-0.8438,-0.8529,-0.8647,-0.8852,-0.9116,-0.9611,0.0,-1.3362,-1.4752,0.0,0.0,0.0,0.0,0.0,0.0,0.0,0.0,0.0,0.0,-0.6953,-0.7099,-0.7089,-0.3723,0.0,0.0,0.0,0.0,0.0,0.0,0.0,0.0,-0.5025,-0.9634,-0.9196,-0.868,-0.7673,0.0,0.0,0.0,0.0,0.0,0.0,0.0,0.0,0.0,0.0,0.0,-0.9843,-0.9862,-1.0236,0.0,0.0,-0.5631,-0.2687,-0.271,-0.1032,-0.3097,-0.9877,-1.0035,-0.9916,-0.9797,-0.9808,-0.9808,-0.9786,-0.9751,-0.9564,-0.8883,-0.2823,0.0,-0.035,-0.6485,-0.9136,-0.915,-0.9384,-0.93,-0.894,-0.8947,-0.885,-0.819,-0.223,0.0,0.0,0.0,0.0,0.0,0.0,0.0,0.0,0.0,0.0,0.0,0.0,0.0,0.0,0.0,0.0,0.0,0.0,0.0,0.0,0.0,0.0,0.0,0.0,0.0,0.0,0.0,0.0,0.0,0.0,0.0,0.0,0.0,0.0,-0.1608,-0.4589,-0.7,-0.8151,-0.807,-0.8299,0.0,0.0,0.0,0.0,0.0,0.0,0.0,0.0,0.0,0.0,0.0,0.0,0.0,-0.6322,-0.6668,-0.7067,-0.7536,-0.7479,0.0,0.0,0.0,0.0,0.0,0.0,0.0,0.0,0.0,-0.4882,-0.9252,-0.8639,-0.8026,0.0,0.0,0.0,0.0,0.0,0.0,0.0,0.0,0.0,0.0,0.0,-0.3317,0.0,-0.9525,-1.0351,-1.0749,0.0,-0.6787,-0.4351,-0.424,-0.1532,-0.3054,-0.9596,-0.9777,-0.981,-0.9821,-0.9741,-0.9754,-0.9856,-0.9544,-0.9202,-0.8845,-0.549,-0.2437,-0.0343,0.0,-0.8941,-0.8943,-0.9062,-0.9126,-0.894,-0.894,-0.8954,-0.8517,-0.5135,-0.223,0.0,0.0,0.0,0.0,0.0,0.0,0.0,0.0,0.0,0.0,0.0,0.6037,0.0,0.0,0.0,0.0,0.0,0.0,0.0,0.0,0.0,0.0,0.0,0.0,0.0,0.0,0.0,0.0,0.0,0.0,0.0,0.0,0.0,0.0,0.0,0.0,0.0,0.0,0.0,0.0,0.0,0.0,0.0,0.0,0.0,0.0,0.0,0.0,0.0,0.0,0.0,-0.6857,-0.6415,-0.6415,-0.7176,-0.8048,-0.7972,-0.4205,0.0,0.0,0.0,0.0,0.0,0.0,0.0,0.0,-0.4042,-0.7712,-0.7905,0.0,-0.7088,-0.7101,-0.7523,-0.6128,-0.0822,0.0,0.0,0.0,0.0,0.0,0.0,-0.0759,-0.3529,-0.9385,-1.0392,-1.0656,-1.0679,-1.0169,-0.9398,-0.8481,-0.3038,-0.3013,-0.9574,-0.9824,-0.9744,-0.9822,-0.9822,-0.9741,-0.9822,-0.9202,-0.8941,-0.8924,-0.8865,-0.5631,-0.0334,0.0,0.0,-0.894,-0.894,-0.894,-0.894,-0.894,-0.8954,-0.8856,-0.8947,-0.5575,-0.1115,0.0,0.0,0.0,0.0,0.0,0.0,0.0,0.0,0.0,0.0,0.5918,0.5045,0.0,0.0,0.0,0.0,0.0,0.0,0.0,0.0,0.0,0.0,0.0,0.0,0.0,0.0,0.0,0.0,0.0,0.0,0.0,0.0,0.0,0.0,0.0,0.0,0.0,0.0,0.0,0.0,0.0,0.0,0.0,0.0,0.0,0.0,0.0,0.0,0.0,0.0,-0.7426,-0.6917,-0.6917,-0.7415,-0.7985,-0.7982,-0.4213,0.0,0.0,0.0,0.0,0.0,0.0,0.0,0.0,-0.0757,0.0,0.0,0.0,-0.7126,-0.7126,-0.7156,0.0,-0.0834,0.0,0.0,0.0,0.0,0.0,0.0,0.0,0.0,0.0,0.0,0.0,0.0,0.0,0.0,-0.1971,-0.0614,-0.3069,-0.9652,-0.9761,-0.9856,-0.9822,-0.9822,-0.9806,-0.9778,-0.9155,-0.8889,-0.8876,-0.8924,-0.5669,-0.0333,0.0,0.0,-0.894,-0.894,-0.894,-0.894,-0.894,-0.894,-0.8933,-0.8934,-0.8194,-0.6695,0.0,0.0,0.0,0.0,0.0,0.0,0.0,0.5587,0.6213,0.6414,0.5268,0.452,0.4722,0.0083,-0.3948,0.0,0.0,0.0,0.0,0.0,0.0,0.0,0.0,0.0,0.0,0.0,0.0,0.0,0.0,0.0,0.0,0.0,0.0,0.0,0.0,0.0,0.0,0.0,0.0,0.0,0.0,0.0,0.0,0.0,0.0,0.0,0.0,0.0,0.0,0.0,-0.7594,-0.7633,-0.7939,-0.7992,-0.7991,-0.8027,-0.4236,0.0,0.0,0.0,0.0,0.0,0.0,0.0,0.0,0.0,0.0,0.0,0.0,-0.7065,-0.7065,0.0,0.0,0.0,0.0,0.0,0.0,0.0,0.0,0.0,0.0,0.0,0.0,0.0,0.0,0.0,0.0,0.0,-0.5324,-0.5158,-0.6494,-0.9727,-0.9836,-0.9822,-0.9822,-0.9747,-0.9842,-0.9743,-0.9178,-0.8917,-0.8947,-0.8878,-0.7483,-0.5222,-0.7838,0.0,-0.893,-0.893,-0.893,-0.893,-0.893,-0.889,-0.8933,-0.8872,-0.8673,-0.8054,0.0,0.0,0.0,0.0,0.0,0.0,0.0,0.5591,0.6579,0.692,0.527,0.4497,0.5536,0.2248,-0.1346,0.0,0.0,0.0,0.0,0.0,0.0,0.0,0.0,0.0,0.0,0.0,0.0,0.0,0.0,0.0,0.0,0.0,0.0,0.0,0.0,0.0,0.0,0.0,0.0,0.0,0.0,0.0,0.0,0.0,0.0,0.0,0.0,0.0,0.0,0.0,-0.7413,-0.7896,-0.8503,-0.8393,-0.8032,-0.8033,-0.5066,-0.1677,-0.0347,0.0,0.0,0.0,0.0,0.0,0.0,-0.3707,0.0,0.0,-0.7129,-0.7109,-0.7143,0.0,0.0,0.0,0.0,0.0,0.0,0.0,0.0,0.0,0.0,0.0,0.0,0.0,0.0,0.0,0.0,0.0,-0.9771,-0.9787,-0.9849,-0.9849,-0.9802,-0.9774,-0.9774,-0.9758,-0.9724,-0.9571,-0.9091,-0.8845,-0.8947,-0.8871,-0.9209,-0.9632,-0.911,0.0,0.0,-0.9004,-0.9123,-0.903,-0.8997,-0.8923,-0.8933,-0.8899,-0.8582,-0.8276,0.0,0.0,0.0,0.0,0.0,0.0,0.0,0.662,0.6902,0.727,0.7214,0.6178,0.3688,0.1368,-0.0175,0.0,0.0,0.0,0.0,0.0,0.0,0.0,0.0,0.0,0.0,0.0,0.0,0.0,0.0,0.0,0.0,0.0,0.0,0.0,0.0,0.0,0.0,0.0,0.0,0.0,0.0,0.0,0.0,0.0,0.0,0.0,0.0,0.0,0.0,0.0,0.0,-0.7244,-0.7908,-0.8007,-0.8018,-0.8039,0.0,0.0,-0.1481,0.0,0.0,0.0,0.0,0.0,0.0,0.0,0.0,-0.7121,-0.7128,-0.7087,-0.7143,-0.7068,0.0,0.0,0.0,-0.496,0.0,0.0,0.0,0.0,0.0,0.0,0.0,0.0,0.0,0.0,0.0,0.0,0.0,-0.9829,-0.9822,-0.9822,-0.982,-0.9751,-0.9751,-0.9842,-0.9564,-0.8937,-0.8924,-0.8845,-0.8947,-0.8858,-0.8957,-0.8947,0.0,0.0,0.0,-0.9475,-0.9727,-0.961,-0.9126,-0.8954,-0.892,-0.8893,-0.8825,-0.8809,0.0,0.0,0.0,0.0,0.0,0.0,0.662,0.662,0.6771,0.7516,0.778,0.681,0.3964,0.1417,0.0,0.0,0.0,0.0,0.0,0.0,0.0,0.0,0.0,0.0,0.0,0.0,0.0,0.0,0.0,0.0,0.0,0.0,0.0,0.0,0.0,0.0,0.0,0.0,0.0,0.0,0.0,0.0,0.0,0.0,0.0,0.0,0.0,0.0,0.0,0.0,0.0,0.0,-0.7347,-0.7263,0.0,0.0,-0.8153,-0.7163,-0.1565,0.0,0.0,0.0,0.0,0.0,0.0,0.0,-0.7112,-0.7139,-0.7083,-0.7011,-0.6642,-0.4561,-0.374,0.0,0.0,0.0,0.0,0.0,0.0,0.0,0.0,0.0,0.0,0.0,0.0,0.0,0.0,0.0,0.0,-0.9781,-0.9781,-0.982,-0.9765,-0.9564,-0.9235,-0.9205,-0.9097,-0.8917,-0.895,-0.8883,-0.894,-0.8883,-0.8876,-0.894,0.0,0.0,0.0,-0.9596,-0.9624,-0.9273,-0.901,-0.8903,-0.8933,-0.8872,-0.8886,-0.8933,0.0,0.0,0.0,0.0,0.0,0.5755,0.6563,0.6489,0.6702,0.757,0.7855,0.6905,0.4261,0.1621,0.0,0.0,0.0,0.0,0.0,0.0,0.0,0.0,0.0,0.0,0.0,0.0,0.0,0.0,0.0,0.0,0.0,0.0,0.0,0.0,0.0,0.0,0.0,0.0,0.0,0.0,0.0,0.0,0.0,0.0,0.0,0.0,0.0,0.0,0.0,0.0,0.0,0.0,0.0,0.0,0.0,0.0,-0.7892,-0.6862,-0.1407,0.0,0.0,0.0,0.0,0.0,0.0,0.0,-0.6866,-0.7049,-0.6958,-0.6746,-0.6402,-0.2872,-0.1111,-0.442,0.0,-0.3857,0.0,0.0,0.0,0.0,0.0,0.0,0.0,0.0,0.0,0.0,0.0,0.0,0.0,-0.9652,-0.9646,-0.9787,-0.9621,-0.9305,-0.8954,-0.8931,-0.8858,-0.8858,-0.8876,-0.894,-0.894,-0.894,-0.894,-0.894,0.0,0.0,0.0,-0.9504,-0.9412,-0.8941,-0.8917,-0.891,-0.894,-0.894,-0.894,-0.894,0.0,0.0,0.0,0.0,0.0,0.0,0.6276,0.6512,0.6858,0.7319,0.7609,0.6756,0.4273,0.1586,0.0,0.0,0.0,0.0,0.0,0.0,0.0,0.0,0.0,0.0,0.0,0.0,-0.4721,0.0,0.0,0.0,0.0,0.0,0.0,0.0,0.0,0.0,0.0,0.0,0.0,0.0,0.0,0.0,0.0,0.0,0.0,0.0,0.0,0.0,0.0,0.0,0.0,0.0,0.0,0.0,-0.643,0.0,-0.751,-0.6805,-0.1439,0.0,0.0,0.0,0.0,0.0,0.0,0.0,-0.6467,-0.7028,-0.6702,-0.6287,-0.6319,-0.2843,-0.0,-0.0086,-0.0091,0.0,0.0,0.0,0.0,0.0,0.0,0.0,0.0,0.0,0.0,0.0,0.0,0.0,0.0,-0.9278,-0.9149,-0.9743,-0.9239,-0.8924,-0.8917,-0.8897,-0.894,-0.894,-0.894,-0.894,-0.894,-0.894,-0.894,0.0,0.0,0.0,0.0,-0.9572,-0.9489,-0.8904,-0.8883,-0.894,-0.894,-0.894,-0.894,-0.894,0.0,0.0,0.0,0.0,0.0,0.0,0.0,0.6179,0.6478,0.7129,0.7101,0.684,0.6461,0.2616,0.0,0.0,0.3002,0.0,0.0,0.0,0.0,0.0,0.0,0.0,0.0,0.0,-0.6329,-0.4811,-0.1619,0.0,0.0,0.0,0.0,0.0,0.0,0.0,0.0,0.0,0.0,0.0,0.0,0.0,0.0,0.0,0.0,0.0,0.0,0.0,0.0,0.0,0.0,0.0,0.0,0.0,0.0,-0.6505,-0.6943,-0.6328,-0.1379,0.0,0.0,0.0,0.0,0.0,0.0,0.0,-0.6441,-0.6965,-0.6645,-0.6276,-0.6291,-0.2867,0.0,0.0,0.0,0.0,0.0,0.0,0.0,0.0,0.0,0.0,0.0,0.0,0.0,0.0,0.0,0.0,0.0,-0.901,-0.899,-0.9225,-0.8944,-0.8937,-0.8852,-0.892,-0.8953,-0.8849,-0.8845,-0.8893,-0.89,-0.8893,0.0,0.0,0.0,0.0,0.0,-0.9113,-0.9022,-0.8904,-0.8883,-0.894,-0.894,-0.894,-0.894,-0.894,0.0,0.0,0.0,0.0,0.0,0.0,0.0,0.6084,0.6349,0.6763,0.6728,0.6919,0.7362,0.4551,0.1943,0.0185,0.2708,0.0,0.0,0.0,0.0,0.0,0.0,0.0,0.0,-0.5773,-0.6833,-0.6814,-0.4058,-0.1796,0.0,0.0,0.0,-0.0172,0.0,0.0,0.0,0.0,0.0,0.0,0.0,0.0,-0.7143,0.0,0.0,0.0,0.0,0.0,0.0,0.0,0.0,0.0,0.0,0.0,0.0,0.0,-0.6576,-0.5802,0.0,0.0,0.0,0.0,0.0,0.0,0.0,0.0,-0.641,-0.672,-0.651,-0.6283,-0.6324,-0.2879,-0.0593,-0.2378,-0.2675,0.0,0.0,0.0,0.0,0.0,0.0,0.0,0.0,0.0,0.0,0.0,0.0,0.0,0.0,0.0,-0.8899,-0.8899,-0.8954,-0.8899,-0.8932,-0.8655,-0.8574,-0.8591,-0.8528,-0.871,-0.8939,-0.8872,0.0,0.0,0.0,0.0,0.0,-0.8863,-0.8876,-0.8943,-0.8863,-0.894,-0.894,-0.894,-0.894,-0.894,0.0,0.0,0.0,0.0,0.0,0.0,0.0,0.6166,0.6403,0.6295,0.6572,0.6827,0.7101,0.7073,0.5184,0.0461,0.0,0.0,0.0,0.0,0.0,0.0,0.0,0.0,0.0,-0.4108,-0.6329,-0.63,-0.6828,-0.4674,0.0,0.0,0.0,-0.018,-0.4491,0.0,0.0,0.0,0.0,0.0,0.0,-0.7143,0.0,0.0,0.0,0.0,0.0,0.0,0.0,0.0,0.0,0.0,0.0,0.0,0.0,0.0,0.0,0.0,0.0,0.0,0.0,0.0,0.0,-0.1125,0.0,0.0,0.0,0.0,-0.6263,-0.6172,-0.5897,-0.2608,-0.156,-0.6288,-0.7072,0.0,0.0,0.0,0.0,0.0,0.0,0.0,0.0,0.0,0.0,0.0,0.0,0.0,0.0,0.0,-0.8808,-0.8808,-0.8828,-0.879,-0.879,-0.8322,-0.8027,-0.802,-0.7955,-0.8353,-0.8904,-0.8859,0.0,0.0,0.0,0.0,0.0,-0.892,-0.892,-0.892,-0.8933,-0.894,-0.894,-0.894,-0.894,-0.894,0.0,0.0,0.0,0.0,0.0,0.0,0.0,0.0,0.0,0.0,0.6329,0.6603,0.7034,0.7101,0.5165,0.0,0.0,0.0,0.0,0.0,0.0,0.0,0.0,0.0,0.008,-0.4126,-0.6256,-0.6321,-0.6832,-0.4708,0.0,0.0,0.0,-0.0184,-0.48,-0.6919,0.0,0.0,0.0,0.0,-0.7129,-0.7143,0.0,0.0,0.0,0.0,-0.7107,-0.7122,0.0,0.0,0.0,0.0,0.0,0.0,0.0,0.0,-0.6565,-0.5878,-0.1236,0.0,0.0,0.0,0.0,-0.1119,0.0,0.0,0.0,0.0,0.0,-0.5317,-0.2068,-0.0679,-0.1557,-0.6362,-0.7141,0.0,0.0,0.0,0.0,0.0,0.0,0.0,0.0,0.0,0.0,0.0,0.0,0.0,0.0,0.0,-0.819,-0.8157,-0.8203,-0.817,-0.8163,-0.802,-0.8051,-0.8046,-0.7982,-0.8367,-0.8924,-0.8879,0.0,0.0,0.0,0.0,-0.8927,-0.8939,-0.8879,-0.8886,-0.8893,-0.894,-0.894,-0.894,-0.894,-0.894,0.0,0.0,0.0,0.0,0.0,0.0,0.0,0.0,0.0,0.0,0.0,0.5667,0.4018,0.382,0.0,0.0,0.0,0.0,0.0,0.0,0.0,0.0,0.0,0.2301,0.0082,-0.2215,-0.444,-0.6697,-0.4762,-0.2485,0.0,0.0,0.0,-0.0094,-0.2721,-0.5073,0.0,0.0,0.0,0.0,-0.7143,0.0,0.0,0.0,0.0,0.0,-0.7054,-0.7081,0.0,-0.7375,-0.7334,-0.7067,0.0,0.0,0.0,0.0,-0.6538,-0.5713,-0.1224,0.0,0.0,0.0,0.0,-0.1202,-0.5667,0.0,0.0,0.0,0.0,0.0,-0.3669,0.0,0.0,0.0,0.0,0.0,0.0,0.0,0.0,0.0,0.0,0.0,0.0,0.0,0.0,0.0,0.0,0.0,0.0,0.0,-0.8001,-0.7981,-0.8004,-0.7998,-0.7955,-0.7991,-0.8019,-0.8045,-0.7955,-0.8343,-0.8918,-0.8587,0.0,0.0,0.0,0.0,-0.8499,-0.8501,-0.8662,-0.8946,-0.8879,-0.894,-0.894,-0.894,-0.894,-0.894,0.0,0.0,0.0,0.0,0.0,0.0,0.0,0.0,0.0,0.0,0.0,0.0,0.0,0.0,0.0,0.0,0.0,0.0,0.0,0.0,0.0,0.0,0.0,0.0,0.0,0.0,-0.196,-0.6002,-0.1986,0.0,0.0,0.0,0.0,0.0,0.0,-0.2685,0.0,0.0,0.0,0.0,-0.7088,0.0,0.0,0.0,0.0,0.0,0.0,0.0,0.0,-0.7834,-0.761,-0.7067,-0.7094,0.0,0.0,0.0,0.0,0.0,-0.1155,0.0,0.0,0.0,0.0,-0.1208,-0.6014,0.0,0.0,0.0,0.0,0.0,0.0,0.0,0.0,0.0,0.0,0.0,0.0,0.0,0.0,0.0,0.0,0.0,0.0,0.0,0.0,0.0,0.0,0.0,0.0,0.0,0.0,-0.7972,-0.7952,-0.8006,-0.8024,-0.8006,-0.8038,-0.8038,-0.7985,-0.8255,-0.8765,-0.819,-0.8243,0.0,0.0,0.0,-0.8144,-0.8081,-0.8356,-0.8946,-0.8879,-0.894,-0.894,-0.894,-0.894,-0.894,0.0,0.0,0.0,0.0,0.0,0.0,0.0,0.0,0.0,0.0,0.0,0.0,0.0,0.0,0.0,0.0,0.0,0.0,0.0,0.0,0.0,0.7034,0.2459,0.0,0.0,0.0,-0.0367,-0.107,-0.0383,0.0,0.0,0.0,0.0,0.0,0.0,-0.2655,-0.7099,0.0,0.0,-0.7054,-0.7054,0.0,0.0,0.0,0.0,0.0,0.0,0.0,0.0,-0.7834,-0.761,-0.7067,-0.7094,0.0,0.0,0.0,0.0,0.0,-0.1139,0.0,0.0,0.0,0.0,-0.1232,0.0,0.0,0.0,0.0,0.0,0.0,0.0,0.0,0.0,0.0,0.0,0.0,0.0,0.0,0.0,0.0,0.0,0.0,0.0,0.0,0.0,0.0,0.0,0.0,0.0,0.0,0.0,-0.7872,-0.7972,-0.7972,-0.7972,-0.7952,-0.8038,-0.8038,-0.7985,-0.8093,-0.8085,-0.804,-0.8027,0.0,0.0,-0.8323,-0.8742,-0.8157,-0.8395,-0.8946,-0.8879,-0.894,-0.894,-0.894,-0.894,-0.894,0.0,0.0,0.0,0.0,0.0,0.0,0.0,0.0,0.0,0.0,0.0,0.0,0.0,0.0,0.0,0.0,0.0,0.0,0.0,0.0,0.0,0.3417,0.1204,0.0,0.0,0.0,0.0,0.0,0.0,0.0,0.0,0.0,0.0,0.0,0.0,-0.2618,-0.7156,-0.7416,-0.7588,-0.7588,0.0,0.0,0.0,0.0,0.0,0.0,0.0,0.0,0.0,0.0,-0.7334,-0.7067,-0.7094,0.0,0.0,0.0,0.0,0.0,-0.0566,0.0,0.0,0.0,0.0,-0.0551,0.0,0.0,0.0,0.0,0.0,0.0,0.0,0.0,0.0,0.0,0.0,0.0,0.0,0.0,0.0,0.0,0.0,0.0,0.0,0.0,0.0,0.0,0.0,0.0,0.0,0.0,0.0,0.0,-0.7965,-0.8052,-0.8038,-0.8038,-0.8038,-0.8038,-0.8012,-0.8006,-0.8045,-0.7971,-0.7965,-0.8045,0.0,-0.8166,-0.8392,-0.8513,-0.8648,-0.8946,-0.8879,-0.894,-0.894,-0.894,-0.894,-0.894,0.0,0.0,0.0,0.0,0.0,0.0,0.0,0.0,0.0,0.0,0.0,0.0,0.0,0.0,0.0,0.0,0.0,0.0,0.0,0.0,0.5629,0.0193,0.0,0.0,0.0,0.0,0.0,0.0,0.0,0.0,0.0,0.0,0.0,0.0,0.0,-0.2769,-0.7311,-0.7767,-0.8037,-0.7942,0.0,0.0,0.0,0.0,0.0,0.0,0.0,0.0,0.0,0.0,0.0,0.0,0.0,0.0,0.0,-0.6454,-0.3282,0.0,0.0,0.0,0.0,0.0,0.0,0.0,0.0,0.0,0.0,0.0,0.0,0.0,0.0,0.0,0.0,0.0,0.0,0.0,0.0,0.0,0.0,0.0,0.0,0.0,0.0,0.0,0.0,0.0,0.0,0.0,0.0,0.0,0.0,0.0,-0.7959,-0.8045,-0.8045,-0.8045,-0.8038,-0.8038,-0.8038,-0.8038,-0.8038,-0.8038,-0.8038,-0.8045,-0.7958,-0.8044,-0.802,-0.8673,-0.8918,-0.8886,-0.8893,-0.894,-0.894,-0.894,-0.894,-0.894,0.0,0.0,0.0,0.0,0.0,0.0,0.0,0.0,0.0,0.0,0.0,0.0,0.0,0.0,0.0,0.0,0.0,0.0,0.0,0.0,0.5588,0.019,0.0,0.0,0.0,0.0,0.0,0.0,0.0,0.0,0.0,0.0,0.0,0.0,0.0,-0.2925,-0.7959,-0.8014,-0.7994,-0.798,-0.7361,0.0,0.0,0.0,0.0,0.0,0.0,0.0,0.0,0.0,0.0,0.0,0.0,0.0,-0.7025,-0.643,-0.3316,0.0,0.0,0.0,0.0,0.0,0.0,0.0,0.0,0.0,0.0,0.0,0.0,0.0,0.0,0.0,0.0,0.0,0.0,0.0,0.0,0.0,0.0,0.0,0.0,0.0,0.0,0.0,0.0,0.0,0.0,0.0,0.0,0.0,0.0,0.0,0.0,-0.8052,-0.7972,-0.8052,-0.8038,-0.8038,-0.8038,-0.8038,-0.8038,-0.8038,-0.8038,-0.8038,-0.7952,-0.8004,-0.8033,-0.8703,-0.889,-0.892,-0.8933,-0.894,-0.894,-0.894,-0.894,-0.894,0.0,0.0,0.0,0.0,0.0,0.0,0.0,0.0,0.0,0.0,0.0,0.0,0.0,0.0,0.0,0.0,0.0,0.0,0.0,0.7275,0.6671,0.5032,0.1742,0.0,0.0,0.0,0.0,0.0,0.0,0.0,0.0,0.0,0.0,0.0,0.0,-0.2974,-0.7997,-0.797,-0.7957,-0.795,-0.7791,-0.7528,0.0,0.0,0.0,0.0,0.0,0.0,0.0,0.0,-0.6994,-0.7074,-0.7081,-0.7101,-0.7091,-0.6844,-0.3568,0.0,0.0,0.0,0.0,0.0,0.0,0.0,0.0,0.0,0.0,0.0,0.0,0.0,0.0,0.0,0.0,0.0,0.0,0.0,0.0,0.0,0.0,0.0,0.0,0.0,0.0,0.0,0.0,0.0,0.0,0.0,0.0,0.0,0.0,0.0,0.0,-0.4602,-0.7952,-0.8045,-0.8038,-0.8038,-0.8038,-0.8038,-0.8038,-0.8038,-0.8038,-0.8038,-0.8038,-0.7998,-0.8046,-0.8696,-0.8883,-0.894,-0.894,-0.894,-0.894,-0.894,-0.894,-0.894,0.0,0.0,0.0,0.0,0.0,0.0,0.0,0.0,0.0,0.0,0.0,0.0,0.0,0.0,0.0,0.0,0.0,0.0,0.4639,0.6268,0.727,0.7726,0.2801,0.0,0.0,0.0,0.0,0.0,0.0,0.0,0.0,0.0,-0.0905,-0.2513,-0.2504,-0.461,-0.7972,-0.8052,-0.8038,-0.8038,-0.7885,-0.7621,0.0,0.0,0.0,0.0,0.0,0.0,0.0,0.0,-0.6927,-0.6845,-0.6174,-0.6518,-0.7076,-0.7119,-0.3745,0.0,0.0,0.0,0.0,0.0,0.0,0.0,0.0,0.0,0.0,0.0,0.0,0.0,0.0,0.0,0.0,0.0,0.0,0.0,0.0,0.0,0.0,0.0,0.0,0.0,0.0,0.0,0.0,0.0,0.0,0.0,0.0,0.0,0.0,0.0,0.0,-0.4307,-0.7959,-0.8045,-0.8038,-0.8038,-0.8038,-0.8038,-0.8038,-0.8045,-0.8052,-0.8052,-0.8052,-0.8011,-0.8059,-0.8703,-0.8883,-0.8947,-0.8876,-0.8863,-0.8947,-0.8876,-0.889,-0.8883,0.0,0.0,0.0,0.0,0.0,0.0,0.0,0.0,0.0,0.0,0.0,0.0,0.0,0.0,0.0,0.0,0.0,0.0,0.0,0.4457,0.7065,0.7132,0.253,0.0,0.0,0.0,0.0,0.0,0.0,0.0,-0.0,-0.0101,-0.2917,-0.7992,-0.7979,-0.7972,-0.7972,-0.8052,-0.8038,-0.8024,-0.7778,-0.763,-0.7584,0.0,0.0,0.0,0.0,0.0,0.0,0.0,-0.6767,-0.6356,-0.4259,-0.5201,-0.7012,-0.7041,-0.3656,0.0,0.0,0.0,0.0,0.0,0.0,0.0,0.0,0.0,0.0,0.0,0.0,0.0,0.0,0.0,0.0,0.0,0.0,0.0,0.0,0.0,0.0,0.0,0.0,0.0,0.0,0.0,0.0,0.0,0.0,0.0,0.0,0.0,0.0,0.0,0.0,0.0,-0.7992,-0.7959,-0.8038,-0.8038,-0.8038,-0.8038,-0.8038,-0.7965,-0.7972,-0.7972,-0.7972,-0.8031,-0.8078,-0.8604,-0.8883,-0.8954,-0.8864,-0.8943,-0.8954,-0.8864,-0.8917,-0.8897,0.0,0.0,0.0,0.0,0.0,0.0,0.0,0.0,0.0,0.0,0.0,0.0,0.0,0.0,0.0,0.0,0.0,0.0,0.0,0.444,0.7073,0.7141,0.2535,0.0,0.0,0.0,0.0,0.0,0.0,0.0,-0.0101,-0.3875,-0.6433,-0.7979,-0.7965,-0.8046,-0.8052,-0.8045,-0.8038,-0.8038,-0.7905,-0.7841,-0.7611,0.0,0.0,0.0,0.0,0.0,0.0,0.0,0.0,0.0,-0.1787,-0.1509,-0.21,-0.2138,-0.1093,0.0,0.0,0.0,0.0,0.0,0.0,0.0,0.0,0.0,0.0,0.0,0.0,0.0,0.0,0.0,0.0,0.0,0.0,0.0,0.0,0.0,0.0,0.0,0.0,0.0,0.0,0.0,0.0,0.0,0.0,0.0,0.0,0.0,0.0,0.0,0.0,0.0,-0.7979,-0.7965,-0.7952,-0.8038,-0.8038,-0.8045,-0.7965,-0.7972,-0.5932,-0.2607,-0.6316,-0.8014,-0.8098,-0.8615,-0.8859,-0.894,-0.887,-0.9203,-0.9514,-0.9099,-0.889,-0.8994,0.0,0.0,0.0,0.0,0.0,0.0,0.0,0.0,0.0,0.0,0.0,0.0,0.0,0.0,0.0,0.0,0.0,0.0,0.0,0.5189,0.6783,0.6812,0.4238,0.197,0.0,0.0,0.0,0.0,0.0,-0.11,-0.3218,-0.6737,-0.8275,-0.8172,-0.8099,-0.7945,-0.7851,-0.7851,-0.7851,-0.795,-0.7872,-0.7834,-0.7617,0.0,0.0,0.0,0.0,0.0,0.0,0.0,0.0,0.0,-0.0984,0.0,0.0,0.0,0.0,0.0,0.0,0.0,0.0,0.0,0.0,0.0,0.0,0.0,0.0,0.0,0.0,0.0,0.0,0.0,0.0,0.0,0.0,0.0,0.0,0.0,0.0,0.0,0.0,0.0,0.0,0.0,0.0,0.0,0.0,0.0,0.0,0.0,0.0,0.0,0.0,0.0,-0.4826,-0.6959,-0.7972,-0.7959,-0.7959,-0.7972,-0.7892,-0.5832,-0.3007,-0.0301,-0.5892,-0.8327,-0.8414,-0.8709,-0.894,-0.8947,-0.889,-0.9106,-0.9404,-0.9001,-0.891,-0.8903,0.0,0.0,0.6056,0.6288,0.0,0.0,0.0,0.0,0.0,0.0,0.2974,0.0,0.0,0.0,0.0,0.0,0.0,0.0,0.0,0.0,0.6299,0.6325,0.6375,0.4457,0.0093,0.0,0.0,0.0,0.0,-0.2771,-0.7992,-0.8607,-0.8692,-0.8457,-0.8099,-0.7892,-0.7711,-0.7711,-0.7704,-0.7794,-0.7724,-0.774,-0.7409,-0.4643,0.0,0.0,0.0,0.0,0.0,0.0,0.0,0.0,-0.1339,0.0,0.0,0.0,0.0,0.0,0.0,0.0,0.0,0.0,0.0,0.0,0.0,0.0,0.0,0.0,0.0,0.0,0.0,0.0,0.0,0.0,0.0,0.0,0.0,0.0,0.0,0.0,0.0,0.0,0.0,0.0,0.0,0.0,0.0,0.0,0.0,0.0,0.0,0.0,0.0,0.0,0.0,-0.5035,-0.7679,0.0,-0.7679,-0.7792,-0.7818,-0.2408,0.0,-0.0303,-0.6297,-0.8864,-0.8857,-0.8934,-0.894,-0.8954,-0.8851,-0.8937,-0.8954,-0.8851,-0.8897,-0.8884,0.0,0.0,0.4294,0.6019,0.0,0.0,0.0,0.0,0.0,0.0,0.0,0.0,0.0,0.0,0.0,0.0,0.0,0.0,0.0,0.0,0.6647,0.6582,0.3358,0.102,0.0,0.0,0.0,0.0,0.0,-0.2771,-0.7992,-0.8092,-0.8179,-0.8151,-0.7991,-0.7892,-0.7807,-0.7807,-0.7753,-0.776,-0.7882,-0.7907,-0.7396,-0.2695,-0.2345,0.0,0.0,0.0,0.0,0.0,0.0,0.0,-0.1436,0.0,0.0,0.0,0.0,0.0,0.0,0.0,0.0,0.0,0.0,0.0,0.0,0.0,0.0,0.0,0.0,0.0,0.0,0.0,0.0,0.0,0.0,0.0,0.0,0.0,0.0,0.0,0.0,0.0,0.0,0.0,0.0,0.0,0.0,0.0,0.0,0.0,0.0,0.0,0.0,0.0,0.0,-0.3221,-0.4834,0.0,-0.4826,-0.5952,-0.7818,-0.2414,0.0,-0.0309,-0.5798,-0.8495,-0.8925,-0.8872,-0.894,-0.894,-0.8863,-0.8856,-0.894,-0.8863,-0.887,-0.8883,0.0,0.0,0.0,0.0,0.0,0.0,0.0,0.0,0.0,0.0,0.0,0.0,0.0,0.0,0.0,0.0,0.0,0.0,0.0,0.0,0.6695,0.6668,0.2361,0.0,0.0,0.0,0.0,0.0,0.0,-0.2059,0.0,-0.7403,-0.8004,-0.8045,-0.8099,-0.7959,-0.7712,-0.7712,-0.7638,-0.7423,-0.6386,-0.6746,-0.7448,-0.2013,-0.1525,-0.3951,-0.6282,0.0,0.0,0.0,0.0,0.0,0.0,0.0,0.0,0.0,0.0,0.0,0.0,0.0,0.0,0.0,0.0,0.0,0.0,0.0,0.0,0.0,0.0,0.0,0.0,0.0,0.0,0.0,0.0,0.0,0.0,0.0,0.0,0.0,0.0,0.0,0.0,0.0,0.0,0.0,0.0,0.0,0.0,0.0,0.0,0.0,0.0,0.0,0.0,-0.1411,-0.2723,-0.4031,-0.5253,-0.6687,-0.7837,-0.2421,0.0,-0.0204,-0.2914,-0.5941,-0.8883,-0.8907,-0.8899,-0.8856,-0.8947,-0.8947,-0.8843,-0.8843,-0.8947,-0.885,0.0,0.0,0.0,0.0,0.0,0.0,0.0,0.0,0.0,0.0,0.0,0.0,0.0,0.0,0.0,0.0,0.0,0.0,0.0,0.0,0.0,0.6764,0.2787,0.0379,0.0,0.0,0.0,0.0,0.0,0.0,0.0,0.0,-0.8007,-0.8045,-0.8147,-0.797,-0.7597,-0.757,-0.7489,-0.7093,-0.4584,-0.4771,-0.6162,-0.1716,-0.1251,0.0,-0.6075,-0.7102,-0.6834,-0.4835,0.0,0.0,0.0,0.0,0.0,0.0,0.0,0.0,0.0,0.0,0.0,0.0,0.0,0.0,0.0,0.0,0.0,0.0,0.0,0.0,0.0,0.0,0.0,0.0,0.0,0.0,0.0,0.0,0.0,0.0,0.0,0.0,0.0,0.0,0.0,0.0,0.0,0.0,0.0,0.0,0.0,0.0,0.0,0.0,0.0,0.0,-0.1112,-0.3338,-0.5583,-0.6608,-0.6507,-0.2021,0.0,0.0,0.0,-0.2817,-0.734,-0.7362,-0.7938,-0.8745,-0.782,-0.8048,-0.8863,-0.887,-0.8282,-0.7487,0.0,0.0,0.0,0.0,0.0,0.0,0.0,0.0,0.0,0.0,0.6299,0.0,0.0,0.0,0.0982,0.3357,0.3498,0.4339,0.6172,0.0,0.0,0.708,0.4522,0.2145,0.0,0.0,0.0,0.0,0.0,0.0,0.0,0.0,0.0,-0.8031,0.0,-0.7773,-0.759,-0.7455,-0.7333,-0.6943,-0.4576,-0.2576,-0.0967,-0.0268,0.0,0.0,0.0,0.0,-0.7039,-0.6764,-0.3639,0.0,0.0,0.0,0.0,0.0,0.0,0.0,0.0,0.0,0.0,0.0,0.0,0.0,0.0,0.0,0.0,0.0,0.0,0.0,0.0,0.0,0.0,0.0,0.0,0.0,0.0,0.0,0.0,0.0,0.0,0.0,0.0,0.0,0.0,0.0,0.0,0.0,0.0,0.0,0.0,0.0,0.0,0.0,0.0,0.0,-0.0202,-0.0505,-0.091,-0.1112,-0.1011,-0.0303,0.0,0.0,0.0,-0.0414,-0.1144,-0.118,-0.4252,-0.8375,-0.3216,-0.4349,-0.8863,-0.8883,-0.5584,-0.1892,0.0,0.0,0.0,0.0,0.0,0.0,0.0,0.0,0.0,0.0,0.0,0.3299,0.3898,0.2679,0.2115,0.3005,0.312,0.4051,0.6232,0.6505,0.6783,0.7072,0.6082,0.3842,0.0093,0.0,0.0,0.0,0.0,0.0,0.0,-0.6048,-0.8014,0.0,0.0,0.0,0.0,0.0,-0.74,-0.7012,-0.6019,-0.3367,0.0,0.0,0.0,0.0,0.0,0.0,0.0,0.0,0.0,0.0,0.0,0.0,0.0,0.0,0.0,0.0,0.0,0.0,0.0,0.0,0.0,0.0,0.0,0.0,0.0,0.0,0.0,0.0,0.0,0.0,0.0,0.0,0.0,0.0,0.0,0.0,0.0,0.0,0.0,0.0,0.0,0.0,0.0,0.0,0.0,0.0,0.0,0.0,0.0,0.0,0.0,0.0,0.0,0.0,0.0,0.0,0.0,0.0,0.0,0.0,0.0,0.0,0.0,0.0,0.0,0.0,-0.1513,-0.3613,-0.0998,-0.1562,-0.4355,-0.7644,-0.5142,-0.0335,0.0,0.0,0.0,0.0,0.0,0.0,0.0,0.0,0.0,0.0,0.0,0.181,0.6608,0.0,0.0,0.0,0.3553,0.4648,0.6331,0.6451,0.6627,0.6893,0.7075,0.5458,0.1907,0.0649,0.0,0.0,0.0,0.0,-0.0095,-0.4106,-0.6349,0.0,-0.6936,0.0,0.0,0.0,0.0,0.0,0.0,-0.423,0.0,0.0,0.0,0.0,0.0,0.0,0.0,0.0,0.0,0.0,0.0,0.0,0.0,0.0,0.0,0.0,0.0,0.0,0.0,0.0,0.0,0.0,0.0,0.0,0.0,0.0,0.0,0.0,0.0,0.0,0.0,0.0,0.0,0.0,0.0,0.0,0.0,0.0,0.0,0.0,0.0,0.0,0.0,0.0,0.0,0.0,0.0,0.0,0.0,0.0,0.0,0.0,0.0,0.0,0.0,0.0,0.0,0.0,0.0,0.0,0.0,0.0,0.0,0.0,0.0,0.0,0.0,0.0,0.0,0.0,-0.0559,-0.5046,-0.3804,0.0,0.0,0.0,0.0,0.0,0.0,0.0,0.0,0.0,0.0,0.0,0.0,0.181,0.6608,0.7007,0.5761,0.2979,0.4784,0.621,0.6274,0.6396,0.6485,0.6505,0.6888,0.0,0.674,0.231,0.0,0.0,0.0,0.0,-0.0,-0.0286,-0.1753,-0.4246,-0.4256,-0.4164,-0.4269,0.0,0.0,0.0,0.0,-0.4222,0.0,0.0,0.0,0.0,0.0,0.0,0.0,0.0,0.0,0.0,0.0,0.0,0.0,0.0,0.0,0.0,0.0,0.0,0.0,0.0,0.0,0.0,0.0,0.0,0.0,0.0,0.0,0.0,0.0,0.0,0.0,0.0,0.0,0.0,0.0,0.0,0.0,0.0,0.0,0.0,0.0,0.0,0.0,0.0,0.0,0.0,0.0,0.0,0.0,0.0,0.0,0.0,0.0,0.0,0.0,0.0,0.0,0.0,0.0,0.0,0.0,0.0,0.0,0.0,0.0,0.0,0.0,0.0,0.0,0.0,-0.0,-0.0336,-0.0224,0.0,0.0,0.0,0.0,0.0,0.0,0.0,0.0,0.0,0.0,0.0,0.0,0.0,0.0,0.5741,0.6157,0.509,0.5708,0.6166,0.6254,0.6308,0.6424,0.6614,0.6729,0.6892,0.7102,0.3916,0.0,0.0,0.0,0.0,0.0,0.0,-0.048,-0.1462,-0.1387,-0.148,-0.1451,-0.2185,0.0,0.0,-0.3809,-0.1546,0.0,0.0,0.0,0.0,0.0,0.0,0.0,0.0,0.0,0.0,0.0,0.0,0.0,0.0,0.0,0.0,0.0,0.0,0.0,0.0,0.0,0.0,0.0,0.0,0.0,0.0,0.0,0.0,0.0,0.0,0.0,0.0,0.0,0.0,0.0,0.0,0.0,0.0,0.0,0.0,0.0,0.0,0.0,0.0,0.0,0.0,0.0,0.0,0.0,0.0,0.0,0.0,0.0,0.0,0.0,0.0,0.0,0.0,0.0,0.0,0.0,0.0,0.0,0.0,0.0,0.0,0.0,0.0,0.0,0.0,0.0,0.0,0.0,0.0,0.0,0.0,0.0,0.0,0.0,0.0,0.0,0.0,0.0,0.0,0.0,0.0,0.0,0.0,0.6276,0.6288,0.6125,0.6071,0.6179,0.6274,0.6396,0.6546,0.6695,0.6878,0.7007,0.0,0.0,0.0,0.0,0.0,0.0,0.0,0.0,0.0,0.0,0.0,0.0,0.0,0.0,-0.4475,0.0,0.0,0.0,0.0,0.0,0.0,0.0,0.0,0.0,0.0,0.0,0.0,0.0,0.0,0.0,0.0,0.0,0.0,0.0,0.0,0.0,0.0,0.0,0.0,0.0,0.0,0.0,0.0,0.0,0.0,0.0,0.0,0.0,0.0,0.0,0.0,0.0,0.0,0.0,0.0,0.0,0.0,0.0,0.0,0.0,0.0,0.0,0.0,0.0,0.0,0.0,0.0,0.0,0.0,0.0,0.0,0.0,0.0,0.0,0.0,0.0,0.0,0.0,0.0,0.0,0.0,0.0,0.0,0.0,0.0,0.0,0.0,0.0,0.0,0.0,0.0,0.0,0.0,0.0,0.0,0.0,0.0,0.0,0.0,0.0,0.0,0.0,0.0,0.0,0.0,0.0,0.6315,0.6139,0.6044,0.6051,0.6322,0.6417,0.6288,0.6695,0.6847,0.6774,0.0,0.0,0.0,0.0,0.0,0.0,0.0,0.0,0.0,0.0,0.0,0.0,0.0,0.0,0.0,0.0,0.0,0.0,0.0,0.0,0.0,0.0174,0.3175,0.0,0.0,0.0,0.0,0.0,0.0,0.0,0.0,0.0,0.0,0.0,0.0,0.0,0.0,0.0,0.0,0.0,0.0,0.0,0.0,0.0,0.0,0.0,0.0,0.0,0.0,0.0,0.0,0.0,0.0,0.0,0.0,0.0,0.0,0.0,0.0,0.0,0.0,0.0,0.0,0.0,0.0,0.0,0.0,0.0,0.0,0.0,0.0,0.0,0.0,0.0,0.0,0.0,0.0,0.0,0.0,0.0,0.0,0.0,0.0,0.0,0.0,0.0,0.0,0.0,0.0,0.0,0.0,0.0,0.0,0.0,0.0,0.0,0.0,0.6892,0.0,0.0,0.0,0.0,0.0,0.0,0.0,0.6471,0.658,0.6437,0.6396,0.6505,0.6593,0.6668,0.6742,0.6865,0.698,0.6994,0.0,0.0,0.0,0.0,0.0,0.0,0.0,0.0,0.0,0.0,0.0,0.0,0.0,0.0,0.0,0.0,0.0,0.0,0.0,0.0,0.0,0.0,0.602,0.0,0.0,0.6074,0.5583,0.0,0.0,0.0,0.0,0.0,0.0,0.0,0.0,0.0,0.0,0.0,0.0,0.0,0.0,0.0,0.0,0.0,0.0,0.0,0.0,0.0,0.0,0.0,0.0,0.0,0.0,0.0,0.0,0.0,0.0,0.0,0.0,0.0,0.0,0.0,0.0,0.0,0.0,0.0,0.0,0.0,0.0,0.0,0.0,0.0,0.0,0.0,0.0,0.0,0.0,0.0,0.0,0.0,0.0,0.0,0.0,0.0,0.0,0.0,0.0,0.0,0.0,0.0,0.0,0.0,0.0,0.7396,0.7768,0.0,0.7974,0.7729,0.7846,0.7694,0.0,0.0,0.0,0.0,0.0,0.6675,0.6702,0.662,0.6607,0.6695,0.6763,0.6837,0.6926,0.6987,0.7088,0.7231,0.0,0.0,0.0,0.0,0.0,0.0,0.0,0.0,0.0,0.0,0.0,0.0,0.0,0.0,0.0,0.0,0.0,0.0,0.0,0.0,0.0,0.0,0.0,0.5874,0.649,0.6681,0.0,0.0,0.0,0.0,0.0,0.0,0.0,0.0,0.0,0.0,0.0,0.0,0.0,0.0,0.0,0.0,0.0,0.0,0.0,0.0,0.0,0.0,0.0,0.0,0.0,0.0,0.0,0.0,0.0,0.0,0.0,0.0,0.0,0.0,0.0,0.0,0.0,0.0,0.0,0.0,0.0,0.0,0.0,0.0,0.0,0.0,0.0,0.0,0.0,0.0,0.0,0.0,0.0,0.0,0.0,0.0,0.0,0.0,0.0,0.0,0.0,0.0,0.0,0.0,0.0,0.0,0.0,0.7667,0.8769,0.9144,0.9204,0.897,0.9178,0.8844,0.0,0.0,0.0,0.0,0.0,0.0,0.0,0.6756,0.6749,0.6749,0.6878,0.6953,0.6953,0.7075,0.7204,0.7346,0.7224,0.0,0.0,0.0,0.0,0.0,0.0,0.0,0.0,0.0,0.0,0.0,0.0,0.0,0.0,0.0,0.0,0.0,0.0,0.037,0.0,0.351,0.415,0.429,0.6355,0.6936,0.0,0.0,0.0,0.0,0.0,0.3437,0.0,0.0,0.0,0.0,0.0,0.0,0.0,0.0,0.0,0.0,0.0,0.0,0.0,0.0,0.0,0.0,0.0,0.0,0.0,0.0,0.0,0.0,0.0,0.0,0.0,0.0,0.0,0.0,0.0,0.0,0.0,0.0,0.0,0.0,0.0,0.0,0.0,0.0,0.0,0.0,0.0,0.0,0.0,0.0,0.0,0.0,0.0,0.0,0.0,0.0,0.0,0.0,0.0,0.0,0.0,0.0,0.0,0.0,0.0,0.7143,0.7163,0.7567,0.8999,0.9229,0.9289,0.94,0.9443,0.9015,0.0,0.0,0.0,0.0,0.0,0.0,0.0,0.7129,0.7054,0.7054,0.7082,0.7102,0.7102,0.7129,0.7156,0.7183,0.7278,0.7382,0.0,0.0,0.0,0.0,0.0,0.0,0.0,0.0,0.0,0.0,0.0,0.0,0.0,0.0,0.0,0.0,0.0,0.2385,0.5822,0.6268,0.524,0.4028,0.0,0.6756,0.6592,0.0,0.0,0.0,0.0,0.0,0.0,0.0,0.0,0.0,0.0,0.0,0.0,0.0,0.0,0.0,0.0,0.0,0.0,0.0,0.0,0.0,0.0,0.0,0.0,0.0,0.0,0.0,0.0,0.0,0.0,0.0,0.0,0.0,0.0,0.0,0.0,0.0,0.0,0.0,0.0,0.0,0.0,0.0,0.0,0.0,0.0,0.0,0.0,0.0,0.0,0.0,0.0,0.0,0.0,0.0,0.0,0.0,0.0,0.0,0.0,0.0,0.0,0.0,0.0,0.717,0.7706,0.8623,0.9966,1.077,1.1101,1.0557,1.0594,0.9888,0.0,0.0,0.0,0.0,0.0,0.0,0.0,0.0,0.7143,0.7143,0.7143,0.7143,0.7143,0.7143,0.721,0.7366,0.7448,0.7489,0.7588,0.0,0.0,0.0,0.0,0.0,0.0,0.0,0.0,0.0,0.0,0.0,0.0,0.0,0.0,0.0274,0.2648,0.5003,0.7052,0.6782,0.5976,0.5292,0.6573,0.6885,0.0,0.0,0.6688,0.6573,0.0,0.6437,0.6485,0.0,0.0,0.0,0.0244,0.0,0.0,0.0,0.1685,0.0,0.0,0.0,0.0,0.0,0.0,0.0,0.0,0.0,0.0,0.0,0.0,0.0,0.0,0.0,0.0,0.0,0.0,0.0,0.0,0.0,0.0,0.0,0.0,0.0,0.0,0.0,0.0,0.0,0.0,0.0,0.0,0.0,0.0,0.0,0.0,0.0,0.0,0.0,0.0,0.0,0.0,0.0,0.0,0.0,0.0,0.0,0.0,0.0,0.0,0.7546,0.8411,0.9666,1.121,1.2428,1.2848,1.1721,1.1667,1.0875,0.0,0.0,0.0,0.0,0.0,0.0,0.0,0.0,0.0,0.0,0.0,0.7503,0.7531,0.7245,0.7258,0.7509,0.757,0.7624,0.7685,0.0,0.0,0.0,0.0,0.0,0.0,0.0,0.0,0.0,0.0,0.0,0.1264,0.0,0.0539,0.1799,0.5605,0.7058,0.7025,0.6599,0.6525,0.6672,0.6893,0.0,0.6865,0.6742,0.6783,0.0,0.0,0.0,0.0,0.0,0.0,0.0,0.0,0.0,0.1614,0.0,0.0,0.0,0.0172,0.0,0.0,0.0,0.0,0.0,0.0,0.0,0.0,0.0,0.0,0.0,0.0,0.0,0.0,0.0,0.0,0.0,0.0,0.0,0.0,0.0,0.0,0.0,0.0,0.0,0.0,0.0,0.0,0.0,0.0,0.0,0.0,0.0,0.0,0.0,0.0,0.0,0.0,0.0,0.0,0.0,0.0,0.0,0.0,0.0,0.0,0.0,0.0,0.8752,0.8832,0.9757,1.2462,1.3097,1.2917,1.2032,1.191,1.0947,0.0,0.0,0.0,0.0,0.0,0.0,0.0,0.0,0.0,0.9175,0.0,0.0,0.9033,0.7827,0.7156,0.719,0.7461,0.7475,0.7217,0.7489,0.0,0.0,0.0,0.0,0.0,0.0,0.0,0.0,0.0,0.241,0.0,0.1719,0.2521,0.0,0.6873,0.7135,0.7115,0.684,0.6759,0.6709,0.0,0.6742,0.6722,0.0,0.6715,0.0,0.0,0.0,0.0,0.0,0.0,0.0,0.0,0.3191,0.0,0.0,0.0,0.5132,0.0851,0.0,0.0,0.0,0.0,0.0,0.0,0.0,0.0,0.0,0.0,0.0,0.0,0.0,0.0,0.0,0.0,0.0,0.0,0.0,0.0,0.0,0.0,0.0,0.0,0.0,0.0,0.0,0.0,0.0,0.0,0.0,0.0,0.0,0.0,0.0,0.0,0.0,0.0,0.0,0.0,0.0,0.0,0.0,0.0,0.0,0.0,0.0,0.0,0.8903,1.0027,1.1529,1.296,1.3121,1.2825,1.1976,1.0583,0.9213,0.0,0.0,0.0,0.0,0.0,0.0,0.0,0.0,0.0,0.0,0.0,0.0,0.8321,0.771,0.7407,0.7407,0.7536,0.7577,0.7529,0.7495,0.7461,0.0,0.0,0.0,0.0,0.0,0.0,0.4109,0.0,0.0,0.0,0.0,0.0,0.0,0.6585,0.7021,0.684,0.6753,0.6647,0.6471,0.0,0.6702,0.0,0.0,0.0,0.0,0.0,0.0,0.0,0.0,0.0,0.0,0.0,0.0,0.0,0.0,0.0,0.2809,0.0,0.0,0.0,0.0,0.0,0.0,0.0,0.0,0.0,0.0,0.0,0.0,0.0,0.0,0.0,0.0,0.0,0.0,0.0,0.0,0.0,0.0,0.0,0.0,0.0,0.0,0.0,0.0,0.0,0.0,0.0,0.0,0.0,0.0,0.0,0.0,0.0,0.0,0.0,0.0,0.0,0.0,0.0,0.0,0.0,0.0,0.0,0.0,0.0,0.9749,0.0,0.0,0.0,0.0,1.2629,1.1589,0.9469,0.0,0.0,0.0,0.0,0.8038,0.9104,0.0,0.0,0.0,1.1116,0.0,0.0,0.9435,0.0,0.7785,0.0,0.0,0.0,0.7631,0.7692,0.7475,0.7434,0.0,0.0,0.0,0.0,0.0,0.2677,0.7129,0.0,0.0,0.4683,0.6388,0.6097,0.4732,0.6435,0.6887,0.6632,0.6654,0.6478,0.6302,0.6552,0.6668,0.0,0.6749,0.0,0.0,0.0,0.0,0.0,0.7224,0.0,0.0,0.0,0.0,0.0,0.0,0.0,0.0,0.0,0.0,0.0,0.0,0.0,0.0,0.0,0.0,0.0,0.0,0.0,0.0,0.0,0.0,0.0,0.0,0.0,0.0,0.0,0.0,0.0,0.0,0.0,0.0,0.0,0.0,0.0,0.0,0.0,0.0,0.0,0.0,0.0,0.0,0.0,0.0,0.0,0.0,0.0,0.0,0.0,0.0,0.0,0.0,0.0,0.0,0.0,0.0,0.0,1.198,1.2248,0.0,0.0,0.0,0.0,0.0,0.0,0.0,0.0,0.0,0.0,0.0,0.0,0.0,0.0,0.0,1.2919,1.1813,0.0,1.0721,0.0,0.0,0.0,0.0,0.0,0.7529,0.7387,0.7373,0.7387,0.0,0.0,0.0,0.0,0.0,0.2628,0.7053,0.7105,0.7015,0.7008,0.7065,0.7094,0.6979,0.0,0.6766,0.6681,0.6532,0.0,0.0,0.643,0.658,0.0,0.0,0.0,0.0,0.0,0.0,0.0,0.0,0.0,0.0,0.0,0.0,0.0,0.0,0.0,0.6515,0.0,0.0,0.0,0.0,0.0,0.0,0.0,0.0,0.0,0.0,0.0,0.0,0.0,0.0,0.0,0.0,0.0,0.0,0.0,0.0,0.0,0.0,0.0,0.0,0.0,0.0,0.0,0.0,0.0,0.0,0.0,0.0,0.0,0.0,0.0,0.0,0.0,0.0,0.0,0.0,0.0,0.0,0.0,0.0,0.0,0.0,0.0,0.0,0.0,0.0,0.0,0.0,0.0,0.0,0.0,0.0,0.8224,0.0,0.0,0.0,0.0,0.0,0.0,1.1468,0.0,0.0,1.2822,1.0769,1.0554,0.0,0.0,0.0,0.7821,0.0,0.0,0.0,0.7658,0.0,0.0,0.0,0.0,0.0,0.0,0.0,0.4129,0.0,0.0,0.0,0.0,0.0,0.7217,0.7278,0.0,0.0,0.6681,0.6525,0.6383,0.0,0.6315,0.6498,0.6695,0.6641,0.6865,0.7122,0.7027,0.7136,0.0,0.0,0.0,0.7394,0.7495,0.0,0.0,0.0,0.0,0.0,0.0,0.0,0.0,0.0,0.0,0.0,0.0,0.0,0.0,0.0,0.0,0.0,0.0,0.0,0.0,0.0,0.0,0.0,0.0,0.0,0.0,0.0,0.0,0.0,0.0,0.0,0.0,0.0,0.0,0.0,0.0,0.0,0.0,0.0,0.0,0.0,0.0,0.0,0.0,0.0,0.0,0.0,0.0,0.0,0.0,0.0,0.0,0.0,0.0,1.3348,0.0,0.0,0.0,0.0,0.0,0.0,0.0,0.0,0.0,0.8823,0.0,1.0433,0.0,1.2961,0.0,1.3539,1.3039,1.0978,1.0393,0.0,0.7963,0.8065,0.0,0.0,0.0,0.0,0.0,0.0,0.7672,0.0,0.0,0.0,0.0,0.0,0.0,0.0,0.0,0.7121,0.0,0.0,0.7204,0.0,0.0,0.686,0.6824,0.0,0.6451,0.641,0.6356,0.6532,0.6763,0.6668,0.6865,0.7122,0.7034,0.7136,0.7299,0.736,0.7373,0.0,0.7495,0.7414,0.0,0.7489,0.0,0.0,0.0,0.0,0.0,0.0,0.0,0.0,0.0,0.0,0.0,0.0,0.7631,0.0,0.0,0.0,0.0,0.0,0.0,0.0,0.0,0.0,0.0,0.0,0.0,0.0,0.0,0.0,0.0,0.0,0.0,0.0,0.0,0.0,0.0,0.0,0.0,0.0,0.0,0.0,0.0,0.0,0.0,0.0,0.0,0.0,0.0,0.0,0.0,0.0,0.0,0.0,0.0,0.0,0.0,1.2962,0.0,0.0,0.0,0.8106,0.0,0.9729,1.0578,1.0509,1.2773,1.4359,1.4359,1.4037,0.0,1.2463,1.0979,0.0,0.0,0.8113,0.8126,0.7828,0.7821,0.0,0.0,0.0,0.0,0.0,0.0,0.0,0.0,0.7184,0.0,0.7094,0.7151,0.7118,0.7143,0.7143,0.7143,0.7149,0.7143,0.0,0.7095,0.6654,0.658,0.6675,0.6532,0.6681,0.6926,0.6926,0.7027,0.7143,0.7143,0.7143,0.717,0.7319,0.736,0.7366,0.738,0.0,0.0,0.0,0.0,0.7773,0.0,0.0,0.0,0.0,0.0,0.0,0.0,0.0,0.0,0.0,0.0,0.0,0.0,0.0,0.0,0.0,0.0,0.0,0.0,0.0,0.0,0.0,0.0,0.0,0.0,0.0,0.0,0.0,0.0,0.0,0.0,0.0,0.0,0.0,0.0,0.0,0.0,0.0,0.0,0.0,0.0,0.0,0.0,0.0,0.0,0.0,0.0,0.0,0.0,1.4883,1.5017,1.4983,0.0,1.2664,1.0612,0.0,0.0,0.0,0.0,1.031,1.1295,1.3577,1.3981,1.4568,1.566,1.3906,0.0,0.0,0.0,0.0,0.8369,0.8126,0.8073,0.7984,0.7984,0.0,0.7984,0.0,0.0,0.7977,0.0,0.0,0.0,0.0,0.0,0.7068,0.7222,0.7195,0.7143,0.7143,0.721,0.0,0.0,0.721,0.7272,0.6932,0.6763,0.6695,0.6654,0.677,0.6926,0.6926,0.7027,0.7143,0.7143,0.7143,0.7149,0.719,0.7197,0.7251,0.7482,0.7489,0.7509,0.0,0.0,0.0,0.0,0.0,0.0,0.0,0.0,0.0,0.0,0.0,0.0,0.0,0.0,0.0,0.0,0.0,0.0,0.0,0.0,0.0,0.0,0.0,0.0,0.0,0.0,0.0,0.0,0.0,0.0,0.0,0.0,0.0,0.0,0.0,0.0,0.0,0.0,0.0,0.0,0.0,0.0,0.0,0.0,0.0,0.0,0.0,0.0,0.0,0.0,0.0,0.0,1.5177,0.0,0.0,1.3273,0.0,0.0,1.0147,0.0,0.0,1.1335,1.1465,0.0,1.4389,1.4847,1.517,1.5366,1.3369,0.0,0.0,0.0,0.0,0.8491,0.8296,0.8153,0.8045,0.8038,0.0,0.8038,0.0,0.0,0.8031,0.0,0.0,0.0,0.0,0.7387,0.0,0.7333,0.7319,0.7238,0.717,0.0,0.0,0.7177,0.719,0.7251,0.7082,0.6966,0.6885,0.6824,0.6898,0.7021,0.7021,0.7075,0.7143,0.7143,0.7143,0.7143,0.7143,0.7143,0.7197,0.7441,0.7489,0.7556,0.7868,0.7923,0.7936,0.0,0.0,0.0,0.0,0.0,0.0,0.0,0.0,0.0,0.0,0.0,0.0,0.0,0.0,0.0,0.0,0.0,0.0,0.0,0.0,0.0,0.0,0.0,0.0,0.0,0.0,0.0,0.0,0.0,0.0,0.0,0.0,0.0,0.0,0.0,0.0,0.0,0.0,0.0,0.0,0.0,0.0,0.0,0.0,0.0,0.0,0.0,0.0,0.0,0.0,0.0,0.0,0.0,0.0,0.0,0.0,1.163,0.0,1.2679,0.0,1.3228,1.4295,1.5537,1.5706,1.4398,0.0,1.1688,1.1199,0.9331,0.8357,0.85,0.8529,0.8323,0.8045,0.8038,0.0,0.0,0.0,0.0,0.0,0.0,0.0,0.0,0.0,0.0,0.0,0.736,0.7339,0.0,0.719,0.7143,0.7143,0.7143,0.7143,0.7143,0.7143,0.7143,0.7122,0.7,0.7041,0.7143,0.7143,0.7143,0.7143,0.7143,0.7143,0.7143,0.7163,0.717,0.721,0.7387,0.7529,0.7665,0.7807,0.7943,0.8038,0.8038,0.8038,0.0,0.0,0.0,0.0,0.0,0.0,0.0,0.0,0.0,0.0,0.0,0.0,0.0,0.0,0.0,0.0,0.0,0.0,0.0,0.0,0.0,0.0,0.0,0.0,0.0,0.0,0.0,0.0,0.0,0.0,0.0,0.0,0.0,0.0,0.0,0.0,0.0,0.0,0.0,0.0,0.0,0.0,0.0,0.0,0.0,0.0,0.0,0.0,0.0,0.0,0.0,0.0,1.5947,1.5982,1.4037,1.2967,1.4253,1.423,0.0,1.5797,1.5853,1.5421,1.4039,1.2822,0.0,0.0,0.0,0.0,0.8867,0.8385,0.8018,0.8045,0.8038,0.8038,0.0,0.0,0.0,0.0,0.0,0.0,0.0,0.0,0.0,0.7543,0.7292,0.0,0.7177,0.7149,0.7143,0.7143,0.7143,0.7143,0.7143,0.7143,0.7143,0.7136,0.7109,0.7122,0.7143,0.7143,0.7143,0.7143,0.7143,0.7143,0.717,0.7299,0.7333,0.7394,0.7665,0.7753,0.7814,0.7963,0.8018,0.8038,0.8038,0.8038,0.8038,0.8038,0.0,0.0,0.0,0.0,0.0,0.0,0.0,0.0,0.0,0.0,0.0,0.0,0.0,0.0,0.0,0.0,0.0,0.0,0.0,0.0,0.0,0.0,0.0,0.0,0.0,0.0,0.0,0.0,0.0,0.0,0.0,0.0,0.0,0.0,0.0,0.0,0.0,0.0,0.0,0.0,0.0,0.0,0.0,0.0,0.0,0.0,0.0,0.0,0.0,0.0,0.0,0.0,1.5591,0.0,1.6024,1.5129,1.4898,1.6188,1.6005,1.5045,1.3006,1.2439,1.1372,0.9579,0.8779,0.8394,0.8385,0.813,0.0,0.8045,0.8038,0.8038,0.8038,0.0,0.0,0.0,0.0,0.0,0.0,0.0,0.7597,0.0,0.0,0.0,0.7258,0.7258,0.721,0.7143,0.7143,0.7143,0.7143,0.7143,0.7143,0.7143,0.7143,0.7143,0.7143,0.7143,0.7143,0.7143,0.7143,0.7143,0.7177,0.7326,0.7373,0.7441,0.774,0.7814,0.7848,0.8004,0.8038,0.8038,0.8038,0.8038,0.8038,0.8038,0.8038,0.0,0.0,0.0,0.0,0.0,0.0,0.0,0.0,0.0,0.0,0.0,0.0,0.0,0.0,0.0,0.0,0.0,0.0,0.0,0.0,0.0,0.0,0.0,0.0,0.0,0.0,0.0,0.0,0.0,0.0,0.0,0.0,0.0,0.0,0.0,0.0,0.0,0.0,0.0,0.0,0.0,0.0,0.0,0.0,0.0,1.5925,0.0,0.0,1.5882,0.0,1.5749,1.6755,1.7462,1.7101,1.572,1.5208,1.6095,1.5965,1.4758,1.2145,1.2043,1.107,0.8473,0.8276,0.8203,0.811,0.8073,0.8117,0.7992,0.8085,0.8072,0.0,0.0,0.0,0.0,0.0,0.0,0.0,0.0,0.0,0.0,0.0,0.7502,0.7421,0.7421,0.7346,0.7231,0.7204,0.721,0.7231,0.7204,0.719,0.719,0.719,0.717,0.7143,0.7143,0.7143,0.7143,0.7443,0.7361,0.7231,0.7773,0.7738,0.7529,0.7794,0.7862,0.7889,0.8011,0.8038,0.8038,0.8038,0.8038,0.8038,0.8038,0.8038,0.0,0.0,0.0,0.0,0.0,0.0,0.0,0.0,0.0,0.0,0.0,0.0,0.0,0.0,0.0,0.0,0.0,0.0,0.0,0.0,0.0,0.0,0.0,0.0,0.0,0.0,0.0,0.0,0.0,0.0,0.0,0.0,0.0,0.0,0.0,0.0,0.0,0.0,0.0,0.0,0.0,0.0,0.0,0.0,0.0,0.0,0.0,0.0,0.0,0.0,0.0,1.7395,1.7382,1.682,1.66,1.6361,1.5925,1.5845,1.4758,1.2145,1.2043,1.107,0.8473,0.8296,0.8357,0.8563,0.846,0.8275,0.8037,0.8146,0.818,0.0,0.0,0.0,0.0,0.0,0.0,0.0,0.0,0.0,0.0,0.7455,0.7461,0.7577,0.7577,0.757,0.7543,0.74,0.7434,0.7536,0.74,0.7353,0.7353,0.7353,0.7258,0.7143,0.7143,0.7143,0.734,0.8731,0.8246,0.7682,0.9194,0.8718,0.7807,0.7977,0.8018,0.8024,0.8038,0.8038,0.8038,0.8038,0.8038,0.8038,0.8038,0.8038,0.8038,0.0,0.0,0.0,0.0,0.0,0.0,0.0,0.0,0.0,0.0,0.0,0.0,0.0,0.0,0.0,0.0,0.0,0.0,0.7768,0.0,0.0,0.0,0.0,0.0,0.0,0.0,0.0,0.0,0.0,0.0,0.0,0.0,0.0,0.0,0.0,0.0,0.0,0.0,0.0,0.0,0.0,0.0,0.0,0.0,0.0,0.0,0.0,0.0,0.0,0.0,1.7502,1.7368,1.678,1.67,1.662,1.638,1.6046,1.4821,1.2319,1.2244,1.1205,0.8737,0.8621,0.8655,0.8621,0.8584,0.8357,0.8166,0.8269,0.8194,0.0,0.0,0.0,0.0,0.0,0.0,0.0,0.0,0.843,0.7604,0.7624,0.7624,0.7604,0.7692,0.7624,0.7468,0.7495,0.7489,0.7468,0.7495,0.7509,0.7509,0.7509,0.7346,0.7156,0.7251,0.7811,0.8551,0.9175,0.905,0.883,0.9552,0.886,0.7848,0.7997,0.8038,0.8038,0.8038,0.8038,0.8038,0.8038,0.8038,0.8038,0.8038,0.8038,0.8038,0.0,0.0,0.0,0.0,0.0,0.0,0.0,0.0,0.0,0.0,0.0,0.0,0.0,0.0,0.0,0.0,0.0,0.0,0.8625,0.0,0.4674,0.2958,0.0967,0.0,0.0,0.0,0.0,0.0,0.0,0.0,0.0,0.0,0.0,0.0,0.0,0.0,0.0,0.0,0.0,0.0,0.0,0.0,0.0,1.6299,0.0,1.6794,0.0,1.7221,1.7341,1.7555,1.7582,1.7435,1.7021,1.6807,1.6633,1.6473,1.6152,1.4958,1.2453,1.2434,1.1413,0.8918,0.8811,0.8845,0.8777,0.8628,0.0,0.8404,0.8397,0.8303,0.8106,0.8214,0.0,0.0,0.0,0.0,0.0,0.969,0.9742,0.8792,0.8901,0.8917,0.887,0.8601,0.8321,0.8131,0.7827,0.7624,0.7577,0.7638,0.7658,0.7658,0.7658,0.7489,0.7292,0.7851,0.8611,0.9548,1.0473,1.0166,0.9742,1.0218,0.9123,0.7902,0.8011,0.8038,0.8038,0.8038,0.8038,0.8038,0.8038,0.8038,0.8038,0.8038,0.8038,0.8038,0.8038,0.0,0.0,0.0,0.0,0.0,0.0,0.0,0.8038,0.8038,0.0,0.0,0.0,0.0,0.0,0.0,0.0,0.0,0.0,0.0,0.0,0.0,0.4151,0.2605,0.1619,0.0499,0.0,0.0,0.0,0.0,0.0,0.0,0.0,0.0,0.0,0.0,0.0,0.0,0.0,0.0,0.0,0.0,0.0,1.6219,1.6513,1.6794,1.7101,1.7382,1.7582,1.7582,1.7582,1.7582,1.7569,1.7061,1.6486,1.5899,1.6099,1.517,1.2463,1.2565,1.1663,0.8925,0.871,0.8777,0.0,0.0,0.871,0.8703,0.8703,0.856,0.8269,0.0,0.0,0.8038,0.0,0.9892,0.9801,1.1133,1.1701,1.1606,1.1606,1.1738,1.1745,1.0485,0.9993,0.9772,0.8348,0.7902,0.8011,0.7862,0.7807,0.7807,0.7807,0.7712,0.7778,0.9056,0.952,1.0019,1.2856,1.1795,1.0132,1.1492,0.9993,0.8038,0.8038,0.8038,0.8038,0.8038,0.8038,0.8038,0.8038,0.8038,0.8038,0.8038,0.8038,0.8038,0.8038,0.0,0.0,0.0,0.0,0.0,0.0,0.8038,0.8038,0.8038,0.0,0.0,0.0,0.0,0.0,0.0,0.0,0.0,0.8703,0.9051,0.0,0.9727,1.0032,0.8511,0.5262,0.1668,0.0,0.0,0.0,0.0,0.0,0.0,0.0,0.0,0.0,0.0,0.0,0.0,0.0,0.0,0.0,0.0,0.0,1.6553,1.6807,1.7101,1.7395,1.7515,1.7582,1.7582,1.7582,1.7515,1.7315,1.7128,1.686,1.6473,1.6339,1.5729,0.0,1.4205,1.3213,0.0,1.0373,0.9859,0.8933,0.8791,0.871,0.871,0.871,0.8567,0.8269,0.0,0.0,0.0,0.9591,1.0633,1.1038,1.3458,1.3849,1.2673,1.2052,1.1879,1.1853,1.1463,1.0697,0.9816,0.9397,0.8706,0.7889,0.7943,0.797,0.797,0.797,0.8517,0.9437,1.077,1.1058,1.1358,1.3305,1.2608,1.1376,1.1736,0.9993,0.8038,0.8038,0.8038,0.8038,0.8038,0.8038,0.8038,0.8038,0.8038,0.8038,0.8038,0.8126,0.8201,0.8201,0.8275,0.0,0.0,0.0,0.0,0.0,0.0,0.8201,0.0,0.8282,0.0,0.0,0.0,0.0,0.0,0.0,0.0,0.0,0.9285,0.0,0.9829,1.0239,0.9882,0.8753,0.773,0.4781,0.0,0.0,0.0,0.0,0.0,0.0,0.0,0.0,0.0,0.0,0.0,0.0,0.0,0.0,0.0,0.0,1.654,1.6874,1.7208,1.7382,1.7515,1.7582,1.7582,1.7582,1.7515,1.7341,1.7221,1.7114,1.7048,1.678,0.0,1.5116,1.5129,1.4177,1.2073,1.1428,1.0672,0.9809,0.9064,0.8798,0.8798,0.0,0.0,0.8453,0.8309,0.8119,0.7911,1.0035,1.1298,1.1772,1.453,1.5242,1.4148,1.3619,1.3403,1.3403,1.334,1.2876,1.1884,1.0715,0.9217,0.7979,0.8583,0.8428,0.8038,0.8627,0.9312,1.0288,1.2134,1.2619,1.2808,1.422,1.3307,1.195,1.195,0.9993,0.8038,0.8038,0.8038,0.8038,0.8038,0.8038,0.8038,0.8038,0.8085,0.8126,0.8126,0.8248,0.835,0.835,0.8425,0.8431,0.0,0.0,0.0,0.0,0.0,0.0,0.0,0.8431,0.0,0.0,0.0,0.0,0.0,0.0,0.0,0.9103,0.9571,0.0,1.0073,1.0276,1.0412,1.0473,1.0637,0.8306,0.3978,0.1204,0.0,0.0,0.0,0.0,0.0,0.0,0.0,0.0,0.0,0.0,0.0,0.0,0.0,0.0,1.6299,1.6754,0.0,0.0,1.7395,0.0,1.7582,1.7582,1.7582,1.7582,1.7341,1.7288,1.7555,1.7341,1.6652,1.5279,0.0,0.0,0.0,1.2082,1.1219,1.1109,0.9699,0.894,0.894,0.894,0.8784,0.8584,0.8227,0.8048,0.8041,1.0536,1.1788,1.2289,1.4709,1.5832,1.5832,1.5832,1.5832,1.5845,1.5843,1.5787,1.5486,1.2211,0.9828,0.8456,0.9485,0.9015,0.8237,0.9402,0.9993,1.0583,1.2995,1.3872,1.4268,1.5439,1.398,1.2047,1.195,1.0092,0.8137,0.8038,0.8038,0.8038,0.8038,0.8045,0.8058,0.8058,0.818,0.8289,0.8296,0.8418,0.8513,0.8513,0.8513,0.8459,0.8309,0.0,0.0,0.0,0.0,0.0,0.0,0.852,0.8526,0.0,0.0,0.0,0.0,0.0,0.9123,0.9401,0.9707,1.0066,1.0487,1.05,1.0582,1.0717,1.0638,1.0545,1.0162,0.3369,0.0272,0.0,0.0,0.0,0.0,0.0,0.0,0.0,0.0,0.0,0.0,0.0,0.0,0.0,0.0,0.0,1.7221,1.7435,1.7542,1.7582,1.7582,1.7582,1.7582,1.7582,1.7515,1.7502,1.7569,1.7515,1.737,1.7042,1.7002,1.6499,1.4984,1.3588,1.2417,1.1682,0.9926,0.894,0.894,0.894,0.8771,0.8522,0.8206,0.8,0.8,0.8668,1.1039,1.4912,1.552,1.5832,1.5832,1.5832,1.5832,1.5832,1.5763,1.5817,1.5691,1.4871,1.3083,1.0726,0.9076,0.8294,0.8031,0.8379,0.9755,1.1541,1.2138,1.3718,1.5439,1.5724,1.4663,1.3199,1.2145,1.0779,0.9312,0.8237,0.8038,0.8038,0.8038,0.8133,0.8214,0.8214,0.833,0.8465,0.8587,0.873,0.8832,0.8832,0.8832,0.8737,0.8472,0.8431,0.0,0.0,0.8574,0.875,0.8662,0.8859,0.8994,0.0,0.0,0.0,0.0,0.949,0.9646,0.9713,1.012,1.0385,1.0487,1.0609,1.0683,1.0717,1.0731,0.9308,0.6545,0.4907,0.2611,0.0,0.0,0.0,0.0,0.0,0.0,0.0,0.0,0.0,0.0,0.0,0.0,0.0,1.6847,1.7141,1.7395,1.7555,1.7582,1.7582,1.7582,1.7582,1.7582,1.7582,1.7582,1.7582,1.7582,1.7582,1.7582,1.7582,1.7582,1.7252,1.6499,1.4911,1.3521,1.2536,1.0139,0.894,0.894,0.894,0.8649,0.8287,1.0462,1.1531,1.1586,1.1547,1.3042,1.5832,1.5832,1.5832,1.5832,1.5832,1.5832,1.5832,1.5832,1.5763,1.5817,1.5817,1.4908,1.3291,1.0672,0.897,0.7991,0.8034,0.9689,1.2073,1.3312,1.4709,1.575,1.5774,1.4461,1.2813,1.2145,1.0485,0.8939,0.8327,0.8194,0.8241,0.8241,0.8364,0.8452,0.8384,0.8594,0.8791,0.8811,0.8994,0.9117,0.9049,0.8981,0.8832,0.8526,0.8479,0.0,0.8472,0.875,0.896,0.9015,0.9164,0.9225,0.9157,0.0,0.0,0.9483,0.9829,0.9998,0.993,1.0297,1.0527,1.0595,1.0677,1.0717,1.0724,1.0806,0.9789,0.7664,0.4401,0.1807,0.0,0.0,0.0,0.0,0.0,0.0,0.0,0.0,0.0,0.0,0.0,0.0,0.0,1.7034,1.7355,1.7582,1.7582,1.7582,1.7582,1.7582,1.7582,1.7582,1.7582,1.7582,1.7582,1.7582,1.7582,1.7595,1.7635,1.7649,1.7622,1.7582,1.6053,1.4775,1.3964,1.0688,0.894,0.894,0.8906,0.8608,0.7956,1.3192,1.5835,1.5774,1.5777,1.5832,1.5832,1.5832,1.5832,1.5832,1.5832,1.5832,1.5832,1.5832,1.5832,1.5832,1.5832,1.58,1.5388,1.2391,0.9853,0.8167,0.8939,1.0697,1.2866,1.5121,1.5747,1.58,1.5817,1.4264,1.2552,1.2041,0.9962,0.8019,0.8255,0.8377,0.8472,0.8604,0.8628,0.8716,0.8608,0.8906,0.9157,0.9062,0.9245,0.9374,0.9245,0.9083,0.8872,0.8594,0.0,0.8601,0.873,0.892,0.913,0.9361,0.9422,0.9395,0.9266,0.9517,0.9686,0.0,1.0093,1.0249,1.012,1.0385,1.0588,1.0717,1.0744,1.0758,1.0758,1.0928,1.09,1.0528,0.4458,0.1694,0.172,0.1723,0.1019,0.0,0.0,0.0,0.0,0.0,0.0,0.0,0.0,0.0,0.0,1.6767,1.7208,1.7582,1.7582,1.7582,1.7582,1.7582,1.7582,1.7582,1.7582,1.7582,1.7582,1.7582,1.7582,1.7569,1.7593,1.762,1.7622,1.7595,1.7368,1.7054,1.6921,1.1726,0.894,0.894,0.8865,0.8652,0.8001,1.3236,1.5791,1.5763,1.5832,1.5832,1.5832,1.5832,1.5832,1.5832,1.5832,1.5832,1.5832,1.5832,1.5832,1.5832,1.5832,1.5757,1.5195,1.0314,0.8308,0.8685,1.3089,1.4835,1.5293,1.5642,1.5793,1.5793,1.5831,1.5921,1.5343,1.2689,0.9973,0.8117,0.8357,0.8481,0.864,0.8772,0.8865,0.8933,0.9028,0.9205,0.9381,0.9483,0.9544,0.9564,0.9544,0.9306,0.9062,0.8893,0.0,0.8763,0.8673,0.9138,0.9352,0.9388,0.9605,0.9741,0.972,0.9754,0.9908,1.0168,1.0358,1.0446,1.0426,1.0595,1.0697,1.0717,1.0846,1.0914,1.0914,1.0926,1.0994,1.111,0.9666,0.9372,0.9755,0.9755,0.6002,0.0,0.0,0.0,0.0,0.0,0.0,0.0,0.0,0.0,0.0,1.7154,1.7395,1.7582,1.7582,1.7582,1.7635,1.7809,1.7689,1.7649,1.7809,1.7689,1.7582,1.7582,1.7582,1.7583,1.7646,1.7564,1.7698,1.8063,1.7728,1.6208,1.3088,1.0331,0.8904,0.8937,0.8904,1.0272,1.3172,1.4961,1.5835,1.584,1.584,1.5822,1.5758,1.5758,1.5758,1.5843,1.5809,1.5822,1.5843,1.5809,1.5835,1.5758,1.5758,1.5802,1.557,1.3802,1.3179,1.3456,1.5178,1.6186,1.6819,1.6787,1.6807,1.6751,1.678,1.5667,1.3768,1.0826,0.9175,0.8666,1.042,1.0949,1.0704,0.9293,0.9024,0.9178,0.9279,0.9456,0.9618,0.9493,0.9673,0.9727,0.9727,0.9641,0.0,0.0,0.8758,0.8652,0.8807,0.9136,0.9477,0.9612,0.9861,1.0066,1.0073,1.0134,1.0109,1.0385,1.046,1.0568,1.0598,1.0806,1.0705,1.0705,1.0853,1.0967,1.1047,1.1047,1.1083,1.1002,1.1085,1.1501,1.2101,1.2115,1.0016,0.6394,0.1825,0.0,0.0,0.0,0.0,0.0627,0.5376,0.415,0.0,1.7435,1.7542,1.7582,1.7582,1.7649,1.7769,1.8009,1.7903,1.7876,1.8116,1.7943,1.7796,1.7796,1.7782,1.7795,1.7733,1.7882,1.8247,1.8677,1.7565,1.4572,0.9349,0.9091,0.9036,0.8917,0.889,1.1652,1.7131,1.6302,1.5804,1.5823,1.6045,1.6262,1.6247,1.6247,1.6247,1.6234,1.6236,1.6051,1.5795,1.6124,1.6176,1.626,1.6212,1.6227,1.6356,1.7279,1.7565,1.7503,1.6574,1.6856,1.7612,1.7565,1.7626,1.762,1.7968,1.6125,1.3517,1.1194,1.0634,1.1167,1.3702,1.4542,1.37,1.0004,0.9248,0.9394,0.9432,0.962,0.9767,0.9539,0.9605,0.9787,0.9754,0.0,0.0,0.0,0.8787,0.8807,0.8941,0.9309,0.9632,1.0009,1.0176,1.0317,1.0431,1.0385,1.0473,1.0561,1.0484,1.0618,1.0853,1.0859,1.0859,1.0859,1.1034,1.1041,1.1153,1.1194,1.1199,1.0878,1.1599,1.2128,1.2477,1.2491,1.2574,1.206,0.5538,0.2943,0.2977,0.2982,0.1737,0.1115,1.0121,0.9059,0.2769,1.7181,1.7395,1.7582,1.7582,1.7822,1.8023,1.805,1.8263,1.8437,1.845,1.8437,1.8424,1.8424,1.83,1.8158,1.8194,1.8865,1.9253,1.9292,1.6457,1.3362,0.9865,0.9511,0.9164,0.8917,0.8953,1.1247,1.5903,1.5808,1.577,1.5782,1.69,1.7482,1.7496,1.7496,1.7496,1.7496,1.7482,1.68,1.5908,1.7027,1.7482,1.7424,1.7469,1.7509,1.7528,1.7528,1.7596,1.7593,1.7486,1.7486,1.7633,1.765,1.7631,1.778,1.8919,1.914,1.8561,1.7303,1.693,1.7241,1.8611,1.891,1.735,1.1141,0.9598,0.9464,0.9718,0.9745,0.9849,0.9709,0.9849,0.981,0.9804,0.0,0.0,0.9411,0.9405,0.9207,0.8977,0.9387,1.0009,1.0545,1.0663,1.0711,1.0635,1.0697,1.0732,1.0665,1.0717,1.0836,1.1145,1.0862,1.0862,1.1145,1.1147,1.1149,1.1162,1.1436,1.1495,1.1479,1.2112,1.2498,1.2467,1.2474,1.2494,1.238,1.1901,1.1522,1.15,1.1506,0.6883,0.1129,1.0061,1.2963,1.1242,1.7617,1.7502,1.7649,1.7836,1.8023,1.8237,1.8544,1.8531,1.8557,1.8731,1.8722,1.8739,1.8739,1.8863,1.8986,1.8905,1.9185,1.9435,1.9345,1.5751,1.2447,0.994,0.975,1.0226,1.16,1.159,1.3169,1.639,1.6724,1.7117,1.7482,1.795,1.8157,1.817,1.817,1.7929,1.7556,1.7644,1.7355,1.6937,1.7445,1.7603,1.7582,1.7622,1.805,1.8755,1.8755,1.8223,1.7702,1.8453,1.87,1.8714,1.8712,1.8736,1.8824,1.9314,1.9435,1.9488,1.9653,1.9279,1.8865,1.9307,1.9359,1.7718,1.1238,0.9658,0.9804,1.0301,1.0369,1.041,1.041,1.041,1.0417,1.0317,0.0,0.9901,0.969,1.0029,1.0161,1.0042,1.0194,1.0417,1.0685,1.074,1.0636,1.0643,1.2641,1.3062,1.1097,1.075,1.0728,1.0874,1.1186,1.1193,1.0874,1.1305,1.165,1.2045,1.2101,1.2126,1.2106,1.242,1.2454,1.2501,1.2501,1.2562,1.2501,1.2501,1.2437,1.2575,1.2922,1.1189,0.8648,1.2144,1.3425,1.2873,1.7884,1.7662,1.7796,1.8009,1.8263,1.8544,1.8878,1.8838,1.8838,1.9038,1.9018,1.9009,1.9009,1.9275,1.9371,1.9435,1.9448,1.9172,1.8635,1.4903,1.1815,0.9937,0.971,1.0717,1.263,1.3447,1.4545,1.6088,1.7271,1.8067,1.8462,1.8679,1.8822,1.8752,1.8752,1.849,1.8203,1.8171,1.7983,1.7559,1.7593,1.7862,1.821,1.8144,1.8637,1.9389,1.9389,1.8816,1.8255,1.9166,1.9387,1.9412,1.9412,1.9361,1.9412,1.9417,1.9668,2.012,2.0874,2.0474,1.9904,1.9455,1.9628,1.8751,1.4394,1.1689,1.0243,1.0593,1.0649,1.0684,1.0684,1.0684,1.0704,1.0746,1.0324,1.0143,1.0123,1.048,1.0753,1.0683,1.0658,1.0705,1.0658,1.0672,1.0672,1.0638,1.5325,1.6128,1.1504,1.1127,1.0941,1.0941,1.1325,1.1504,1.1305,1.155,1.1898,1.2512,1.2512,1.2508,1.2487,1.2487,1.2487,1.2487,1.2487,1.2541,1.2476,1.2641,1.2728,1.2862,1.3212,1.3464,1.3411,1.3439,1.3376,1.3338,1.7898,1.7836,1.805,1.805,1.8531,1.8918,1.8931,1.9185,1.9372,1.9372,1.9372,1.9372,1.9372,1.9372,1.9372,1.9372,1.9372,1.8765,1.7091,1.4004,1.1503,0.9822,0.9686,1.0237,1.1544,1.3578,1.4741,1.4725,1.7292,1.8476,1.855,1.9112,1.9375,1.9389,1.9389,1.9389,1.9389,1.9375,1.8739,1.7623,1.7623,1.8366,1.9403,1.9456,1.9439,1.9439,1.9439,1.9388,1.9448,1.9421,1.9448,1.9404,1.9404,1.9455,1.9421,1.9421,2.0241,2.1078,2.1078,2.1078,2.0794,1.9689,2.0212,2.1067,2.1094,1.5656,1.0663,1.0739,1.0747,1.0724,1.0724,1.0724,1.0677,1.0658,1.076,1.0685,1.0704,1.0724,1.0699,1.0698,1.0737,1.0685,1.069,1.0723,1.0664,1.0843,1.8243,1.9549,1.2051,1.1603,1.153,1.1683,1.1676,1.1911,1.2522,1.1901,1.1887,1.2501,1.2494,1.2483,1.2468,1.2468,1.2468,1.2468,1.2468,1.2468,1.2628,1.313,1.338,1.3343,1.3343,1.3432,1.3403,1.3403,1.3331,1.3452,1.8276,1.8707,1.9334,1.8695,1.8811,1.8998,1.9199,1.9319,1.9372,1.9372,1.9372,1.9372,1.9372,1.9546,1.9586,1.9386,1.9559,1.8458,1.5664,1.3628,1.1805,0.9985,1.0921,1.2039,1.3355,1.508,1.6398,1.7418,1.8114,1.8617,1.8789,1.9009,1.9158,1.9361,1.9361,1.9361,1.9361,1.9398,1.9176,1.891,1.891,1.905,1.9343,1.9388,1.9359,1.9389,1.9435,1.9412,1.9391,1.9429,1.9391,1.9562,2.0321,2.0577,2.0551,2.0617,2.0821,2.1149,2.1078,2.1132,2.1078,2.0725,2.0805,2.1159,2.1115,1.5724,1.0685,1.0636,1.0638,1.0739,1.0739,1.0684,1.0736,1.069,1.0684,1.0697,1.0743,1.1029,1.1344,1.1296,1.1303,1.1289,1.1386,1.092,1.3142,1.8778,1.6568,1.3937,1.1755,1.161,1.1837,1.2148,1.2292,1.2374,1.2532,1.2271,1.2359,1.2501,1.2977,1.3137,1.3123,1.3123,1.3123,1.3123,1.3123,1.3178,1.3112,1.3274,1.3363,1.3336,1.3336,1.3363,1.341,1.3351,1.3418,1.3472,1.9256,1.9283,1.947,1.8964,1.9025,1.9158,1.9345,1.9372,1.9372,1.9372,1.9466,1.9533,1.9533,1.98,1.9907,1.972,1.9257,1.7877,1.5176,1.3572,1.2348,1.1128,1.242,1.3508,1.4139,1.5758,1.7151,1.849,1.8611,1.8744,1.8931,1.9052,1.9199,1.9372,1.9372,1.9372,1.9359,1.9428,1.9361,1.9374,1.9367,1.9408,1.9435,1.9455,1.9417,1.9416,1.9905,1.9813,1.9429,1.9429,1.9653,2.0201,2.0903,2.1136,2.1039,2.1078,2.1118,2.1159,2.1069,2.1484,2.182,2.1782,2.1434,2.0397,1.7658,1.3831,1.0941,1.0925,1.0792,1.075,1.1029,1.1104,1.102,1.102,1.102,1.104,1.1101,1.1307,1.165,1.1564,1.1571,1.1537,1.1587,1.1212,1.4371,2.2357,1.6131,1.2025,1.1911,1.1918,1.2149,1.2463,1.2457,1.256,1.2628,1.2628,1.2697,1.2521,1.3158,1.3318,1.3471,1.3471,1.3471,1.3471,1.3471,1.3349,1.3432,1.3432,1.3356,1.3485,1.3424,1.3437,1.3331,1.3425,1.3492,1.3736,2.0514,1.9733,1.9258,1.8958,1.9185,1.9372,1.9372,1.9386,1.9412,1.9412,1.9653,1.984,1.984,2.0094,2.0267,2.0241,1.8753,1.7268,1.5649,1.4057,1.3195,1.3178,1.4336,1.4871,1.4432,1.593,1.7313,1.8571,1.8838,1.8958,1.8971,1.9239,1.9386,1.9399,1.9399,1.9412,1.9439,1.9439,1.9439,1.9452,1.9457,1.9443,1.9589,1.9585,1.9568,1.9715,2.0672,2.0402,1.9581,1.9581,2.0196,2.1051,2.1155,2.1109,2.1109,2.1136,2.1149,2.1289,2.1316,2.197,2.2762,2.2905,2.2112,1.9559,1.3155,1.1439,1.1185,1.1205,1.094,1.0902,1.1469,1.1621,1.1635,1.165,1.165,1.1706,1.1719,1.1715,1.1708,1.1683,1.1703,1.161,1.1667,1.215,1.5548,2.2599,1.6566,1.2486,1.2536,1.2539,1.2471,1.2491,1.2608,1.2752,1.3075,1.3089,1.284,1.2648,1.3112,1.3418,1.3403,1.3403,1.3403,1.3403,1.3403,1.3403,1.3403,1.3403,1.3478,1.3418,1.3458,1.3492,1.3459,1.3465,1.3743,1.4242,2.1309,2.1665,2.1628,1.9685,1.9319,1.9372,1.9372,1.9559,1.9706,1.9706,1.996,2.0134,2.0134,2.0401,2.0494,2.0254,1.8927,1.7917,1.7531,1.6063,1.5189,1.514,1.6291,1.6895,1.6697,1.8064,1.8879,1.9172,1.9239,1.9265,1.9265,1.9332,1.9362,1.943,1.943,1.943,1.9374,1.9374,1.9374,1.9374,1.9438,1.9879,2.0698,2.0752,2.0781,2.0821,2.1011,2.0944,2.0725,2.0725,2.0913,2.1155,2.1096,2.1109,2.1149,2.1093,2.174,2.2535,2.2483,2.1988,2.1739,2.2635,2.2724,2.2002,1.9989,1.5041,1.0975,1.1431,1.1476,1.1482,1.1629,1.1585,1.1558,1.1667,1.1839,1.2039,1.2346,1.21,1.2127,1.231,1.2317,1.2072,1.1681,1.7023,2.1505,2.4024,1.694,1.2501,1.2539,1.2532,1.267,1.295,1.2828,1.2917,1.3068,1.3185,1.326,1.3288,1.3329,1.3418,1.3403,1.3403,1.3403,1.3403,1.3403,1.3403,1.3403,1.3403,1.3417,1.3444,1.3929,1.3839,1.3465,1.3402,1.3713,1.4222,2.2307,2.1673,2.0969,1.9679,1.9372,1.9412,1.9546,1.9706,1.9853,1.9987,2.0267,2.0441,2.0441,2.0708,2.0815,2.0668,2.0026,1.921,1.8312,1.7535,1.715,1.703,1.7554,1.8237,1.896,1.943,1.9506,1.9372,1.9372,1.9439,1.9573,1.9442,1.947,1.9601,1.9468,1.9412,1.9421,1.9958,2.0227,2.0241,2.0252,2.0577,2.1149,2.1149,2.1037,2.1146,2.1135,2.1037,2.1047,2.1056,2.1049,2.1054,2.1057,2.1083,2.1123,2.1124,2.1907,2.2841,2.2849,2.2389,2.2071,2.2673,2.2971,2.2781,2.2443,1.9187,1.5153,1.2114,1.1579,1.1859,1.1859,1.1928,1.2297,1.3691,1.2823,1.2254,1.2296,1.2251,1.2326,1.2484,1.4153,1.5842,1.6856,2.1078,2.3904,2.4516,1.701,1.2532,1.2488,1.2569,1.2521,1.2834,1.284,1.3075,1.3057,1.3132,1.3214,1.3446,1.3446,1.3329,1.3403,1.3471,1.3338,1.3345,1.3412,1.3398,1.3338,1.3338,1.3378,1.3432,1.3713,1.3648,1.3495,1.3747,1.4048,1.4373,2.331,2.1421,1.972,1.9542,1.9439,1.9546,1.9826,1.992,2.004,2.0281,2.0575,2.0748,2.0748,2.0962,2.1109,2.1109,2.1109,2.0462,1.9024,1.8896,1.8896,1.8896,1.8644,1.9275,2.0681,2.0147,1.9733,1.9439,1.9439,1.9559,1.9668,1.9589,1.9627,1.9768,1.9498,1.9511,1.9698,2.0672,2.108,2.1107,2.108,2.1037,2.1064,2.1155,2.1109,2.1122,2.1316,2.1356,2.1283,2.1109,2.1188,2.1371,2.1451,2.1397,2.1397,2.1437,2.2098,2.2896,2.2951,2.2889,2.2862,2.2939,2.3054,2.3213,2.3247,2.26,2.039,1.4488,1.2698,1.2189,1.2189,1.2806,1.4324,1.7202,1.4943,1.2827,1.2926,1.2656,1.2484,1.2484,1.6766,2.0511,2.2993,2.4103,2.4649,2.4631,1.7123,1.2433,1.243,1.2608,1.2675,1.2661,1.2836,1.3064,1.3043,1.3043,1.3117,1.3437,1.3437,1.3444,1.3617,1.3593,1.3479,1.3465,1.3599,1.3586,1.3627,1.3479,1.3389,1.3475,1.3539,1.3482,1.3539,1.4102,1.4373,1.4299,2.3894,2.2445,2.1003,1.9929,1.9746,1.984,2.0134,2.0388,2.0575,2.0615,2.0869,2.1056,2.1056,2.1082,2.1109,2.1109,2.1109,2.0982,2.0716,2.0716,2.0716,2.0716,2.044,2.042,2.0681,2.0212,1.9893,1.9746,1.9483,1.9365,1.9417,1.992,1.9916,1.9496,1.9372,1.991,2.085,2.1002,2.1128,2.1128,2.1042,2.1056,2.1056,2.1096,2.1109,2.1276,2.2268,2.2373,2.1857,2.1319,2.1779,2.2676,2.2717,2.2717,2.264,2.2592,2.27,2.2942,2.2908,2.2894,2.2949,2.2847,2.3674,2.4303,2.4367,2.3615,2.2557,2.151,1.6618,1.2395,1.2395,1.5319,1.8948,2.2892,1.8648,1.5136,1.5768,1.3992,1.2474,1.2474,1.9197,2.3915,2.4311,2.4486,2.4618,2.4649,1.7134,1.2534,1.2429,1.2929,1.3164,1.297,1.3139,1.3214,1.337,1.337,1.3278,1.3425,1.36,1.3775,1.4126,1.4103,1.4103,1.4161,1.4131,1.4117,1.4161,1.3586,1.3469,1.3488,1.3995,1.4098,1.4263,1.4224,1.4285,1.4299,2.4132,2.2215,2.0489,2.0107,2.004,2.0147,2.0441,2.0588,2.0735,2.0895,2.1029,2.1109,2.1109,2.1109,2.1109,2.1109,2.1109,2.1109,2.1109,2.1109,2.1109,2.1109,2.0989,2.0922,2.0922,2.0491,2.0279,2.0159,1.9706,1.9585,1.9876,1.9736,1.9944,2.0354,2.0354,2.0572,2.1109,2.1109,2.1109,2.1109,2.1109,2.1109,2.1109,2.1109,2.1497,2.2126,2.2716,2.2766,2.2454,2.2178,2.2525,2.29,2.3256,2.3365,2.3406,2.2935,2.2941,2.3073,2.3695,2.3829,2.3848,2.3852,2.4286,2.4539,2.4565,2.4162,2.3857,2.3817,1.7771,1.2571,1.2505,1.5896,1.9159,2.0889,1.8431,1.623,1.6572,1.4307,1.336,1.571,2.0113,2.3441,2.4842,2.5173,2.4376,2.2073,1.6407,1.2944,1.3064,1.3246,1.3315,1.3295,1.3302,1.337,1.3358,1.3358,1.3425,1.3402,1.3838,1.418,1.4281,1.4256,1.4291,1.4242,1.4034,1.4187,1.4235,1.3946,1.3966,1.3966,1.4153,1.4242,1.4386,1.4278,1.4299,1.4299]}]]